<?xml version="1.0" encoding="UTF-8" standalone="no" ?>
<gpx xmlns="http://www.topografix.com/GPX/1/1" xmlns:xsi="http://www.w3.org/2001/XMLSchema-instance" xsi:schemaLocation="http://www.topografix.com/GPX/1/1 http://www.topografix.com/GPX/1/1/gpx.xsd" version="1.1" creator="VisuGPX - https://www.visugpx.com">
  <metadata>
    <name>Nasbinals - cascade du Déroc</name>
    <desc><![CDATA[2019-05 - Nasbinals - cascade du Déroc

[b]album[/b] : [url]https://photos.app.goo.gl/5iZSMh7Gh66EZ4v29[/url]
[img]https://blogger.googleusercontent.com/img/b/R29vZ2xl/AVvXsEjxm-OgxszzBkcNYlqgBeavfHgQ2KNJbuHUVrQFjonUZHXdmlGuGehtC01rigDZxEmy_j28wEaNgM-hZR9yiagCB3YEFeFFOGWRKsG_e8m1l2UfxbkhQUPB6smfxw89SDvUR3U6BPMmAClURGQJ9JPCiXgiIYAS4ZYA76TM1nUYXBHCoSo4kApLu4XJkVFN/s600/aubrac.JPG[/img]
[b]Idées de randonnées dans la même région[/b]
Parcours : [url]https://www.visugpx.com/membres/24856/montagne/massif-central/[/url]
Photos : [url]https://jcvertygo.blogspot.com/p/massif-central.html[/url]]]></desc>
  </metadata>
  <trk>
    <name><![CDATA[SityTrail - nasbinals]]></name>
    <extensions>
      <line xmlns="http://www.topografix.com/GPX/gpx_style/0/2">
        <color>0000FF</color>
        <width>4</width>
      </line>
    </extensions>
    <trkseg>
      <trkpt lat="44.64763" lon="3.06592">
        <ele>1218</ele>
        <time>2019-05-31T08:04:00.107Z</time>
      </trkpt>
      <trkpt lat="44.64762" lon="3.06593">
        <ele>1218</ele>
        <time>2019-05-31T08:04:01.113Z</time>
      </trkpt>
      <trkpt lat="44.64759" lon="3.06598">
        <ele>1216</ele>
        <time>2019-05-31T08:04:05.122Z</time>
      </trkpt>
      <trkpt lat="44.64754" lon="3.06606">
        <ele>1216</ele>
        <time>2019-05-31T08:04:10.102Z</time>
      </trkpt>
      <trkpt lat="44.64751" lon="3.06613">
        <ele>1216</ele>
        <time>2019-05-31T08:04:15.133Z</time>
      </trkpt>
      <trkpt lat="44.64746" lon="3.06619">
        <ele>1216</ele>
        <time>2019-05-31T08:04:20.137Z</time>
      </trkpt>
      <trkpt lat="44.64744" lon="3.06627">
        <ele>1215</ele>
        <time>2019-05-31T08:04:25.112Z</time>
      </trkpt>
      <trkpt lat="44.64743" lon="3.06631">
        <ele>1215</ele>
        <time>2019-05-31T08:04:29.145Z</time>
      </trkpt>
      <trkpt lat="44.6474" lon="3.06635">
        <ele>1215</ele>
        <time>2019-05-31T08:04:34.117Z</time>
      </trkpt>
      <trkpt lat="44.64739" lon="3.06637">
        <ele>1215</ele>
        <time>2019-05-31T08:04:38.145Z</time>
      </trkpt>
      <trkpt lat="44.64739" lon="3.06643">
        <ele>1215</ele>
        <time>2019-05-31T08:04:43.137Z</time>
      </trkpt>
      <trkpt lat="44.64737" lon="3.06648">
        <ele>1215</ele>
        <time>2019-05-31T08:04:47.149Z</time>
      </trkpt>
      <trkpt lat="44.64734" lon="3.06654">
        <ele>1214</ele>
        <time>2019-05-31T08:04:52.116Z</time>
      </trkpt>
      <trkpt lat="44.64731" lon="3.06658">
        <ele>1214</ele>
        <time>2019-05-31T08:04:57.105Z</time>
      </trkpt>
      <trkpt lat="44.64729" lon="3.06663">
        <ele>1214</ele>
        <time>2019-05-31T08:05:01.130Z</time>
      </trkpt>
      <trkpt lat="44.64727" lon="3.0667">
        <ele>1214</ele>
        <time>2019-05-31T08:05:06.126Z</time>
      </trkpt>
      <trkpt lat="44.64725" lon="3.06674">
        <ele>1214</ele>
        <time>2019-05-31T08:05:11.122Z</time>
      </trkpt>
      <trkpt lat="44.64724" lon="3.06678">
        <ele>1214</ele>
        <time>2019-05-31T08:05:15.133Z</time>
      </trkpt>
      <trkpt lat="44.64721" lon="3.06682">
        <ele>1215</ele>
        <time>2019-05-31T08:05:20.137Z</time>
      </trkpt>
      <trkpt lat="44.64719" lon="3.06688">
        <ele>1215</ele>
        <time>2019-05-31T08:05:25.129Z</time>
      </trkpt>
      <trkpt lat="44.64716" lon="3.06693">
        <ele>1215</ele>
        <time>2019-05-31T08:05:30.136Z</time>
      </trkpt>
      <trkpt lat="44.64714" lon="3.06699">
        <ele>1215</ele>
        <time>2019-05-31T08:05:35.124Z</time>
      </trkpt>
      <trkpt lat="44.64711" lon="3.06705">
        <ele>1215</ele>
        <time>2019-05-31T08:05:40.134Z</time>
      </trkpt>
      <trkpt lat="44.64708" lon="3.06711">
        <ele>1216</ele>
        <time>2019-05-31T08:05:45.129Z</time>
      </trkpt>
      <trkpt lat="44.64705" lon="3.06716">
        <ele>1216</ele>
        <time>2019-05-31T08:05:50.119Z</time>
      </trkpt>
      <trkpt lat="44.64703" lon="3.06723">
        <ele>1216</ele>
        <time>2019-05-31T08:05:55.103Z</time>
      </trkpt>
      <trkpt lat="44.64699" lon="3.06728">
        <ele>1216</ele>
        <time>2019-05-31T08:05:59.136Z</time>
      </trkpt>
      <trkpt lat="44.64698" lon="3.06734">
        <ele>1216</ele>
        <time>2019-05-31T08:06:04.110Z</time>
      </trkpt>
      <trkpt lat="44.64695" lon="3.06743">
        <ele>1218</ele>
        <time>2019-05-31T08:06:09.103Z</time>
      </trkpt>
      <trkpt lat="44.64694" lon="3.06748">
        <ele>1218</ele>
        <time>2019-05-31T08:06:14.132Z</time>
      </trkpt>
      <trkpt lat="44.6469" lon="3.06754">
        <ele>1218</ele>
        <time>2019-05-31T08:06:19.104Z</time>
      </trkpt>
      <trkpt lat="44.64687" lon="3.06761">
        <ele>1218</ele>
        <time>2019-05-31T08:06:24.106Z</time>
      </trkpt>
      <trkpt lat="44.64685" lon="3.06766">
        <ele>1218</ele>
        <time>2019-05-31T08:06:28.134Z</time>
      </trkpt>
      <trkpt lat="44.64682" lon="3.06771">
        <ele>1218</ele>
        <time>2019-05-31T08:06:33.134Z</time>
      </trkpt>
      <trkpt lat="44.6468" lon="3.06778">
        <ele>1220</ele>
        <time>2019-05-31T08:06:38.104Z</time>
      </trkpt>
      <trkpt lat="44.64677" lon="3.06785">
        <ele>1220</ele>
        <time>2019-05-31T08:06:43.110Z</time>
      </trkpt>
      <trkpt lat="44.64675" lon="3.06789">
        <ele>1220</ele>
        <time>2019-05-31T08:06:47.108Z</time>
      </trkpt>
      <trkpt lat="44.64673" lon="3.06795">
        <ele>1219</ele>
        <time>2019-05-31T08:06:52.113Z</time>
      </trkpt>
      <trkpt lat="44.6467" lon="3.06802">
        <ele>1219</ele>
        <time>2019-05-31T08:06:57.133Z</time>
      </trkpt>
      <trkpt lat="44.64668" lon="3.0681">
        <ele>1219</ele>
        <time>2019-05-31T08:07:02.141Z</time>
      </trkpt>
      <trkpt lat="44.64665" lon="3.06817">
        <ele>1219</ele>
        <time>2019-05-31T08:07:07.103Z</time>
      </trkpt>
      <trkpt lat="44.64662" lon="3.06822">
        <ele>1217</ele>
        <time>2019-05-31T08:07:11.132Z</time>
      </trkpt>
      <trkpt lat="44.6466" lon="3.06828">
        <ele>1217</ele>
        <time>2019-05-31T08:07:16.107Z</time>
      </trkpt>
      <trkpt lat="44.64657" lon="3.06834">
        <ele>1217</ele>
        <time>2019-05-31T08:07:20.152Z</time>
      </trkpt>
      <trkpt lat="44.64655" lon="3.0684">
        <ele>1217</ele>
        <time>2019-05-31T08:07:25.109Z</time>
      </trkpt>
      <trkpt lat="44.64653" lon="3.06845">
        <ele>1216</ele>
        <time>2019-05-31T08:07:30.119Z</time>
      </trkpt>
      <trkpt lat="44.64651" lon="3.06853">
        <ele>1215</ele>
        <time>2019-05-31T08:07:35.122Z</time>
      </trkpt>
      <trkpt lat="44.64649" lon="3.06859">
        <ele>1215</ele>
        <time>2019-05-31T08:07:40.130Z</time>
      </trkpt>
      <trkpt lat="44.64648" lon="3.06866">
        <ele>1215</ele>
        <time>2019-05-31T08:07:45.130Z</time>
      </trkpt>
      <trkpt lat="44.64647" lon="3.06871">
        <ele>1215</ele>
        <time>2019-05-31T08:07:49.131Z</time>
      </trkpt>
      <trkpt lat="44.64645" lon="3.06876">
        <ele>1213</ele>
        <time>2019-05-31T08:07:53.157Z</time>
      </trkpt>
      <trkpt lat="44.64644" lon="3.0688">
        <ele>1213</ele>
        <time>2019-05-31T08:07:58.108Z</time>
      </trkpt>
      <trkpt lat="44.64641" lon="3.06886">
        <ele>1213</ele>
        <time>2019-05-31T08:08:02.119Z</time>
      </trkpt>
      <trkpt lat="44.64639" lon="3.06893">
        <ele>1213</ele>
        <time>2019-05-31T08:08:07.150Z</time>
      </trkpt>
      <trkpt lat="44.64636" lon="3.06901">
        <ele>1213</ele>
        <time>2019-05-31T08:08:12.135Z</time>
      </trkpt>
      <trkpt lat="44.64633" lon="3.06907">
        <ele>1212</ele>
        <time>2019-05-31T08:08:17.120Z</time>
      </trkpt>
      <trkpt lat="44.6463" lon="3.06913">
        <ele>1212</ele>
        <time>2019-05-31T08:08:22.134Z</time>
      </trkpt>
      <trkpt lat="44.64627" lon="3.06918">
        <ele>1212</ele>
        <time>2019-05-31T08:08:26.141Z</time>
      </trkpt>
      <trkpt lat="44.64624" lon="3.06923">
        <ele>1212</ele>
        <time>2019-05-31T08:08:31.127Z</time>
      </trkpt>
      <trkpt lat="44.64623" lon="3.06929">
        <ele>1212</ele>
        <time>2019-05-31T08:08:35.161Z</time>
      </trkpt>
      <trkpt lat="44.64621" lon="3.06937">
        <ele>1211</ele>
        <time>2019-05-31T08:08:40.136Z</time>
      </trkpt>
      <trkpt lat="44.64623" lon="3.06944">
        <ele>1211</ele>
        <time>2019-05-31T08:08:45.122Z</time>
      </trkpt>
      <trkpt lat="44.64623" lon="3.06952">
        <ele>1211</ele>
        <time>2019-05-31T08:08:50.129Z</time>
      </trkpt>
      <trkpt lat="44.64627" lon="3.06958">
        <ele>1212</ele>
        <time>2019-05-31T08:08:55.117Z</time>
      </trkpt>
      <trkpt lat="44.6463" lon="3.06962">
        <ele>1209</ele>
        <time>2019-05-31T08:08:59.141Z</time>
      </trkpt>
      <trkpt lat="44.64634" lon="3.06967">
        <ele>1209</ele>
        <time>2019-05-31T08:09:04.129Z</time>
      </trkpt>
      <trkpt lat="44.64638" lon="3.06973">
        <ele>1209</ele>
        <time>2019-05-31T08:09:09.122Z</time>
      </trkpt>
      <trkpt lat="44.64643" lon="3.0698">
        <ele>1209</ele>
        <time>2019-05-31T08:09:14.123Z</time>
      </trkpt>
      <trkpt lat="44.64645" lon="3.06986">
        <ele>1207</ele>
        <time>2019-05-31T08:09:19.124Z</time>
      </trkpt>
      <trkpt lat="44.64647" lon="3.06992">
        <ele>1207</ele>
        <time>2019-05-31T08:09:23.134Z</time>
      </trkpt>
      <trkpt lat="44.64646" lon="3.06999">
        <ele>1207</ele>
        <time>2019-05-31T08:09:28.122Z</time>
      </trkpt>
      <trkpt lat="44.64645" lon="3.07004">
        <ele>1207</ele>
        <time>2019-05-31T08:09:32.129Z</time>
      </trkpt>
      <trkpt lat="44.64645" lon="3.07009">
        <ele>1207</ele>
        <time>2019-05-31T08:09:36.141Z</time>
      </trkpt>
      <trkpt lat="44.64645" lon="3.07017">
        <ele>1205</ele>
        <time>2019-05-31T08:09:41.131Z</time>
      </trkpt>
      <trkpt lat="44.64646" lon="3.07023">
        <ele>1205</ele>
        <time>2019-05-31T08:09:45.140Z</time>
      </trkpt>
      <trkpt lat="44.64646" lon="3.0703">
        <ele>1205</ele>
        <time>2019-05-31T08:09:50.118Z</time>
      </trkpt>
      <trkpt lat="44.64645" lon="3.07037">
        <ele>1205</ele>
        <time>2019-05-31T08:09:54.127Z</time>
      </trkpt>
      <trkpt lat="44.64645" lon="3.07037">
        <ele>1205</ele>
        <time>2019-05-31T08:09:59.133Z</time>
      </trkpt>
      <trkpt lat="44.64645" lon="3.07038">
        <ele>1205</ele>
        <time>2019-05-31T08:10:04.122Z</time>
      </trkpt>
      <trkpt lat="44.64643" lon="3.07038">
        <ele>1205</ele>
        <time>2019-05-31T08:10:09.126Z</time>
      </trkpt>
      <trkpt lat="44.6464" lon="3.07044">
        <ele>1205</ele>
        <time>2019-05-31T08:10:14.136Z</time>
      </trkpt>
      <trkpt lat="44.64638" lon="3.07047">
        <ele>1205</ele>
        <time>2019-05-31T08:10:19.119Z</time>
      </trkpt>
      <trkpt lat="44.64636" lon="3.07057">
        <ele>1205</ele>
        <time>2019-05-31T08:10:39.137Z</time>
      </trkpt>
      <trkpt lat="44.64635" lon="3.07058">
        <ele>1205</ele>
        <time>2019-05-31T08:10:44.123Z</time>
      </trkpt>
      <trkpt lat="44.64634" lon="3.07059">
        <ele>1205</ele>
        <time>2019-05-31T08:10:58.107Z</time>
      </trkpt>
      <trkpt lat="44.64633" lon="3.0706">
        <ele>1205</ele>
        <time>2019-05-31T08:11:52.130Z</time>
      </trkpt>
      <trkpt lat="44.64629" lon="3.07064">
        <ele>1205</ele>
        <time>2019-05-31T08:11:57.100Z</time>
      </trkpt>
      <trkpt lat="44.64625" lon="3.0707">
        <ele>1203</ele>
        <time>2019-05-31T08:12:02.103Z</time>
      </trkpt>
      <trkpt lat="44.64623" lon="3.07076">
        <ele>1198</ele>
        <time>2019-05-31T08:12:07.104Z</time>
      </trkpt>
      <trkpt lat="44.6462" lon="3.07078">
        <ele>1198</ele>
        <time>2019-05-31T08:12:11.145Z</time>
      </trkpt>
      <trkpt lat="44.64619" lon="3.07078">
        <ele>1198</ele>
        <time>2019-05-31T08:12:15.156Z</time>
      </trkpt>
      <trkpt lat="44.64617" lon="3.07079">
        <ele>1198</ele>
        <time>2019-05-31T08:12:29.108Z</time>
      </trkpt>
      <trkpt lat="44.64622" lon="3.07081">
        <ele>1198</ele>
        <time>2019-05-31T08:16:09.124Z</time>
      </trkpt>
      <trkpt lat="44.64624" lon="3.07077">
        <ele>1198</ele>
        <time>2019-05-31T08:16:14.131Z</time>
      </trkpt>
      <trkpt lat="44.64625" lon="3.07073">
        <ele>1203</ele>
        <time>2019-05-31T08:16:19.127Z</time>
      </trkpt>
      <trkpt lat="44.64628" lon="3.07071">
        <ele>1203</ele>
        <time>2019-05-31T08:16:24.135Z</time>
      </trkpt>
      <trkpt lat="44.6463" lon="3.07068">
        <ele>1205</ele>
        <time>2019-05-31T08:16:29.122Z</time>
      </trkpt>
      <trkpt lat="44.64635" lon="3.07065">
        <ele>1205</ele>
        <time>2019-05-31T08:16:34.126Z</time>
      </trkpt>
      <trkpt lat="44.64637" lon="3.07061">
        <ele>1205</ele>
        <time>2019-05-31T08:16:39.150Z</time>
      </trkpt>
      <trkpt lat="44.64638" lon="3.0706">
        <ele>1205</ele>
        <time>2019-05-31T08:16:44.143Z</time>
      </trkpt>
      <trkpt lat="44.64641" lon="3.07052">
        <ele>1205</ele>
        <time>2019-05-31T08:16:49.125Z</time>
      </trkpt>
      <trkpt lat="44.64645" lon="3.07048">
        <ele>1205</ele>
        <time>2019-05-31T08:16:58.127Z</time>
      </trkpt>
      <trkpt lat="44.64646" lon="3.07044">
        <ele>1205</ele>
        <time>2019-05-31T08:17:03.126Z</time>
      </trkpt>
      <trkpt lat="44.64646" lon="3.07042">
        <ele>1205</ele>
        <time>2019-05-31T08:17:08.125Z</time>
      </trkpt>
      <trkpt lat="44.64646" lon="3.07041">
        <ele>1205</ele>
        <time>2019-05-31T08:17:13.139Z</time>
      </trkpt>
      <trkpt lat="44.64646" lon="3.0704">
        <ele>1205</ele>
        <time>2019-05-31T08:18:28.122Z</time>
      </trkpt>
      <trkpt lat="44.64647" lon="3.07033">
        <ele>1205</ele>
        <time>2019-05-31T08:18:33.130Z</time>
      </trkpt>
      <trkpt lat="44.64649" lon="3.07027">
        <ele>1205</ele>
        <time>2019-05-31T08:18:37.147Z</time>
      </trkpt>
      <trkpt lat="44.64648" lon="3.07021">
        <ele>1205</ele>
        <time>2019-05-31T08:18:42.154Z</time>
      </trkpt>
      <trkpt lat="44.64648" lon="3.07014">
        <ele>1207</ele>
        <time>2019-05-31T08:18:47.124Z</time>
      </trkpt>
      <trkpt lat="44.64648" lon="3.06991">
        <ele>1207</ele>
        <time>2019-05-31T08:20:18.125Z</time>
      </trkpt>
      <trkpt lat="44.64647" lon="3.06989">
        <ele>1207</ele>
        <time>2019-05-31T08:20:22.151Z</time>
      </trkpt>
      <trkpt lat="44.64647" lon="3.06987">
        <ele>1207</ele>
        <time>2019-05-31T08:20:31.127Z</time>
      </trkpt>
      <trkpt lat="44.64645" lon="3.06981">
        <ele>1209</ele>
        <time>2019-05-31T08:20:36.139Z</time>
      </trkpt>
      <trkpt lat="44.64643" lon="3.06977">
        <ele>1209</ele>
        <time>2019-05-31T08:20:41.131Z</time>
      </trkpt>
      <trkpt lat="44.6464" lon="3.06972">
        <ele>1209</ele>
        <time>2019-05-31T08:20:46.124Z</time>
      </trkpt>
      <trkpt lat="44.64637" lon="3.06968">
        <ele>1209</ele>
        <time>2019-05-31T08:20:50.156Z</time>
      </trkpt>
      <trkpt lat="44.64634" lon="3.06963">
        <ele>1209</ele>
        <time>2019-05-31T08:20:55.146Z</time>
      </trkpt>
      <trkpt lat="44.64634" lon="3.06963">
        <ele>1209</ele>
        <time>2019-05-31T08:21:00.150Z</time>
      </trkpt>
      <trkpt lat="44.64632" lon="3.06957">
        <ele>1212</ele>
        <time>2019-05-31T08:21:05.130Z</time>
      </trkpt>
      <trkpt lat="44.64632" lon="3.06955">
        <ele>1212</ele>
        <time>2019-05-31T08:21:10.129Z</time>
      </trkpt>
      <trkpt lat="44.64629" lon="3.06955">
        <ele>1212</ele>
        <time>2019-05-31T08:21:15.103Z</time>
      </trkpt>
      <trkpt lat="44.64627" lon="3.0695">
        <ele>1212</ele>
        <time>2019-05-31T08:21:19.120Z</time>
      </trkpt>
      <trkpt lat="44.64625" lon="3.06945">
        <ele>1212</ele>
        <time>2019-05-31T08:21:23.159Z</time>
      </trkpt>
      <trkpt lat="44.64624" lon="3.06938">
        <ele>1211</ele>
        <time>2019-05-31T08:21:32.129Z</time>
      </trkpt>
      <trkpt lat="44.64624" lon="3.06933">
        <ele>1211</ele>
        <time>2019-05-31T08:21:36.127Z</time>
      </trkpt>
      <trkpt lat="44.64624" lon="3.06931">
        <ele>1211</ele>
        <time>2019-05-31T08:21:41.128Z</time>
      </trkpt>
      <trkpt lat="44.64625" lon="3.06929">
        <ele>1212</ele>
        <time>2019-05-31T08:21:46.120Z</time>
      </trkpt>
      <trkpt lat="44.64626" lon="3.06922">
        <ele>1212</ele>
        <time>2019-05-31T08:21:51.125Z</time>
      </trkpt>
      <trkpt lat="44.64627" lon="3.06917">
        <ele>1212</ele>
        <time>2019-05-31T08:21:55.144Z</time>
      </trkpt>
      <trkpt lat="44.64629" lon="3.06912">
        <ele>1212</ele>
        <time>2019-05-31T08:22:00.123Z</time>
      </trkpt>
      <trkpt lat="44.64632" lon="3.06907">
        <ele>1212</ele>
        <time>2019-05-31T08:22:04.164Z</time>
      </trkpt>
      <trkpt lat="44.64634" lon="3.069">
        <ele>1213</ele>
        <time>2019-05-31T08:22:09.122Z</time>
      </trkpt>
      <trkpt lat="44.64637" lon="3.06895">
        <ele>1213</ele>
        <time>2019-05-31T08:22:13.169Z</time>
      </trkpt>
      <trkpt lat="44.6464" lon="3.06889">
        <ele>1213</ele>
        <time>2019-05-31T08:22:18.124Z</time>
      </trkpt>
      <trkpt lat="44.64642" lon="3.06884">
        <ele>1213</ele>
        <time>2019-05-31T08:22:23.122Z</time>
      </trkpt>
      <trkpt lat="44.64644" lon="3.06879">
        <ele>1213</ele>
        <time>2019-05-31T08:22:28.124Z</time>
      </trkpt>
      <trkpt lat="44.64646" lon="3.06874">
        <ele>1215</ele>
        <time>2019-05-31T08:22:32.125Z</time>
      </trkpt>
      <trkpt lat="44.64647" lon="3.06869">
        <ele>1215</ele>
        <time>2019-05-31T08:22:36.140Z</time>
      </trkpt>
      <trkpt lat="44.64648" lon="3.06862">
        <ele>1215</ele>
        <time>2019-05-31T08:22:41.126Z</time>
      </trkpt>
      <trkpt lat="44.6465" lon="3.06856">
        <ele>1215</ele>
        <time>2019-05-31T08:22:46.127Z</time>
      </trkpt>
      <trkpt lat="44.64652" lon="3.0685">
        <ele>1215</ele>
        <time>2019-05-31T08:22:51.123Z</time>
      </trkpt>
      <trkpt lat="44.64654" lon="3.06845">
        <ele>1217</ele>
        <time>2019-05-31T08:22:55.159Z</time>
      </trkpt>
      <trkpt lat="44.64655" lon="3.06838">
        <ele>1217</ele>
        <time>2019-05-31T08:23:00.163Z</time>
      </trkpt>
      <trkpt lat="44.64658" lon="3.06833">
        <ele>1217</ele>
        <time>2019-05-31T08:23:05.142Z</time>
      </trkpt>
      <trkpt lat="44.64659" lon="3.06827">
        <ele>1217</ele>
        <time>2019-05-31T08:23:10.126Z</time>
      </trkpt>
      <trkpt lat="44.64662" lon="3.06823">
        <ele>1217</ele>
        <time>2019-05-31T08:23:15.125Z</time>
      </trkpt>
      <trkpt lat="44.64664" lon="3.06817">
        <ele>1219</ele>
        <time>2019-05-31T08:23:20.145Z</time>
      </trkpt>
      <trkpt lat="44.64668" lon="3.0681">
        <ele>1219</ele>
        <time>2019-05-31T08:23:25.121Z</time>
      </trkpt>
      <trkpt lat="44.6467" lon="3.06804">
        <ele>1219</ele>
        <time>2019-05-31T08:23:30.166Z</time>
      </trkpt>
      <trkpt lat="44.64673" lon="3.06797">
        <ele>1219</ele>
        <time>2019-05-31T08:23:35.116Z</time>
      </trkpt>
      <trkpt lat="44.64675" lon="3.0679">
        <ele>1220</ele>
        <time>2019-05-31T08:23:40.125Z</time>
      </trkpt>
      <trkpt lat="44.64678" lon="3.06784">
        <ele>1220</ele>
        <time>2019-05-31T08:23:45.125Z</time>
      </trkpt>
      <trkpt lat="44.6468" lon="3.06779">
        <ele>1220</ele>
        <time>2019-05-31T08:23:49.122Z</time>
      </trkpt>
      <trkpt lat="44.64682" lon="3.06772">
        <ele>1218</ele>
        <time>2019-05-31T08:23:54.122Z</time>
      </trkpt>
      <trkpt lat="44.64685" lon="3.06767">
        <ele>1218</ele>
        <time>2019-05-31T08:23:58.127Z</time>
      </trkpt>
      <trkpt lat="44.64687" lon="3.06761">
        <ele>1218</ele>
        <time>2019-05-31T08:24:03.137Z</time>
      </trkpt>
      <trkpt lat="44.64689" lon="3.06751">
        <ele>1218</ele>
        <time>2019-05-31T08:24:27.104Z</time>
      </trkpt>
      <trkpt lat="44.64694" lon="3.06749">
        <ele>1218</ele>
        <time>2019-05-31T08:24:31.123Z</time>
      </trkpt>
      <trkpt lat="44.64696" lon="3.06744">
        <ele>1218</ele>
        <time>2019-05-31T08:24:35.135Z</time>
      </trkpt>
      <trkpt lat="44.64699" lon="3.06735">
        <ele>1216</ele>
        <time>2019-05-31T08:24:40.140Z</time>
      </trkpt>
      <trkpt lat="44.64702" lon="3.0673">
        <ele>1216</ele>
        <time>2019-05-31T08:24:45.115Z</time>
      </trkpt>
      <trkpt lat="44.64704" lon="3.06723">
        <ele>1216</ele>
        <time>2019-05-31T08:24:50.124Z</time>
      </trkpt>
      <trkpt lat="44.64706" lon="3.06717">
        <ele>1216</ele>
        <time>2019-05-31T08:24:55.124Z</time>
      </trkpt>
      <trkpt lat="44.64709" lon="3.06709">
        <ele>1216</ele>
        <time>2019-05-31T08:24:59.133Z</time>
      </trkpt>
      <trkpt lat="44.64708" lon="3.06704">
        <ele>1215</ele>
        <time>2019-05-31T08:25:04.144Z</time>
      </trkpt>
      <trkpt lat="44.64708" lon="3.06704">
        <ele>1215</ele>
        <time>2019-05-31T08:25:09.136Z</time>
      </trkpt>
      <trkpt lat="44.64709" lon="3.06704">
        <ele>1215</ele>
        <time>2019-05-31T08:25:19.133Z</time>
      </trkpt>
      <trkpt lat="44.64713" lon="3.06698">
        <ele>1215</ele>
        <time>2019-05-31T08:25:24.101Z</time>
      </trkpt>
      <trkpt lat="44.64717" lon="3.06693">
        <ele>1215</ele>
        <time>2019-05-31T08:25:28.103Z</time>
      </trkpt>
      <trkpt lat="44.6472" lon="3.06686">
        <ele>1215</ele>
        <time>2019-05-31T08:25:33.100Z</time>
      </trkpt>
      <trkpt lat="44.64723" lon="3.06679">
        <ele>1214</ele>
        <time>2019-05-31T08:25:38.102Z</time>
      </trkpt>
      <trkpt lat="44.64727" lon="3.06671">
        <ele>1214</ele>
        <time>2019-05-31T08:25:43.131Z</time>
      </trkpt>
      <trkpt lat="44.6473" lon="3.06663">
        <ele>1214</ele>
        <time>2019-05-31T08:25:48.104Z</time>
      </trkpt>
      <trkpt lat="44.64734" lon="3.06656">
        <ele>1214</ele>
        <time>2019-05-31T08:25:53.107Z</time>
      </trkpt>
      <trkpt lat="44.64738" lon="3.06648">
        <ele>1215</ele>
        <time>2019-05-31T08:25:58.106Z</time>
      </trkpt>
      <trkpt lat="44.64741" lon="3.06642">
        <ele>1215</ele>
        <time>2019-05-31T08:26:02.108Z</time>
      </trkpt>
      <trkpt lat="44.64743" lon="3.06638">
        <ele>1215</ele>
        <time>2019-05-31T08:26:06.142Z</time>
      </trkpt>
      <trkpt lat="44.64741" lon="3.0664">
        <ele>1215</ele>
        <time>2019-05-31T08:26:20.138Z</time>
      </trkpt>
      <trkpt lat="44.64741" lon="3.06632">
        <ele>1215</ele>
        <time>2019-05-31T08:26:25.117Z</time>
      </trkpt>
      <trkpt lat="44.64745" lon="3.06627">
        <ele>1215</ele>
        <time>2019-05-31T08:26:29.149Z</time>
      </trkpt>
      <trkpt lat="44.64749" lon="3.06619">
        <ele>1216</ele>
        <time>2019-05-31T08:26:34.123Z</time>
      </trkpt>
      <trkpt lat="44.64752" lon="3.06614">
        <ele>1216</ele>
        <time>2019-05-31T08:26:38.140Z</time>
      </trkpt>
      <trkpt lat="44.64756" lon="3.06607">
        <ele>1216</ele>
        <time>2019-05-31T08:26:43.123Z</time>
      </trkpt>
      <trkpt lat="44.64761" lon="3.066">
        <ele>1216</ele>
        <time>2019-05-31T08:26:48.119Z</time>
      </trkpt>
      <trkpt lat="44.64765" lon="3.06595">
        <ele>1219</ele>
        <time>2019-05-31T08:26:52.125Z</time>
      </trkpt>
      <trkpt lat="44.64769" lon="3.06588">
        <ele>1219</ele>
        <time>2019-05-31T08:26:57.121Z</time>
      </trkpt>
      <trkpt lat="44.64774" lon="3.06582">
        <ele>1219</ele>
        <time>2019-05-31T08:27:02.122Z</time>
      </trkpt>
      <trkpt lat="44.64777" lon="3.06577">
        <ele>1219</ele>
        <time>2019-05-31T08:27:07.125Z</time>
      </trkpt>
      <trkpt lat="44.64781" lon="3.0657">
        <ele>1219</ele>
        <time>2019-05-31T08:27:12.125Z</time>
      </trkpt>
      <trkpt lat="44.64784" lon="3.06565">
        <ele>1220</ele>
        <time>2019-05-31T08:27:16.125Z</time>
      </trkpt>
      <trkpt lat="44.64787" lon="3.06556">
        <ele>1220</ele>
        <time>2019-05-31T08:27:21.127Z</time>
      </trkpt>
      <trkpt lat="44.6479" lon="3.06547">
        <ele>1220</ele>
        <time>2019-05-31T08:27:26.124Z</time>
      </trkpt>
      <trkpt lat="44.64793" lon="3.06541">
        <ele>1219</ele>
        <time>2019-05-31T08:27:31.121Z</time>
      </trkpt>
      <trkpt lat="44.64796" lon="3.06534">
        <ele>1219</ele>
        <time>2019-05-31T08:27:35.129Z</time>
      </trkpt>
      <trkpt lat="44.64797" lon="3.06528">
        <ele>1219</ele>
        <time>2019-05-31T08:27:40.116Z</time>
      </trkpt>
      <trkpt lat="44.64795" lon="3.06523">
        <ele>1219</ele>
        <time>2019-05-31T08:27:44.132Z</time>
      </trkpt>
      <trkpt lat="44.64793" lon="3.06516">
        <ele>1219</ele>
        <time>2019-05-31T08:27:49.148Z</time>
      </trkpt>
      <trkpt lat="44.64792" lon="3.0651">
        <ele>1221</ele>
        <time>2019-05-31T08:27:54.146Z</time>
      </trkpt>
      <trkpt lat="44.64796" lon="3.06494">
        <ele>1220</ele>
        <time>2019-05-31T08:31:30.112Z</time>
      </trkpt>
      <trkpt lat="44.64799" lon="3.06496">
        <ele>1220</ele>
        <time>2019-05-31T08:31:34.144Z</time>
      </trkpt>
      <trkpt lat="44.648" lon="3.06496">
        <ele>1220</ele>
        <time>2019-05-31T08:31:39.149Z</time>
      </trkpt>
      <trkpt lat="44.64805" lon="3.06497">
        <ele>1220</ele>
        <time>2019-05-31T08:31:44.116Z</time>
      </trkpt>
      <trkpt lat="44.64809" lon="3.06496">
        <ele>1220</ele>
        <time>2019-05-31T08:31:49.113Z</time>
      </trkpt>
      <trkpt lat="44.6481" lon="3.06497">
        <ele>1220</ele>
        <time>2019-05-31T08:31:54.120Z</time>
      </trkpt>
      <trkpt lat="44.64811" lon="3.06496">
        <ele>1220</ele>
        <time>2019-05-31T08:31:58.132Z</time>
      </trkpt>
      <trkpt lat="44.64813" lon="3.06495">
        <ele>1220</ele>
        <time>2019-05-31T08:32:03.142Z</time>
      </trkpt>
      <trkpt lat="44.64815" lon="3.06491">
        <ele>1220</ele>
        <time>2019-05-31T08:32:08.108Z</time>
      </trkpt>
      <trkpt lat="44.64818" lon="3.06485">
        <ele>1221</ele>
        <time>2019-05-31T08:32:13.116Z</time>
      </trkpt>
      <trkpt lat="44.6482" lon="3.0648">
        <ele>1221</ele>
        <time>2019-05-31T08:32:18.115Z</time>
      </trkpt>
      <trkpt lat="44.64822" lon="3.06473">
        <ele>1221</ele>
        <time>2019-05-31T08:32:23.115Z</time>
      </trkpt>
      <trkpt lat="44.64824" lon="3.0647">
        <ele>1221</ele>
        <time>2019-05-31T08:32:27.145Z</time>
      </trkpt>
      <trkpt lat="44.64823" lon="3.06467">
        <ele>1221</ele>
        <time>2019-05-31T08:32:36.124Z</time>
      </trkpt>
      <trkpt lat="44.64824" lon="3.06462">
        <ele>1221</ele>
        <time>2019-05-31T08:32:41.103Z</time>
      </trkpt>
      <trkpt lat="44.64824" lon="3.06458">
        <ele>1222</ele>
        <time>2019-05-31T08:32:45.117Z</time>
      </trkpt>
      <trkpt lat="44.64825" lon="3.06452">
        <ele>1222</ele>
        <time>2019-05-31T08:32:50.119Z</time>
      </trkpt>
      <trkpt lat="44.64825" lon="3.06449">
        <ele>1222</ele>
        <time>2019-05-31T08:32:54.144Z</time>
      </trkpt>
      <trkpt lat="44.64826" lon="3.06444">
        <ele>1222</ele>
        <time>2019-05-31T08:32:59.110Z</time>
      </trkpt>
      <trkpt lat="44.64827" lon="3.06439">
        <ele>1222</ele>
        <time>2019-05-31T08:33:04.143Z</time>
      </trkpt>
      <trkpt lat="44.64828" lon="3.06432">
        <ele>1222</ele>
        <time>2019-05-31T08:33:09.101Z</time>
      </trkpt>
      <trkpt lat="44.64828" lon="3.06427">
        <ele>1223</ele>
        <time>2019-05-31T08:33:13.117Z</time>
      </trkpt>
      <trkpt lat="44.64829" lon="3.06424">
        <ele>1223</ele>
        <time>2019-05-31T08:33:18.109Z</time>
      </trkpt>
      <trkpt lat="44.6483" lon="3.0642">
        <ele>1223</ele>
        <time>2019-05-31T08:33:23.110Z</time>
      </trkpt>
      <trkpt lat="44.64832" lon="3.06416">
        <ele>1223</ele>
        <time>2019-05-31T08:33:28.110Z</time>
      </trkpt>
      <trkpt lat="44.64832" lon="3.06415">
        <ele>1223</ele>
        <time>2019-05-31T08:33:32.121Z</time>
      </trkpt>
      <trkpt lat="44.64833" lon="3.06412">
        <ele>1223</ele>
        <time>2019-05-31T08:33:57.101Z</time>
      </trkpt>
      <trkpt lat="44.64835" lon="3.06405">
        <ele>1223</ele>
        <time>2019-05-31T08:34:06.103Z</time>
      </trkpt>
      <trkpt lat="44.64836" lon="3.06403">
        <ele>1223</ele>
        <time>2019-05-31T08:34:12.102Z</time>
      </trkpt>
      <trkpt lat="44.64836" lon="3.06403">
        <ele>1224</ele>
        <time>2019-05-31T08:34:17.109Z</time>
      </trkpt>
      <trkpt lat="44.64837" lon="3.06398">
        <ele>1224</ele>
        <time>2019-05-31T08:34:21.139Z</time>
      </trkpt>
      <trkpt lat="44.6484" lon="3.06392">
        <ele>1224</ele>
        <time>2019-05-31T08:34:26.142Z</time>
      </trkpt>
      <trkpt lat="44.64841" lon="3.06383">
        <ele>1224</ele>
        <time>2019-05-31T08:34:31.145Z</time>
      </trkpt>
      <trkpt lat="44.64843" lon="3.06375">
        <ele>1224</ele>
        <time>2019-05-31T08:34:36.110Z</time>
      </trkpt>
      <trkpt lat="44.64845" lon="3.06368">
        <ele>1223</ele>
        <time>2019-05-31T08:34:41.111Z</time>
      </trkpt>
      <trkpt lat="44.64847" lon="3.06361">
        <ele>1223</ele>
        <time>2019-05-31T08:34:45.133Z</time>
      </trkpt>
      <trkpt lat="44.6485" lon="3.06354">
        <ele>1223</ele>
        <time>2019-05-31T08:34:50.116Z</time>
      </trkpt>
      <trkpt lat="44.64851" lon="3.06347">
        <ele>1223</ele>
        <time>2019-05-31T08:34:55.103Z</time>
      </trkpt>
      <trkpt lat="44.64852" lon="3.0634">
        <ele>1221</ele>
        <time>2019-05-31T08:35:00.103Z</time>
      </trkpt>
      <trkpt lat="44.64853" lon="3.06336">
        <ele>1221</ele>
        <time>2019-05-31T08:35:04.129Z</time>
      </trkpt>
      <trkpt lat="44.64854" lon="3.06333">
        <ele>1221</ele>
        <time>2019-05-31T08:35:09.102Z</time>
      </trkpt>
      <trkpt lat="44.64855" lon="3.06329">
        <ele>1221</ele>
        <time>2019-05-31T08:35:14.103Z</time>
      </trkpt>
      <trkpt lat="44.64855" lon="3.06327">
        <ele>1221</ele>
        <time>2019-05-31T08:35:19.103Z</time>
      </trkpt>
      <trkpt lat="44.64855" lon="3.06322">
        <ele>1221</ele>
        <time>2019-05-31T08:35:23.155Z</time>
      </trkpt>
      <trkpt lat="44.64856" lon="3.06317">
        <ele>1219</ele>
        <time>2019-05-31T08:35:28.099Z</time>
      </trkpt>
      <trkpt lat="44.64858" lon="3.06311">
        <ele>1219</ele>
        <time>2019-05-31T08:35:32.128Z</time>
      </trkpt>
      <trkpt lat="44.64861" lon="3.06305">
        <ele>1219</ele>
        <time>2019-05-31T08:35:37.123Z</time>
      </trkpt>
      <trkpt lat="44.64864" lon="3.06299">
        <ele>1219</ele>
        <time>2019-05-31T08:35:42.124Z</time>
      </trkpt>
      <trkpt lat="44.64867" lon="3.06294">
        <ele>1219</ele>
        <time>2019-05-31T08:35:47.133Z</time>
      </trkpt>
      <trkpt lat="44.64869" lon="3.06287">
        <ele>1218</ele>
        <time>2019-05-31T08:35:52.120Z</time>
      </trkpt>
      <trkpt lat="44.6487" lon="3.06281">
        <ele>1218</ele>
        <time>2019-05-31T08:35:57.100Z</time>
      </trkpt>
      <trkpt lat="44.64871" lon="3.06275">
        <ele>1218</ele>
        <time>2019-05-31T08:36:01.128Z</time>
      </trkpt>
      <trkpt lat="44.64873" lon="3.06267">
        <ele>1218</ele>
        <time>2019-05-31T08:36:06.120Z</time>
      </trkpt>
      <trkpt lat="44.64875" lon="3.0626">
        <ele>1217</ele>
        <time>2019-05-31T08:36:11.127Z</time>
      </trkpt>
      <trkpt lat="44.64876" lon="3.06253">
        <ele>1219</ele>
        <time>2019-05-31T08:36:16.122Z</time>
      </trkpt>
      <trkpt lat="44.64875" lon="3.06249">
        <ele>1219</ele>
        <time>2019-05-31T08:36:20.157Z</time>
      </trkpt>
      <trkpt lat="44.64876" lon="3.06244">
        <ele>1219</ele>
        <time>2019-05-31T08:36:25.139Z</time>
      </trkpt>
      <trkpt lat="44.64877" lon="3.06237">
        <ele>1219</ele>
        <time>2019-05-31T08:36:30.128Z</time>
      </trkpt>
      <trkpt lat="44.64879" lon="3.0623">
        <ele>1219</ele>
        <time>2019-05-31T08:36:35.126Z</time>
      </trkpt>
      <trkpt lat="44.64881" lon="3.06224">
        <ele>1219</ele>
        <time>2019-05-31T08:36:40.121Z</time>
      </trkpt>
      <trkpt lat="44.64883" lon="3.06217">
        <ele>1219</ele>
        <time>2019-05-31T08:36:45.119Z</time>
      </trkpt>
      <trkpt lat="44.64884" lon="3.06212">
        <ele>1219</ele>
        <time>2019-05-31T08:36:49.134Z</time>
      </trkpt>
      <trkpt lat="44.64885" lon="3.06205">
        <ele>1218</ele>
        <time>2019-05-31T08:36:54.123Z</time>
      </trkpt>
      <trkpt lat="44.64887" lon="3.06199">
        <ele>1218</ele>
        <time>2019-05-31T08:36:59.127Z</time>
      </trkpt>
      <trkpt lat="44.64887" lon="3.06192">
        <ele>1218</ele>
        <time>2019-05-31T08:37:04.121Z</time>
      </trkpt>
      <trkpt lat="44.64887" lon="3.06185">
        <ele>1218</ele>
        <time>2019-05-31T08:37:09.115Z</time>
      </trkpt>
      <trkpt lat="44.64887" lon="3.06177">
        <ele>1220</ele>
        <time>2019-05-31T08:37:14.115Z</time>
      </trkpt>
      <trkpt lat="44.64887" lon="3.06172">
        <ele>1220</ele>
        <time>2019-05-31T08:37:18.130Z</time>
      </trkpt>
      <trkpt lat="44.64888" lon="3.06165">
        <ele>1220</ele>
        <time>2019-05-31T08:37:22.149Z</time>
      </trkpt>
      <trkpt lat="44.64889" lon="3.06159">
        <ele>1220</ele>
        <time>2019-05-31T08:37:27.108Z</time>
      </trkpt>
      <trkpt lat="44.6489" lon="3.06154">
        <ele>1220</ele>
        <time>2019-05-31T08:37:31.142Z</time>
      </trkpt>
      <trkpt lat="44.64893" lon="3.06149">
        <ele>1221</ele>
        <time>2019-05-31T08:37:36.122Z</time>
      </trkpt>
      <trkpt lat="44.64893" lon="3.06146">
        <ele>1221</ele>
        <time>2019-05-31T08:37:41.125Z</time>
      </trkpt>
      <trkpt lat="44.64894" lon="3.06142">
        <ele>1221</ele>
        <time>2019-05-31T08:37:45.129Z</time>
      </trkpt>
      <trkpt lat="44.64895" lon="3.06136">
        <ele>1221</ele>
        <time>2019-05-31T08:37:50.150Z</time>
      </trkpt>
      <trkpt lat="44.64895" lon="3.06131">
        <ele>1221</ele>
        <time>2019-05-31T08:37:54.156Z</time>
      </trkpt>
      <trkpt lat="44.64896" lon="3.06125">
        <ele>1223</ele>
        <time>2019-05-31T08:37:59.119Z</time>
      </trkpt>
      <trkpt lat="44.64898" lon="3.06116">
        <ele>1223</ele>
        <time>2019-05-31T08:38:27.126Z</time>
      </trkpt>
      <trkpt lat="44.64896" lon="3.06115">
        <ele>1223</ele>
        <time>2019-05-31T08:39:15.147Z</time>
      </trkpt>
      <trkpt lat="44.64896" lon="3.06112">
        <ele>1223</ele>
        <time>2019-05-31T08:39:20.120Z</time>
      </trkpt>
      <trkpt lat="44.64896" lon="3.0611">
        <ele>1223</ele>
        <time>2019-05-31T08:39:43.140Z</time>
      </trkpt>
      <trkpt lat="44.64897" lon="3.06105">
        <ele>1223</ele>
        <time>2019-05-31T08:39:47.151Z</time>
      </trkpt>
      <trkpt lat="44.64899" lon="3.061">
        <ele>1223</ele>
        <time>2019-05-31T08:39:52.124Z</time>
      </trkpt>
      <trkpt lat="44.64899" lon="3.061">
        <ele>1223</ele>
        <time>2019-05-31T08:39:57.117Z</time>
      </trkpt>
      <trkpt lat="44.649" lon="3.06099">
        <ele>1223</ele>
        <time>2019-05-31T08:40:02.118Z</time>
      </trkpt>
      <trkpt lat="44.64902" lon="3.06096">
        <ele>1223</ele>
        <time>2019-05-31T08:40:07.130Z</time>
      </trkpt>
      <trkpt lat="44.64905" lon="3.06089">
        <ele>1223</ele>
        <time>2019-05-31T08:40:30.121Z</time>
      </trkpt>
      <trkpt lat="44.64909" lon="3.06084">
        <ele>1223</ele>
        <time>2019-05-31T08:40:35.105Z</time>
      </trkpt>
      <trkpt lat="44.6491" lon="3.06081">
        <ele>1223</ele>
        <time>2019-05-31T08:40:39.109Z</time>
      </trkpt>
      <trkpt lat="44.64913" lon="3.06078">
        <ele>1223</ele>
        <time>2019-05-31T08:40:43.097Z</time>
      </trkpt>
      <trkpt lat="44.64919" lon="3.06072">
        <ele>1223</ele>
        <time>2019-05-31T08:40:48.114Z</time>
      </trkpt>
      <trkpt lat="44.64923" lon="3.06068">
        <ele>1223</ele>
        <time>2019-05-31T08:40:52.130Z</time>
      </trkpt>
      <trkpt lat="44.64928" lon="3.06064">
        <ele>1223</ele>
        <time>2019-05-31T08:40:57.146Z</time>
      </trkpt>
      <trkpt lat="44.64932" lon="3.06062">
        <ele>1222</ele>
        <time>2019-05-31T08:41:02.146Z</time>
      </trkpt>
      <trkpt lat="44.64935" lon="3.06058">
        <ele>1222</ele>
        <time>2019-05-31T08:41:07.113Z</time>
      </trkpt>
      <trkpt lat="44.64938" lon="3.06055">
        <ele>1222</ele>
        <time>2019-05-31T08:41:11.133Z</time>
      </trkpt>
      <trkpt lat="44.64941" lon="3.06048">
        <ele>1222</ele>
        <time>2019-05-31T08:41:16.123Z</time>
      </trkpt>
      <trkpt lat="44.6494" lon="3.06042">
        <ele>1222</ele>
        <time>2019-05-31T08:41:21.123Z</time>
      </trkpt>
      <trkpt lat="44.6494" lon="3.06037">
        <ele>1221</ele>
        <time>2019-05-31T08:41:25.124Z</time>
      </trkpt>
      <trkpt lat="44.6494" lon="3.0603">
        <ele>1221</ele>
        <time>2019-05-31T08:41:30.120Z</time>
      </trkpt>
      <trkpt lat="44.6494" lon="3.06023">
        <ele>1221</ele>
        <time>2019-05-31T08:41:35.171Z</time>
      </trkpt>
      <trkpt lat="44.64939" lon="3.06015">
        <ele>1221</ele>
        <time>2019-05-31T08:41:40.123Z</time>
      </trkpt>
      <trkpt lat="44.6494" lon="3.06011">
        <ele>1220</ele>
        <time>2019-05-31T08:41:45.126Z</time>
      </trkpt>
      <trkpt lat="44.64939" lon="3.06011">
        <ele>1220</ele>
        <time>2019-05-31T08:41:50.099Z</time>
      </trkpt>
      <trkpt lat="44.6494" lon="3.06011">
        <ele>1220</ele>
        <time>2019-05-31T08:41:55.098Z</time>
      </trkpt>
      <trkpt lat="44.64943" lon="3.06005">
        <ele>1220</ele>
        <time>2019-05-31T08:42:00.106Z</time>
      </trkpt>
      <trkpt lat="44.64944" lon="3.06002">
        <ele>1220</ele>
        <time>2019-05-31T08:42:05.119Z</time>
      </trkpt>
      <trkpt lat="44.64945" lon="3.05997">
        <ele>1220</ele>
        <time>2019-05-31T08:42:10.108Z</time>
      </trkpt>
      <trkpt lat="44.64947" lon="3.05994">
        <ele>1220</ele>
        <time>2019-05-31T08:42:14.121Z</time>
      </trkpt>
      <trkpt lat="44.64948" lon="3.05993">
        <ele>1220</ele>
        <time>2019-05-31T08:42:18.132Z</time>
      </trkpt>
      <trkpt lat="44.64949" lon="3.05989">
        <ele>1220</ele>
        <time>2019-05-31T08:42:23.125Z</time>
      </trkpt>
      <trkpt lat="44.6495" lon="3.05982">
        <ele>1220</ele>
        <time>2019-05-31T08:42:28.123Z</time>
      </trkpt>
      <trkpt lat="44.64952" lon="3.05977">
        <ele>1220</ele>
        <time>2019-05-31T08:42:32.134Z</time>
      </trkpt>
      <trkpt lat="44.64954" lon="3.05971">
        <ele>1220</ele>
        <time>2019-05-31T08:42:37.133Z</time>
      </trkpt>
      <trkpt lat="44.64957" lon="3.05965">
        <ele>1220</ele>
        <time>2019-05-31T08:42:42.120Z</time>
      </trkpt>
      <trkpt lat="44.6496" lon="3.05957">
        <ele>1221</ele>
        <time>2019-05-31T08:42:47.114Z</time>
      </trkpt>
      <trkpt lat="44.64962" lon="3.05951">
        <ele>1221</ele>
        <time>2019-05-31T08:42:51.149Z</time>
      </trkpt>
      <trkpt lat="44.64964" lon="3.05946">
        <ele>1221</ele>
        <time>2019-05-31T08:42:55.152Z</time>
      </trkpt>
      <trkpt lat="44.64967" lon="3.05939">
        <ele>1221</ele>
        <time>2019-05-31T08:43:00.118Z</time>
      </trkpt>
      <trkpt lat="44.64969" lon="3.05935">
        <ele>1221</ele>
        <time>2019-05-31T08:43:04.131Z</time>
      </trkpt>
      <trkpt lat="44.64972" lon="3.0593">
        <ele>1219</ele>
        <time>2019-05-31T08:43:08.136Z</time>
      </trkpt>
      <trkpt lat="44.64975" lon="3.05923">
        <ele>1219</ele>
        <time>2019-05-31T08:43:13.123Z</time>
      </trkpt>
      <trkpt lat="44.64978" lon="3.05917">
        <ele>1219</ele>
        <time>2019-05-31T08:43:18.132Z</time>
      </trkpt>
      <trkpt lat="44.64982" lon="3.05915">
        <ele>1219</ele>
        <time>2019-05-31T08:43:22.132Z</time>
      </trkpt>
      <trkpt lat="44.64986" lon="3.05913">
        <ele>1219</ele>
        <time>2019-05-31T08:43:27.122Z</time>
      </trkpt>
      <trkpt lat="44.64991" lon="3.0591">
        <ele>1220</ele>
        <time>2019-05-31T08:43:32.099Z</time>
      </trkpt>
      <trkpt lat="44.64996" lon="3.05908">
        <ele>1220</ele>
        <time>2019-05-31T08:43:37.109Z</time>
      </trkpt>
      <trkpt lat="44.65001" lon="3.05905">
        <ele>1220</ele>
        <time>2019-05-31T08:43:42.121Z</time>
      </trkpt>
      <trkpt lat="44.65007" lon="3.05903">
        <ele>1220</ele>
        <time>2019-05-31T08:43:47.122Z</time>
      </trkpt>
      <trkpt lat="44.65012" lon="3.05902">
        <ele>1217</ele>
        <time>2019-05-31T08:43:52.122Z</time>
      </trkpt>
      <trkpt lat="44.65016" lon="3.059">
        <ele>1217</ele>
        <time>2019-05-31T08:43:56.123Z</time>
      </trkpt>
      <trkpt lat="44.6502" lon="3.05899">
        <ele>1217</ele>
        <time>2019-05-31T08:44:01.128Z</time>
      </trkpt>
      <trkpt lat="44.65025" lon="3.05896">
        <ele>1217</ele>
        <time>2019-05-31T08:44:06.115Z</time>
      </trkpt>
      <trkpt lat="44.65029" lon="3.05895">
        <ele>1217</ele>
        <time>2019-05-31T08:44:10.128Z</time>
      </trkpt>
      <trkpt lat="44.65034" lon="3.05896">
        <ele>1217</ele>
        <time>2019-05-31T08:44:15.123Z</time>
      </trkpt>
      <trkpt lat="44.65039" lon="3.05895">
        <ele>1217</ele>
        <time>2019-05-31T08:44:20.125Z</time>
      </trkpt>
      <trkpt lat="44.65044" lon="3.05893">
        <ele>1215</ele>
        <time>2019-05-31T08:44:25.124Z</time>
      </trkpt>
      <trkpt lat="44.65046" lon="3.05892">
        <ele>1215</ele>
        <time>2019-05-31T08:44:30.133Z</time>
      </trkpt>
      <trkpt lat="44.65051" lon="3.05889">
        <ele>1215</ele>
        <time>2019-05-31T08:44:35.147Z</time>
      </trkpt>
      <trkpt lat="44.65056" lon="3.05887">
        <ele>1215</ele>
        <time>2019-05-31T08:44:40.124Z</time>
      </trkpt>
      <trkpt lat="44.65059" lon="3.05887">
        <ele>1215</ele>
        <time>2019-05-31T08:44:45.150Z</time>
      </trkpt>
      <trkpt lat="44.65065" lon="3.05885">
        <ele>1215</ele>
        <time>2019-05-31T08:45:00.141Z</time>
      </trkpt>
      <trkpt lat="44.65071" lon="3.05882">
        <ele>1213</ele>
        <time>2019-05-31T08:45:05.119Z</time>
      </trkpt>
      <trkpt lat="44.65074" lon="3.0588">
        <ele>1213</ele>
        <time>2019-05-31T08:45:09.126Z</time>
      </trkpt>
      <trkpt lat="44.65076" lon="3.05879">
        <ele>1213</ele>
        <time>2019-05-31T08:45:14.145Z</time>
      </trkpt>
      <trkpt lat="44.65083" lon="3.0588">
        <ele>1213</ele>
        <time>2019-05-31T08:45:19.122Z</time>
      </trkpt>
      <trkpt lat="44.65088" lon="3.05878">
        <ele>1213</ele>
        <time>2019-05-31T08:45:23.121Z</time>
      </trkpt>
      <trkpt lat="44.65093" lon="3.05878">
        <ele>1213</ele>
        <time>2019-05-31T08:45:27.130Z</time>
      </trkpt>
      <trkpt lat="44.65099" lon="3.05876">
        <ele>1213</ele>
        <time>2019-05-31T08:45:32.159Z</time>
      </trkpt>
      <trkpt lat="44.65106" lon="3.05875">
        <ele>1213</ele>
        <time>2019-05-31T08:45:37.118Z</time>
      </trkpt>
      <trkpt lat="44.6511" lon="3.05875">
        <ele>1211</ele>
        <time>2019-05-31T08:45:41.148Z</time>
      </trkpt>
      <trkpt lat="44.65116" lon="3.05874">
        <ele>1211</ele>
        <time>2019-05-31T08:45:46.129Z</time>
      </trkpt>
      <trkpt lat="44.65121" lon="3.05869">
        <ele>1211</ele>
        <time>2019-05-31T08:45:50.146Z</time>
      </trkpt>
      <trkpt lat="44.65122" lon="3.05861">
        <ele>1211</ele>
        <time>2019-05-31T08:45:55.151Z</time>
      </trkpt>
      <trkpt lat="44.65121" lon="3.05853">
        <ele>1211</ele>
        <time>2019-05-31T08:46:00.114Z</time>
      </trkpt>
      <trkpt lat="44.6512" lon="3.05845">
        <ele>1209</ele>
        <time>2019-05-31T08:46:05.129Z</time>
      </trkpt>
      <trkpt lat="44.65121" lon="3.05837">
        <ele>1209</ele>
        <time>2019-05-31T08:46:10.106Z</time>
      </trkpt>
      <trkpt lat="44.65122" lon="3.05832">
        <ele>1209</ele>
        <time>2019-05-31T08:46:14.124Z</time>
      </trkpt>
      <trkpt lat="44.65125" lon="3.05826">
        <ele>1209</ele>
        <time>2019-05-31T08:46:18.140Z</time>
      </trkpt>
      <trkpt lat="44.65127" lon="3.05818">
        <ele>1209</ele>
        <time>2019-05-31T08:46:23.141Z</time>
      </trkpt>
      <trkpt lat="44.65131" lon="3.05813">
        <ele>1209</ele>
        <time>2019-05-31T08:46:28.125Z</time>
      </trkpt>
      <trkpt lat="44.65136" lon="3.0581">
        <ele>1209</ele>
        <time>2019-05-31T08:46:33.125Z</time>
      </trkpt>
      <trkpt lat="44.6514" lon="3.05809">
        <ele>1209</ele>
        <time>2019-05-31T08:46:38.119Z</time>
      </trkpt>
      <trkpt lat="44.65146" lon="3.05808">
        <ele>1209</ele>
        <time>2019-05-31T08:46:43.117Z</time>
      </trkpt>
      <trkpt lat="44.65149" lon="3.05805">
        <ele>1209</ele>
        <time>2019-05-31T08:46:47.130Z</time>
      </trkpt>
      <trkpt lat="44.65153" lon="3.05803">
        <ele>1209</ele>
        <time>2019-05-31T08:46:51.153Z</time>
      </trkpt>
      <trkpt lat="44.65158" lon="3.05801">
        <ele>1209</ele>
        <time>2019-05-31T08:46:56.156Z</time>
      </trkpt>
      <trkpt lat="44.65164" lon="3.05799">
        <ele>1209</ele>
        <time>2019-05-31T08:47:01.123Z</time>
      </trkpt>
      <trkpt lat="44.6517" lon="3.05797">
        <ele>1209</ele>
        <time>2019-05-31T08:47:06.117Z</time>
      </trkpt>
      <trkpt lat="44.65175" lon="3.05795">
        <ele>1209</ele>
        <time>2019-05-31T08:47:11.116Z</time>
      </trkpt>
      <trkpt lat="44.6518" lon="3.05793">
        <ele>1209</ele>
        <time>2019-05-31T08:47:16.128Z</time>
      </trkpt>
      <trkpt lat="44.65184" lon="3.05793">
        <ele>1209</ele>
        <time>2019-05-31T08:47:21.118Z</time>
      </trkpt>
      <trkpt lat="44.65187" lon="3.05793">
        <ele>1209</ele>
        <time>2019-05-31T08:47:25.126Z</time>
      </trkpt>
      <trkpt lat="44.65191" lon="3.05791">
        <ele>1209</ele>
        <time>2019-05-31T08:47:30.153Z</time>
      </trkpt>
      <trkpt lat="44.65195" lon="3.05789">
        <ele>1209</ele>
        <time>2019-05-31T08:47:35.133Z</time>
      </trkpt>
      <trkpt lat="44.652" lon="3.05785">
        <ele>1209</ele>
        <time>2019-05-31T08:47:40.122Z</time>
      </trkpt>
      <trkpt lat="44.65204" lon="3.05781">
        <ele>1209</ele>
        <time>2019-05-31T08:47:44.122Z</time>
      </trkpt>
      <trkpt lat="44.65208" lon="3.05775">
        <ele>1209</ele>
        <time>2019-05-31T08:47:49.123Z</time>
      </trkpt>
      <trkpt lat="44.65212" lon="3.05768">
        <ele>1208</ele>
        <time>2019-05-31T08:47:54.126Z</time>
      </trkpt>
      <trkpt lat="44.65217" lon="3.05762">
        <ele>1209</ele>
        <time>2019-05-31T08:47:59.123Z</time>
      </trkpt>
      <trkpt lat="44.65221" lon="3.05759">
        <ele>1209</ele>
        <time>2019-05-31T08:48:04.118Z</time>
      </trkpt>
      <trkpt lat="44.65229" lon="3.05758">
        <ele>1209</ele>
        <time>2019-05-31T08:48:10.100Z</time>
      </trkpt>
      <trkpt lat="44.65236" lon="3.05758">
        <ele>1209</ele>
        <time>2019-05-31T08:48:15.130Z</time>
      </trkpt>
      <trkpt lat="44.65243" lon="3.05757">
        <ele>1210</ele>
        <time>2019-05-31T08:48:20.114Z</time>
      </trkpt>
      <trkpt lat="44.65244" lon="3.05758">
        <ele>1210</ele>
        <time>2019-05-31T08:48:24.142Z</time>
      </trkpt>
      <trkpt lat="44.65231" lon="3.0576">
        <ele>1209</ele>
        <time>2019-05-31T08:48:43.137Z</time>
      </trkpt>
      <trkpt lat="44.65231" lon="3.0576">
        <ele>1209</ele>
        <time>2019-05-31T08:48:48.104Z</time>
      </trkpt>
      <trkpt lat="44.65228" lon="3.05755">
        <ele>1209</ele>
        <time>2019-05-31T08:48:53.114Z</time>
      </trkpt>
      <trkpt lat="44.65225" lon="3.05749">
        <ele>1209</ele>
        <time>2019-05-31T08:48:58.114Z</time>
      </trkpt>
      <trkpt lat="44.65223" lon="3.05744">
        <ele>1209</ele>
        <time>2019-05-31T08:49:02.138Z</time>
      </trkpt>
      <trkpt lat="44.65219" lon="3.05735">
        <ele>1210</ele>
        <time>2019-05-31T08:49:07.123Z</time>
      </trkpt>
      <trkpt lat="44.65218" lon="3.05731">
        <ele>1210</ele>
        <time>2019-05-31T08:49:11.149Z</time>
      </trkpt>
      <trkpt lat="44.65214" lon="3.05725">
        <ele>1210</ele>
        <time>2019-05-31T08:49:16.123Z</time>
      </trkpt>
      <trkpt lat="44.65212" lon="3.05721">
        <ele>1210</ele>
        <time>2019-05-31T08:49:20.152Z</time>
      </trkpt>
      <trkpt lat="44.65209" lon="3.05716">
        <ele>1210</ele>
        <time>2019-05-31T08:49:25.153Z</time>
      </trkpt>
      <trkpt lat="44.65206" lon="3.05711">
        <ele>1208</ele>
        <time>2019-05-31T08:49:30.100Z</time>
      </trkpt>
      <trkpt lat="44.65203" lon="3.05705">
        <ele>1208</ele>
        <time>2019-05-31T08:49:34.148Z</time>
      </trkpt>
      <trkpt lat="44.65201" lon="3.057">
        <ele>1208</ele>
        <time>2019-05-31T08:49:39.117Z</time>
      </trkpt>
      <trkpt lat="44.65198" lon="3.05695">
        <ele>1208</ele>
        <time>2019-05-31T08:49:43.141Z</time>
      </trkpt>
      <trkpt lat="44.65196" lon="3.0569">
        <ele>1208</ele>
        <time>2019-05-31T08:49:47.153Z</time>
      </trkpt>
      <trkpt lat="44.65192" lon="3.05685">
        <ele>1208</ele>
        <time>2019-05-31T08:49:52.147Z</time>
      </trkpt>
      <trkpt lat="44.65185" lon="3.05683">
        <ele>1208</ele>
        <time>2019-05-31T08:49:57.121Z</time>
      </trkpt>
      <trkpt lat="44.65182" lon="3.05677">
        <ele>1209</ele>
        <time>2019-05-31T08:50:02.122Z</time>
      </trkpt>
      <trkpt lat="44.65177" lon="3.05673">
        <ele>1209</ele>
        <time>2019-05-31T08:50:07.100Z</time>
      </trkpt>
      <trkpt lat="44.65173" lon="3.0567">
        <ele>1209</ele>
        <time>2019-05-31T08:50:12.115Z</time>
      </trkpt>
      <trkpt lat="44.65168" lon="3.05665">
        <ele>1209</ele>
        <time>2019-05-31T08:50:17.100Z</time>
      </trkpt>
      <trkpt lat="44.65165" lon="3.05662">
        <ele>1209</ele>
        <time>2019-05-31T08:50:21.133Z</time>
      </trkpt>
      <trkpt lat="44.65162" lon="3.05655">
        <ele>1209</ele>
        <time>2019-05-31T08:50:26.098Z</time>
      </trkpt>
      <trkpt lat="44.65161" lon="3.05651">
        <ele>1209</ele>
        <time>2019-05-31T08:50:30.117Z</time>
      </trkpt>
      <trkpt lat="44.6516" lon="3.0565">
        <ele>1209</ele>
        <time>2019-05-31T08:50:34.134Z</time>
      </trkpt>
      <trkpt lat="44.6516" lon="3.05649">
        <ele>1209</ele>
        <time>2019-05-31T08:50:39.128Z</time>
      </trkpt>
      <trkpt lat="44.6516" lon="3.05644">
        <ele>1209</ele>
        <time>2019-05-31T08:50:44.113Z</time>
      </trkpt>
      <trkpt lat="44.65162" lon="3.05639">
        <ele>1209</ele>
        <time>2019-05-31T08:50:48.120Z</time>
      </trkpt>
      <trkpt lat="44.65163" lon="3.0563">
        <ele>1209</ele>
        <time>2019-05-31T08:50:53.132Z</time>
      </trkpt>
      <trkpt lat="44.65163" lon="3.05624">
        <ele>1209</ele>
        <time>2019-05-31T08:50:58.118Z</time>
      </trkpt>
      <trkpt lat="44.65162" lon="3.05615">
        <ele>1209</ele>
        <time>2019-05-31T08:51:03.130Z</time>
      </trkpt>
      <trkpt lat="44.65161" lon="3.05608">
        <ele>1209</ele>
        <time>2019-05-31T08:51:08.132Z</time>
      </trkpt>
      <trkpt lat="44.6516" lon="3.05601">
        <ele>1209</ele>
        <time>2019-05-31T08:51:13.103Z</time>
      </trkpt>
      <trkpt lat="44.6516" lon="3.05595">
        <ele>1208</ele>
        <time>2019-05-31T08:51:18.130Z</time>
      </trkpt>
      <trkpt lat="44.6516" lon="3.05591">
        <ele>1208</ele>
        <time>2019-05-31T08:51:22.144Z</time>
      </trkpt>
      <trkpt lat="44.6516" lon="3.0559">
        <ele>1208</ele>
        <time>2019-05-31T08:52:42.123Z</time>
      </trkpt>
      <trkpt lat="44.65161" lon="3.05583">
        <ele>1208</ele>
        <time>2019-05-31T08:52:47.119Z</time>
      </trkpt>
      <trkpt lat="44.65162" lon="3.05577">
        <ele>1208</ele>
        <time>2019-05-31T08:52:51.126Z</time>
      </trkpt>
      <trkpt lat="44.65165" lon="3.05571">
        <ele>1208</ele>
        <time>2019-05-31T08:52:55.155Z</time>
      </trkpt>
      <trkpt lat="44.65169" lon="3.05563">
        <ele>1207</ele>
        <time>2019-05-31T08:53:00.135Z</time>
      </trkpt>
      <trkpt lat="44.65174" lon="3.05556">
        <ele>1207</ele>
        <time>2019-05-31T08:53:05.119Z</time>
      </trkpt>
      <trkpt lat="44.65178" lon="3.0555">
        <ele>1207</ele>
        <time>2019-05-31T08:53:10.105Z</time>
      </trkpt>
      <trkpt lat="44.6518" lon="3.05543">
        <ele>1207</ele>
        <time>2019-05-31T08:53:14.149Z</time>
      </trkpt>
      <trkpt lat="44.65183" lon="3.05536">
        <ele>1207</ele>
        <time>2019-05-31T08:53:19.101Z</time>
      </trkpt>
      <trkpt lat="44.65185" lon="3.0553">
        <ele>1207</ele>
        <time>2019-05-31T08:53:23.122Z</time>
      </trkpt>
      <trkpt lat="44.65187" lon="3.05521">
        <ele>1207</ele>
        <time>2019-05-31T08:53:28.157Z</time>
      </trkpt>
      <trkpt lat="44.65188" lon="3.05512">
        <ele>1207</ele>
        <time>2019-05-31T08:53:33.122Z</time>
      </trkpt>
      <trkpt lat="44.65187" lon="3.05503">
        <ele>1207</ele>
        <time>2019-05-31T08:53:38.105Z</time>
      </trkpt>
      <trkpt lat="44.65186" lon="3.05495">
        <ele>1207</ele>
        <time>2019-05-31T08:53:43.122Z</time>
      </trkpt>
      <trkpt lat="44.65185" lon="3.0549">
        <ele>1207</ele>
        <time>2019-05-31T08:53:47.123Z</time>
      </trkpt>
      <trkpt lat="44.65183" lon="3.05481">
        <ele>1208</ele>
        <time>2019-05-31T08:53:52.132Z</time>
      </trkpt>
      <trkpt lat="44.65181" lon="3.05474">
        <ele>1208</ele>
        <time>2019-05-31T08:53:57.098Z</time>
      </trkpt>
      <trkpt lat="44.65178" lon="3.05467">
        <ele>1206</ele>
        <time>2019-05-31T08:54:02.134Z</time>
      </trkpt>
      <trkpt lat="44.65174" lon="3.05462">
        <ele>1206</ele>
        <time>2019-05-31T08:54:07.147Z</time>
      </trkpt>
      <trkpt lat="44.6517" lon="3.05455">
        <ele>1207</ele>
        <time>2019-05-31T08:54:12.116Z</time>
      </trkpt>
      <trkpt lat="44.65165" lon="3.05448">
        <ele>1207</ele>
        <time>2019-05-31T08:54:17.116Z</time>
      </trkpt>
      <trkpt lat="44.65162" lon="3.05443">
        <ele>1207</ele>
        <time>2019-05-31T08:54:21.155Z</time>
      </trkpt>
      <trkpt lat="44.65158" lon="3.05438">
        <ele>1207</ele>
        <time>2019-05-31T08:54:26.131Z</time>
      </trkpt>
      <trkpt lat="44.65156" lon="3.0543">
        <ele>1206</ele>
        <time>2019-05-31T08:54:31.136Z</time>
      </trkpt>
      <trkpt lat="44.65154" lon="3.05422">
        <ele>1206</ele>
        <time>2019-05-31T08:54:36.145Z</time>
      </trkpt>
      <trkpt lat="44.65152" lon="3.05415">
        <ele>1205</ele>
        <time>2019-05-31T08:54:41.107Z</time>
      </trkpt>
      <trkpt lat="44.65152" lon="3.05415">
        <ele>1205</ele>
        <time>2019-05-31T08:54:45.114Z</time>
      </trkpt>
      <trkpt lat="44.65153" lon="3.05412">
        <ele>1206</ele>
        <time>2019-05-31T08:54:49.137Z</time>
      </trkpt>
      <trkpt lat="44.65157" lon="3.05404">
        <ele>1206</ele>
        <time>2019-05-31T08:54:54.150Z</time>
      </trkpt>
      <trkpt lat="44.65161" lon="3.05402">
        <ele>1205</ele>
        <time>2019-05-31T08:54:59.144Z</time>
      </trkpt>
      <trkpt lat="44.65168" lon="3.05402">
        <ele>1205</ele>
        <time>2019-05-31T08:55:04.117Z</time>
      </trkpt>
      <trkpt lat="44.65175" lon="3.05398">
        <ele>1205</ele>
        <time>2019-05-31T08:55:09.133Z</time>
      </trkpt>
      <trkpt lat="44.6518" lon="3.05397">
        <ele>1205</ele>
        <time>2019-05-31T08:55:14.120Z</time>
      </trkpt>
      <trkpt lat="44.65185" lon="3.05397">
        <ele>1204</ele>
        <time>2019-05-31T08:55:19.104Z</time>
      </trkpt>
      <trkpt lat="44.65191" lon="3.05396">
        <ele>1204</ele>
        <time>2019-05-31T08:55:23.127Z</time>
      </trkpt>
      <trkpt lat="44.65198" lon="3.05394">
        <ele>1204</ele>
        <time>2019-05-31T08:55:28.130Z</time>
      </trkpt>
      <trkpt lat="44.65203" lon="3.05392">
        <ele>1204</ele>
        <time>2019-05-31T08:55:32.137Z</time>
      </trkpt>
      <trkpt lat="44.65209" lon="3.05389">
        <ele>1205</ele>
        <time>2019-05-31T08:55:37.115Z</time>
      </trkpt>
      <trkpt lat="44.65214" lon="3.05385">
        <ele>1205</ele>
        <time>2019-05-31T08:55:42.100Z</time>
      </trkpt>
      <trkpt lat="44.65218" lon="3.05383">
        <ele>1205</ele>
        <time>2019-05-31T08:55:46.105Z</time>
      </trkpt>
      <trkpt lat="44.65225" lon="3.05379">
        <ele>1205</ele>
        <time>2019-05-31T08:55:51.112Z</time>
      </trkpt>
      <trkpt lat="44.65231" lon="3.05375">
        <ele>1203</ele>
        <time>2019-05-31T08:55:56.102Z</time>
      </trkpt>
      <trkpt lat="44.65236" lon="3.05371">
        <ele>1203</ele>
        <time>2019-05-31T08:56:01.106Z</time>
      </trkpt>
      <trkpt lat="44.65239" lon="3.05368">
        <ele>1204</ele>
        <time>2019-05-31T08:56:06.102Z</time>
      </trkpt>
      <trkpt lat="44.65244" lon="3.05364">
        <ele>1204</ele>
        <time>2019-05-31T08:56:11.104Z</time>
      </trkpt>
      <trkpt lat="44.65249" lon="3.05361">
        <ele>1204</ele>
        <time>2019-05-31T08:56:15.132Z</time>
      </trkpt>
      <trkpt lat="44.65253" lon="3.05356">
        <ele>1204</ele>
        <time>2019-05-31T08:56:20.107Z</time>
      </trkpt>
      <trkpt lat="44.65256" lon="3.05353">
        <ele>1204</ele>
        <time>2019-05-31T08:56:25.134Z</time>
      </trkpt>
      <trkpt lat="44.6526" lon="3.05346">
        <ele>1203</ele>
        <time>2019-05-31T08:56:30.144Z</time>
      </trkpt>
      <trkpt lat="44.65264" lon="3.05342">
        <ele>1203</ele>
        <time>2019-05-31T08:56:35.118Z</time>
      </trkpt>
      <trkpt lat="44.65268" lon="3.05338">
        <ele>1203</ele>
        <time>2019-05-31T08:56:39.122Z</time>
      </trkpt>
      <trkpt lat="44.65271" lon="3.05333">
        <ele>1203</ele>
        <time>2019-05-31T08:56:43.151Z</time>
      </trkpt>
      <trkpt lat="44.65274" lon="3.05325">
        <ele>1203</ele>
        <time>2019-05-31T08:56:48.123Z</time>
      </trkpt>
      <trkpt lat="44.65278" lon="3.05318">
        <ele>1202</ele>
        <time>2019-05-31T08:56:53.120Z</time>
      </trkpt>
      <trkpt lat="44.65282" lon="3.05312">
        <ele>1202</ele>
        <time>2019-05-31T08:56:57.122Z</time>
      </trkpt>
      <trkpt lat="44.65286" lon="3.05308">
        <ele>1202</ele>
        <time>2019-05-31T08:57:02.125Z</time>
      </trkpt>
      <trkpt lat="44.6529" lon="3.053">
        <ele>1202</ele>
        <time>2019-05-31T08:57:07.115Z</time>
      </trkpt>
      <trkpt lat="44.65294" lon="3.05294">
        <ele>1202</ele>
        <time>2019-05-31T08:57:12.100Z</time>
      </trkpt>
      <trkpt lat="44.65299" lon="3.05287">
        <ele>1200</ele>
        <time>2019-05-31T08:57:17.104Z</time>
      </trkpt>
      <trkpt lat="44.65301" lon="3.05282">
        <ele>1200</ele>
        <time>2019-05-31T08:57:21.128Z</time>
      </trkpt>
      <trkpt lat="44.65306" lon="3.05275">
        <ele>1200</ele>
        <time>2019-05-31T08:57:26.131Z</time>
      </trkpt>
      <trkpt lat="44.65309" lon="3.05267">
        <ele>1200</ele>
        <time>2019-05-31T08:57:31.123Z</time>
      </trkpt>
      <trkpt lat="44.65313" lon="3.05262">
        <ele>1199</ele>
        <time>2019-05-31T08:57:36.131Z</time>
      </trkpt>
      <trkpt lat="44.65317" lon="3.05255">
        <ele>1199</ele>
        <time>2019-05-31T08:57:41.148Z</time>
      </trkpt>
      <trkpt lat="44.6532" lon="3.05247">
        <ele>1200</ele>
        <time>2019-05-31T08:57:46.120Z</time>
      </trkpt>
      <trkpt lat="44.65323" lon="3.05239">
        <ele>1200</ele>
        <time>2019-05-31T08:57:51.125Z</time>
      </trkpt>
      <trkpt lat="44.65325" lon="3.05234">
        <ele>1200</ele>
        <time>2019-05-31T08:57:55.156Z</time>
      </trkpt>
      <trkpt lat="44.65327" lon="3.05227">
        <ele>1200</ele>
        <time>2019-05-31T08:58:00.121Z</time>
      </trkpt>
      <trkpt lat="44.6533" lon="3.05218">
        <ele>1200</ele>
        <time>2019-05-31T08:58:05.126Z</time>
      </trkpt>
      <trkpt lat="44.65333" lon="3.05211">
        <ele>1200</ele>
        <time>2019-05-31T08:58:10.120Z</time>
      </trkpt>
      <trkpt lat="44.65335" lon="3.05204">
        <ele>1200</ele>
        <time>2019-05-31T08:58:15.129Z</time>
      </trkpt>
      <trkpt lat="44.65337" lon="3.05196">
        <ele>1200</ele>
        <time>2019-05-31T08:58:20.156Z</time>
      </trkpt>
      <trkpt lat="44.65339" lon="3.05188">
        <ele>1200</ele>
        <time>2019-05-31T08:58:25.129Z</time>
      </trkpt>
      <trkpt lat="44.6534" lon="3.05179">
        <ele>1202</ele>
        <time>2019-05-31T08:58:30.120Z</time>
      </trkpt>
      <trkpt lat="44.65343" lon="3.05172">
        <ele>1202</ele>
        <time>2019-05-31T08:58:35.123Z</time>
      </trkpt>
      <trkpt lat="44.65344" lon="3.05166">
        <ele>1202</ele>
        <time>2019-05-31T08:58:40.130Z</time>
      </trkpt>
      <trkpt lat="44.65349" lon="3.05161">
        <ele>1203</ele>
        <time>2019-05-31T08:58:45.126Z</time>
      </trkpt>
      <trkpt lat="44.65354" lon="3.05158">
        <ele>1203</ele>
        <time>2019-05-31T08:58:50.126Z</time>
      </trkpt>
      <trkpt lat="44.65359" lon="3.05159">
        <ele>1203</ele>
        <time>2019-05-31T08:58:54.141Z</time>
      </trkpt>
      <trkpt lat="44.65365" lon="3.0516">
        <ele>1203</ele>
        <time>2019-05-31T08:58:59.131Z</time>
      </trkpt>
      <trkpt lat="44.65371" lon="3.05162">
        <ele>1203</ele>
        <time>2019-05-31T08:59:04.113Z</time>
      </trkpt>
      <trkpt lat="44.65375" lon="3.05163">
        <ele>1203</ele>
        <time>2019-05-31T08:59:08.157Z</time>
      </trkpt>
      <trkpt lat="44.65379" lon="3.05162">
        <ele>1203</ele>
        <time>2019-05-31T08:59:13.123Z</time>
      </trkpt>
      <trkpt lat="44.65384" lon="3.05161">
        <ele>1203</ele>
        <time>2019-05-31T08:59:18.126Z</time>
      </trkpt>
      <trkpt lat="44.65389" lon="3.0516">
        <ele>1203</ele>
        <time>2019-05-31T08:59:23.130Z</time>
      </trkpt>
      <trkpt lat="44.65393" lon="3.0516">
        <ele>1203</ele>
        <time>2019-05-31T08:59:28.124Z</time>
      </trkpt>
      <trkpt lat="44.65398" lon="3.05159">
        <ele>1203</ele>
        <time>2019-05-31T08:59:33.130Z</time>
      </trkpt>
      <trkpt lat="44.65405" lon="3.05157">
        <ele>1204</ele>
        <time>2019-05-31T08:59:38.131Z</time>
      </trkpt>
      <trkpt lat="44.65411" lon="3.05154">
        <ele>1204</ele>
        <time>2019-05-31T08:59:43.131Z</time>
      </trkpt>
      <trkpt lat="44.65415" lon="3.05152">
        <ele>1206</ele>
        <time>2019-05-31T08:59:47.142Z</time>
      </trkpt>
      <trkpt lat="44.65422" lon="3.05149">
        <ele>1206</ele>
        <time>2019-05-31T08:59:52.115Z</time>
      </trkpt>
      <trkpt lat="44.65427" lon="3.05147">
        <ele>1206</ele>
        <time>2019-05-31T08:59:56.134Z</time>
      </trkpt>
      <trkpt lat="44.65434" lon="3.05147">
        <ele>1207</ele>
        <time>2019-05-31T09:00:01.109Z</time>
      </trkpt>
      <trkpt lat="44.6544" lon="3.05145">
        <ele>1207</ele>
        <time>2019-05-31T09:00:05.121Z</time>
      </trkpt>
      <trkpt lat="44.65445" lon="3.05144">
        <ele>1207</ele>
        <time>2019-05-31T09:00:09.133Z</time>
      </trkpt>
      <trkpt lat="44.65452" lon="3.05144">
        <ele>1207</ele>
        <time>2019-05-31T09:00:14.121Z</time>
      </trkpt>
      <trkpt lat="44.65456" lon="3.05142">
        <ele>1207</ele>
        <time>2019-05-31T09:00:18.131Z</time>
      </trkpt>
      <trkpt lat="44.65461" lon="3.0514">
        <ele>1205</ele>
        <time>2019-05-31T09:00:23.127Z</time>
      </trkpt>
      <trkpt lat="44.65466" lon="3.0514">
        <ele>1205</ele>
        <time>2019-05-31T09:00:28.125Z</time>
      </trkpt>
      <trkpt lat="44.65472" lon="3.05141">
        <ele>1205</ele>
        <time>2019-05-31T09:00:33.112Z</time>
      </trkpt>
      <trkpt lat="44.65478" lon="3.05142">
        <ele>1205</ele>
        <time>2019-05-31T09:00:37.122Z</time>
      </trkpt>
      <trkpt lat="44.65484" lon="3.05142">
        <ele>1205</ele>
        <time>2019-05-31T09:00:42.125Z</time>
      </trkpt>
      <trkpt lat="44.6549" lon="3.05143">
        <ele>1203</ele>
        <time>2019-05-31T09:00:47.125Z</time>
      </trkpt>
      <trkpt lat="44.65496" lon="3.05144">
        <ele>1203</ele>
        <time>2019-05-31T09:00:52.146Z</time>
      </trkpt>
      <trkpt lat="44.65503" lon="3.05146">
        <ele>1203</ele>
        <time>2019-05-31T09:00:57.119Z</time>
      </trkpt>
      <trkpt lat="44.65507" lon="3.0515">
        <ele>1203</ele>
        <time>2019-05-31T09:01:02.130Z</time>
      </trkpt>
      <trkpt lat="44.65512" lon="3.05154">
        <ele>1199</ele>
        <time>2019-05-31T09:01:07.123Z</time>
      </trkpt>
      <trkpt lat="44.65516" lon="3.05156">
        <ele>1197</ele>
        <time>2019-05-31T09:01:11.150Z</time>
      </trkpt>
      <trkpt lat="44.65523" lon="3.0516">
        <ele>1197</ele>
        <time>2019-05-31T09:01:16.127Z</time>
      </trkpt>
      <trkpt lat="44.65528" lon="3.05162">
        <ele>1197</ele>
        <time>2019-05-31T09:01:21.121Z</time>
      </trkpt>
      <trkpt lat="44.65532" lon="3.05166">
        <ele>1197</ele>
        <time>2019-05-31T09:01:25.130Z</time>
      </trkpt>
      <trkpt lat="44.65539" lon="3.0517">
        <ele>1197</ele>
        <time>2019-05-31T09:01:30.121Z</time>
      </trkpt>
      <trkpt lat="44.65543" lon="3.05172">
        <ele>1198</ele>
        <time>2019-05-31T09:01:35.122Z</time>
      </trkpt>
      <trkpt lat="44.6555" lon="3.05174">
        <ele>1198</ele>
        <time>2019-05-31T09:01:40.131Z</time>
      </trkpt>
      <trkpt lat="44.65557" lon="3.05175">
        <ele>1198</ele>
        <time>2019-05-31T09:01:45.126Z</time>
      </trkpt>
      <trkpt lat="44.65564" lon="3.05176">
        <ele>1198</ele>
        <time>2019-05-31T09:01:50.124Z</time>
      </trkpt>
      <trkpt lat="44.65571" lon="3.05177">
        <ele>1199</ele>
        <time>2019-05-31T09:01:55.123Z</time>
      </trkpt>
      <trkpt lat="44.65577" lon="3.05177">
        <ele>1199</ele>
        <time>2019-05-31T09:02:00.122Z</time>
      </trkpt>
      <trkpt lat="44.65582" lon="3.05177">
        <ele>1199</ele>
        <time>2019-05-31T09:02:05.125Z</time>
      </trkpt>
      <trkpt lat="44.65587" lon="3.05178">
        <ele>1199</ele>
        <time>2019-05-31T09:02:09.134Z</time>
      </trkpt>
      <trkpt lat="44.65592" lon="3.05179">
        <ele>1199</ele>
        <time>2019-05-31T09:02:14.128Z</time>
      </trkpt>
      <trkpt lat="44.65598" lon="3.05181">
        <ele>1196</ele>
        <time>2019-05-31T09:02:19.115Z</time>
      </trkpt>
      <trkpt lat="44.65603" lon="3.05183">
        <ele>1196</ele>
        <time>2019-05-31T09:02:23.131Z</time>
      </trkpt>
      <trkpt lat="44.65606" lon="3.05184">
        <ele>1196</ele>
        <time>2019-05-31T09:02:27.147Z</time>
      </trkpt>
      <trkpt lat="44.65612" lon="3.05187">
        <ele>1196</ele>
        <time>2019-05-31T09:02:32.120Z</time>
      </trkpt>
      <trkpt lat="44.65618" lon="3.05189">
        <ele>1196</ele>
        <time>2019-05-31T09:02:37.150Z</time>
      </trkpt>
      <trkpt lat="44.65624" lon="3.0519">
        <ele>1196</ele>
        <time>2019-05-31T09:02:42.131Z</time>
      </trkpt>
      <trkpt lat="44.65629" lon="3.05193">
        <ele>1195</ele>
        <time>2019-05-31T09:02:47.128Z</time>
      </trkpt>
      <trkpt lat="44.65635" lon="3.05194">
        <ele>1195</ele>
        <time>2019-05-31T09:02:52.123Z</time>
      </trkpt>
      <trkpt lat="44.65641" lon="3.05196">
        <ele>1195</ele>
        <time>2019-05-31T09:02:57.128Z</time>
      </trkpt>
      <trkpt lat="44.65647" lon="3.05197">
        <ele>1195</ele>
        <time>2019-05-31T09:03:02.115Z</time>
      </trkpt>
      <trkpt lat="44.65652" lon="3.05198">
        <ele>1195</ele>
        <time>2019-05-31T09:03:06.120Z</time>
      </trkpt>
      <trkpt lat="44.65657" lon="3.05198">
        <ele>1196</ele>
        <time>2019-05-31T09:03:11.125Z</time>
      </trkpt>
      <trkpt lat="44.65662" lon="3.05199">
        <ele>1196</ele>
        <time>2019-05-31T09:03:15.141Z</time>
      </trkpt>
      <trkpt lat="44.65668" lon="3.05199">
        <ele>1196</ele>
        <time>2019-05-31T09:03:20.122Z</time>
      </trkpt>
      <trkpt lat="44.65673" lon="3.05199">
        <ele>1196</ele>
        <time>2019-05-31T09:03:25.126Z</time>
      </trkpt>
      <trkpt lat="44.6568" lon="3.052">
        <ele>1196</ele>
        <time>2019-05-31T09:03:30.120Z</time>
      </trkpt>
      <trkpt lat="44.65686" lon="3.052">
        <ele>1195</ele>
        <time>2019-05-31T09:03:35.130Z</time>
      </trkpt>
      <trkpt lat="44.65692" lon="3.052">
        <ele>1195</ele>
        <time>2019-05-31T09:03:40.123Z</time>
      </trkpt>
      <trkpt lat="44.65698" lon="3.052">
        <ele>1195</ele>
        <time>2019-05-31T09:03:45.128Z</time>
      </trkpt>
      <trkpt lat="44.65704" lon="3.052">
        <ele>1195</ele>
        <time>2019-05-31T09:03:50.125Z</time>
      </trkpt>
      <trkpt lat="44.65708" lon="3.052">
        <ele>1195</ele>
        <time>2019-05-31T09:03:54.130Z</time>
      </trkpt>
      <trkpt lat="44.65712" lon="3.05198">
        <ele>1194</ele>
        <time>2019-05-31T09:03:58.151Z</time>
      </trkpt>
      <trkpt lat="44.65718" lon="3.05195">
        <ele>1194</ele>
        <time>2019-05-31T09:04:03.131Z</time>
      </trkpt>
      <trkpt lat="44.65724" lon="3.05193">
        <ele>1194</ele>
        <time>2019-05-31T09:04:08.116Z</time>
      </trkpt>
      <trkpt lat="44.65729" lon="3.0519">
        <ele>1194</ele>
        <time>2019-05-31T09:04:13.102Z</time>
      </trkpt>
      <trkpt lat="44.65735" lon="3.05188">
        <ele>1194</ele>
        <time>2019-05-31T09:04:17.141Z</time>
      </trkpt>
      <trkpt lat="44.65739" lon="3.05186">
        <ele>1193</ele>
        <time>2019-05-31T09:04:22.119Z</time>
      </trkpt>
      <trkpt lat="44.65743" lon="3.05182">
        <ele>1193</ele>
        <time>2019-05-31T09:04:26.146Z</time>
      </trkpt>
      <trkpt lat="44.65749" lon="3.05181">
        <ele>1194</ele>
        <time>2019-05-31T09:04:31.119Z</time>
      </trkpt>
      <trkpt lat="44.65752" lon="3.05179">
        <ele>1194</ele>
        <time>2019-05-31T09:04:35.139Z</time>
      </trkpt>
      <trkpt lat="44.65755" lon="3.05178">
        <ele>1194</ele>
        <time>2019-05-31T09:04:39.158Z</time>
      </trkpt>
      <trkpt lat="44.6576" lon="3.05176">
        <ele>1194</ele>
        <time>2019-05-31T09:04:44.149Z</time>
      </trkpt>
      <trkpt lat="44.65766" lon="3.05174">
        <ele>1192</ele>
        <time>2019-05-31T09:04:49.100Z</time>
      </trkpt>
      <trkpt lat="44.65772" lon="3.05171">
        <ele>1192</ele>
        <time>2019-05-31T09:04:53.155Z</time>
      </trkpt>
      <trkpt lat="44.65775" lon="3.05172">
        <ele>1192</ele>
        <time>2019-05-31T09:04:57.103Z</time>
      </trkpt>
      <trkpt lat="44.65782" lon="3.05169">
        <ele>1192</ele>
        <time>2019-05-31T09:05:02.144Z</time>
      </trkpt>
      <trkpt lat="44.65788" lon="3.05166">
        <ele>1192</ele>
        <time>2019-05-31T09:05:07.118Z</time>
      </trkpt>
      <trkpt lat="44.65795" lon="3.05165">
        <ele>1190</ele>
        <time>2019-05-31T09:05:12.121Z</time>
      </trkpt>
      <trkpt lat="44.658" lon="3.05163">
        <ele>1190</ele>
        <time>2019-05-31T09:05:16.148Z</time>
      </trkpt>
      <trkpt lat="44.65805" lon="3.05162">
        <ele>1190</ele>
        <time>2019-05-31T09:05:21.115Z</time>
      </trkpt>
      <trkpt lat="44.65808" lon="3.0516">
        <ele>1190</ele>
        <time>2019-05-31T09:05:25.117Z</time>
      </trkpt>
      <trkpt lat="44.65812" lon="3.05159">
        <ele>1190</ele>
        <time>2019-05-31T09:05:29.143Z</time>
      </trkpt>
      <trkpt lat="44.65817" lon="3.05157">
        <ele>1190</ele>
        <time>2019-05-31T09:05:34.114Z</time>
      </trkpt>
      <trkpt lat="44.65822" lon="3.05156">
        <ele>1187</ele>
        <time>2019-05-31T09:05:38.140Z</time>
      </trkpt>
      <trkpt lat="44.65829" lon="3.05154">
        <ele>1187</ele>
        <time>2019-05-31T09:05:43.119Z</time>
      </trkpt>
      <trkpt lat="44.65834" lon="3.05153">
        <ele>1187</ele>
        <time>2019-05-31T09:05:48.118Z</time>
      </trkpt>
      <trkpt lat="44.65838" lon="3.05152">
        <ele>1188</ele>
        <time>2019-05-31T09:05:52.146Z</time>
      </trkpt>
      <trkpt lat="44.65844" lon="3.0515">
        <ele>1188</ele>
        <time>2019-05-31T09:05:57.117Z</time>
      </trkpt>
      <trkpt lat="44.65848" lon="3.05148">
        <ele>1187</ele>
        <time>2019-05-31T09:06:01.158Z</time>
      </trkpt>
      <trkpt lat="44.65853" lon="3.05148">
        <ele>1187</ele>
        <time>2019-05-31T09:06:06.138Z</time>
      </trkpt>
      <trkpt lat="44.65858" lon="3.05146">
        <ele>1187</ele>
        <time>2019-05-31T09:06:11.126Z</time>
      </trkpt>
      <trkpt lat="44.65865" lon="3.05143">
        <ele>1187</ele>
        <time>2019-05-31T09:06:16.145Z</time>
      </trkpt>
      <trkpt lat="44.65872" lon="3.0514">
        <ele>1187</ele>
        <time>2019-05-31T09:06:21.147Z</time>
      </trkpt>
      <trkpt lat="44.65879" lon="3.05136">
        <ele>1188</ele>
        <time>2019-05-31T09:06:26.145Z</time>
      </trkpt>
      <trkpt lat="44.65886" lon="3.05133">
        <ele>1188</ele>
        <time>2019-05-31T09:06:31.103Z</time>
      </trkpt>
      <trkpt lat="44.65891" lon="3.05133">
        <ele>1188</ele>
        <time>2019-05-31T09:06:35.145Z</time>
      </trkpt>
      <trkpt lat="44.65896" lon="3.05134">
        <ele>1188</ele>
        <time>2019-05-31T09:06:40.114Z</time>
      </trkpt>
      <trkpt lat="44.65903" lon="3.05134">
        <ele>1188</ele>
        <time>2019-05-31T09:06:45.116Z</time>
      </trkpt>
      <trkpt lat="44.65908" lon="3.05136">
        <ele>1187</ele>
        <time>2019-05-31T09:06:50.116Z</time>
      </trkpt>
      <trkpt lat="44.65914" lon="3.05137">
        <ele>1187</ele>
        <time>2019-05-31T09:06:55.137Z</time>
      </trkpt>
      <trkpt lat="44.65917" lon="3.05136">
        <ele>1187</ele>
        <time>2019-05-31T09:07:00.110Z</time>
      </trkpt>
      <trkpt lat="44.65921" lon="3.05136">
        <ele>1187</ele>
        <time>2019-05-31T09:07:04.132Z</time>
      </trkpt>
      <trkpt lat="44.65927" lon="3.05135">
        <ele>1187</ele>
        <time>2019-05-31T09:07:09.116Z</time>
      </trkpt>
      <trkpt lat="44.65931" lon="3.05134">
        <ele>1186</ele>
        <time>2019-05-31T09:07:13.122Z</time>
      </trkpt>
      <trkpt lat="44.65935" lon="3.05133">
        <ele>1186</ele>
        <time>2019-05-31T09:07:17.123Z</time>
      </trkpt>
      <trkpt lat="44.65939" lon="3.05132">
        <ele>1186</ele>
        <time>2019-05-31T09:07:22.148Z</time>
      </trkpt>
      <trkpt lat="44.65943" lon="3.05129">
        <ele>1186</ele>
        <time>2019-05-31T09:07:27.124Z</time>
      </trkpt>
      <trkpt lat="44.65948" lon="3.05127">
        <ele>1186</ele>
        <time>2019-05-31T09:07:31.136Z</time>
      </trkpt>
      <trkpt lat="44.65953" lon="3.05124">
        <ele>1188</ele>
        <time>2019-05-31T09:07:36.138Z</time>
      </trkpt>
      <trkpt lat="44.65958" lon="3.05122">
        <ele>1186</ele>
        <time>2019-05-31T09:07:41.101Z</time>
      </trkpt>
      <trkpt lat="44.65964" lon="3.0512">
        <ele>1186</ele>
        <time>2019-05-31T09:07:45.116Z</time>
      </trkpt>
      <trkpt lat="44.65969" lon="3.05121">
        <ele>1186</ele>
        <time>2019-05-31T09:07:49.128Z</time>
      </trkpt>
      <trkpt lat="44.65974" lon="3.05121">
        <ele>1186</ele>
        <time>2019-05-31T09:07:53.133Z</time>
      </trkpt>
      <trkpt lat="44.65979" lon="3.05121">
        <ele>1186</ele>
        <time>2019-05-31T09:07:58.101Z</time>
      </trkpt>
      <trkpt lat="44.65983" lon="3.0512">
        <ele>1186</ele>
        <time>2019-05-31T09:08:02.118Z</time>
      </trkpt>
      <trkpt lat="44.65989" lon="3.05117">
        <ele>1185</ele>
        <time>2019-05-31T09:08:07.147Z</time>
      </trkpt>
      <trkpt lat="44.65994" lon="3.05118">
        <ele>1185</ele>
        <time>2019-05-31T09:08:12.102Z</time>
      </trkpt>
      <trkpt lat="44.65998" lon="3.05117">
        <ele>1185</ele>
        <time>2019-05-31T09:08:16.125Z</time>
      </trkpt>
      <trkpt lat="44.66" lon="3.05116">
        <ele>1185</ele>
        <time>2019-05-31T09:08:21.147Z</time>
      </trkpt>
      <trkpt lat="44.66006" lon="3.05109">
        <ele>1185</ele>
        <time>2019-05-31T09:08:26.105Z</time>
      </trkpt>
      <trkpt lat="44.66012" lon="3.05104">
        <ele>1185</ele>
        <time>2019-05-31T09:08:30.120Z</time>
      </trkpt>
      <trkpt lat="44.66014" lon="3.05099">
        <ele>1184</ele>
        <time>2019-05-31T09:08:35.117Z</time>
      </trkpt>
      <trkpt lat="44.66016" lon="3.05096">
        <ele>1186</ele>
        <time>2019-05-31T09:08:39.123Z</time>
      </trkpt>
      <trkpt lat="44.66018" lon="3.05094">
        <ele>1186</ele>
        <time>2019-05-31T09:08:43.170Z</time>
      </trkpt>
      <trkpt lat="44.66022" lon="3.05089">
        <ele>1186</ele>
        <time>2019-05-31T09:08:48.120Z</time>
      </trkpt>
      <trkpt lat="44.66024" lon="3.05086">
        <ele>1186</ele>
        <time>2019-05-31T09:08:52.126Z</time>
      </trkpt>
      <trkpt lat="44.66028" lon="3.05082">
        <ele>1186</ele>
        <time>2019-05-31T09:08:57.149Z</time>
      </trkpt>
      <trkpt lat="44.66031" lon="3.05078">
        <ele>1186</ele>
        <time>2019-05-31T09:09:02.123Z</time>
      </trkpt>
      <trkpt lat="44.66034" lon="3.05071">
        <ele>1186</ele>
        <time>2019-05-31T09:09:07.123Z</time>
      </trkpt>
      <trkpt lat="44.66037" lon="3.05066">
        <ele>1187</ele>
        <time>2019-05-31T09:09:11.123Z</time>
      </trkpt>
      <trkpt lat="44.66039" lon="3.05062">
        <ele>1187</ele>
        <time>2019-05-31T09:09:15.148Z</time>
      </trkpt>
      <trkpt lat="44.66044" lon="3.0506">
        <ele>1183</ele>
        <time>2019-05-31T09:09:20.131Z</time>
      </trkpt>
      <trkpt lat="44.66048" lon="3.05053">
        <ele>1183</ele>
        <time>2019-05-31T09:09:25.123Z</time>
      </trkpt>
      <trkpt lat="44.66052" lon="3.05048">
        <ele>1183</ele>
        <time>2019-05-31T09:09:30.122Z</time>
      </trkpt>
      <trkpt lat="44.66058" lon="3.05044">
        <ele>1183</ele>
        <time>2019-05-31T09:09:35.129Z</time>
      </trkpt>
      <trkpt lat="44.66064" lon="3.05037">
        <ele>1184</ele>
        <time>2019-05-31T09:09:40.128Z</time>
      </trkpt>
      <trkpt lat="44.66068" lon="3.05032">
        <ele>1184</ele>
        <time>2019-05-31T09:09:45.125Z</time>
      </trkpt>
      <trkpt lat="44.66072" lon="3.05027">
        <ele>1182</ele>
        <time>2019-05-31T09:09:50.128Z</time>
      </trkpt>
      <trkpt lat="44.66074" lon="3.05025">
        <ele>1182</ele>
        <time>2019-05-31T09:09:55.126Z</time>
      </trkpt>
      <trkpt lat="44.66078" lon="3.05022">
        <ele>1182</ele>
        <time>2019-05-31T09:10:00.118Z</time>
      </trkpt>
      <trkpt lat="44.6608" lon="3.0502">
        <ele>1182</ele>
        <time>2019-05-31T09:10:05.117Z</time>
      </trkpt>
      <trkpt lat="44.66084" lon="3.05017">
        <ele>1182</ele>
        <time>2019-05-31T09:10:25.147Z</time>
      </trkpt>
      <trkpt lat="44.66088" lon="3.05017">
        <ele>1182</ele>
        <time>2019-05-31T09:10:30.114Z</time>
      </trkpt>
      <trkpt lat="44.66092" lon="3.05015">
        <ele>1182</ele>
        <time>2019-05-31T09:10:34.132Z</time>
      </trkpt>
      <trkpt lat="44.66097" lon="3.05009">
        <ele>1184</ele>
        <time>2019-05-31T09:10:39.120Z</time>
      </trkpt>
      <trkpt lat="44.66103" lon="3.05004">
        <ele>1181</ele>
        <time>2019-05-31T09:10:44.124Z</time>
      </trkpt>
      <trkpt lat="44.66108" lon="3.04998">
        <ele>1181</ele>
        <time>2019-05-31T09:10:49.116Z</time>
      </trkpt>
      <trkpt lat="44.66114" lon="3.04992">
        <ele>1181</ele>
        <time>2019-05-31T09:10:54.149Z</time>
      </trkpt>
      <trkpt lat="44.66117" lon="3.04987">
        <ele>1181</ele>
        <time>2019-05-31T09:10:58.156Z</time>
      </trkpt>
      <trkpt lat="44.66121" lon="3.04983">
        <ele>1183</ele>
        <time>2019-05-31T09:11:03.122Z</time>
      </trkpt>
      <trkpt lat="44.66124" lon="3.04978">
        <ele>1183</ele>
        <time>2019-05-31T09:11:08.126Z</time>
      </trkpt>
      <trkpt lat="44.66127" lon="3.04975">
        <ele>1177</ele>
        <time>2019-05-31T09:11:12.152Z</time>
      </trkpt>
      <trkpt lat="44.66132" lon="3.04971">
        <ele>1177</ele>
        <time>2019-05-31T09:11:17.125Z</time>
      </trkpt>
      <trkpt lat="44.66137" lon="3.04964">
        <ele>1177</ele>
        <time>2019-05-31T09:11:22.123Z</time>
      </trkpt>
      <trkpt lat="44.6614" lon="3.04956">
        <ele>1179</ele>
        <time>2019-05-31T09:11:27.117Z</time>
      </trkpt>
      <trkpt lat="44.66144" lon="3.04948">
        <ele>1179</ele>
        <time>2019-05-31T09:11:32.147Z</time>
      </trkpt>
      <trkpt lat="44.66147" lon="3.04942">
        <ele>1179</ele>
        <time>2019-05-31T09:11:37.147Z</time>
      </trkpt>
      <trkpt lat="44.6615" lon="3.04935">
        <ele>1179</ele>
        <time>2019-05-31T09:11:42.116Z</time>
      </trkpt>
      <trkpt lat="44.66153" lon="3.04928">
        <ele>1176</ele>
        <time>2019-05-31T09:11:46.136Z</time>
      </trkpt>
      <trkpt lat="44.66154" lon="3.04919">
        <ele>1176</ele>
        <time>2019-05-31T09:11:51.179Z</time>
      </trkpt>
      <trkpt lat="44.66155" lon="3.04913">
        <ele>1176</ele>
        <time>2019-05-31T09:11:56.120Z</time>
      </trkpt>
      <trkpt lat="44.66158" lon="3.04906">
        <ele>1176</ele>
        <time>2019-05-31T09:12:00.126Z</time>
      </trkpt>
      <trkpt lat="44.66161" lon="3.04897">
        <ele>1178</ele>
        <time>2019-05-31T09:12:05.162Z</time>
      </trkpt>
      <trkpt lat="44.66162" lon="3.04889">
        <ele>1178</ele>
        <time>2019-05-31T09:12:10.117Z</time>
      </trkpt>
      <trkpt lat="44.66162" lon="3.0488">
        <ele>1178</ele>
        <time>2019-05-31T09:12:15.104Z</time>
      </trkpt>
      <trkpt lat="44.66163" lon="3.04874">
        <ele>1178</ele>
        <time>2019-05-31T09:12:19.149Z</time>
      </trkpt>
      <trkpt lat="44.66163" lon="3.04867">
        <ele>1178</ele>
        <time>2019-05-31T09:12:24.117Z</time>
      </trkpt>
      <trkpt lat="44.66163" lon="3.0486">
        <ele>1178</ele>
        <time>2019-05-31T09:12:28.149Z</time>
      </trkpt>
      <trkpt lat="44.6616" lon="3.0485">
        <ele>1178</ele>
        <time>2019-05-31T09:12:33.128Z</time>
      </trkpt>
      <trkpt lat="44.66159" lon="3.04842">
        <ele>1177</ele>
        <time>2019-05-31T09:12:38.173Z</time>
      </trkpt>
      <trkpt lat="44.66161" lon="3.04837">
        <ele>1177</ele>
        <time>2019-05-31T09:12:43.129Z</time>
      </trkpt>
      <trkpt lat="44.66164" lon="3.04833">
        <ele>1177</ele>
        <time>2019-05-31T09:12:47.134Z</time>
      </trkpt>
      <trkpt lat="44.66163" lon="3.0483">
        <ele>1177</ele>
        <time>2019-05-31T09:12:52.119Z</time>
      </trkpt>
      <trkpt lat="44.66162" lon="3.04825">
        <ele>1177</ele>
        <time>2019-05-31T09:12:56.136Z</time>
      </trkpt>
      <trkpt lat="44.66163" lon="3.04821">
        <ele>1177</ele>
        <time>2019-05-31T09:13:01.141Z</time>
      </trkpt>
      <trkpt lat="44.66163" lon="3.04815">
        <ele>1176</ele>
        <time>2019-05-31T09:13:06.123Z</time>
      </trkpt>
      <trkpt lat="44.66161" lon="3.04809">
        <ele>1176</ele>
        <time>2019-05-31T09:13:11.120Z</time>
      </trkpt>
      <trkpt lat="44.66158" lon="3.04801">
        <ele>1176</ele>
        <time>2019-05-31T09:13:15.126Z</time>
      </trkpt>
      <trkpt lat="44.66156" lon="3.04792">
        <ele>1175</ele>
        <time>2019-05-31T09:13:20.121Z</time>
      </trkpt>
      <trkpt lat="44.66153" lon="3.04785">
        <ele>1175</ele>
        <time>2019-05-31T09:13:25.125Z</time>
      </trkpt>
      <trkpt lat="44.66151" lon="3.04777">
        <ele>1179</ele>
        <time>2019-05-31T09:13:30.125Z</time>
      </trkpt>
      <trkpt lat="44.6615" lon="3.04771">
        <ele>1179</ele>
        <time>2019-05-31T09:13:34.123Z</time>
      </trkpt>
      <trkpt lat="44.66148" lon="3.04762">
        <ele>1177</ele>
        <time>2019-05-31T09:13:39.121Z</time>
      </trkpt>
      <trkpt lat="44.66148" lon="3.04754">
        <ele>1177</ele>
        <time>2019-05-31T09:13:44.155Z</time>
      </trkpt>
      <trkpt lat="44.66146" lon="3.04746">
        <ele>1177</ele>
        <time>2019-05-31T09:13:49.152Z</time>
      </trkpt>
      <trkpt lat="44.66144" lon="3.04739">
        <ele>1177</ele>
        <time>2019-05-31T09:13:54.120Z</time>
      </trkpt>
      <trkpt lat="44.66141" lon="3.04734">
        <ele>1177</ele>
        <time>2019-05-31T09:13:58.121Z</time>
      </trkpt>
      <trkpt lat="44.66141" lon="3.04728">
        <ele>1177</ele>
        <time>2019-05-31T09:14:02.152Z</time>
      </trkpt>
      <trkpt lat="44.66138" lon="3.04719">
        <ele>1177</ele>
        <time>2019-05-31T09:14:07.103Z</time>
      </trkpt>
      <trkpt lat="44.66137" lon="3.04714">
        <ele>1177</ele>
        <time>2019-05-31T09:14:12.132Z</time>
      </trkpt>
      <trkpt lat="44.66137" lon="3.04707">
        <ele>1175</ele>
        <time>2019-05-31T09:14:17.114Z</time>
      </trkpt>
      <trkpt lat="44.66136" lon="3.04702">
        <ele>1175</ele>
        <time>2019-05-31T09:14:21.138Z</time>
      </trkpt>
      <trkpt lat="44.66136" lon="3.04695">
        <ele>1175</ele>
        <time>2019-05-31T09:14:26.116Z</time>
      </trkpt>
      <trkpt lat="44.66137" lon="3.04686">
        <ele>1175</ele>
        <time>2019-05-31T09:14:31.103Z</time>
      </trkpt>
      <trkpt lat="44.66138" lon="3.04681">
        <ele>1175</ele>
        <time>2019-05-31T09:14:35.144Z</time>
      </trkpt>
      <trkpt lat="44.66139" lon="3.04677">
        <ele>1174</ele>
        <time>2019-05-31T09:14:40.117Z</time>
      </trkpt>
      <trkpt lat="44.66138" lon="3.04673">
        <ele>1174</ele>
        <time>2019-05-31T09:14:45.118Z</time>
      </trkpt>
      <trkpt lat="44.6614" lon="3.04667">
        <ele>1174</ele>
        <time>2019-05-31T09:14:55.146Z</time>
      </trkpt>
      <trkpt lat="44.66142" lon="3.04662">
        <ele>1174</ele>
        <time>2019-05-31T09:15:00.150Z</time>
      </trkpt>
      <trkpt lat="44.66142" lon="3.04661">
        <ele>1174</ele>
        <time>2019-05-31T09:15:05.118Z</time>
      </trkpt>
      <trkpt lat="44.66144" lon="3.04657">
        <ele>1174</ele>
        <time>2019-05-31T09:15:10.116Z</time>
      </trkpt>
      <trkpt lat="44.66145" lon="3.04654">
        <ele>1174</ele>
        <time>2019-05-31T09:15:19.114Z</time>
      </trkpt>
      <trkpt lat="44.66146" lon="3.04652">
        <ele>1175</ele>
        <time>2019-05-31T09:15:24.101Z</time>
      </trkpt>
      <trkpt lat="44.66148" lon="3.0465">
        <ele>1175</ele>
        <time>2019-05-31T09:15:28.115Z</time>
      </trkpt>
      <trkpt lat="44.66151" lon="3.04645">
        <ele>1175</ele>
        <time>2019-05-31T09:15:33.110Z</time>
      </trkpt>
      <trkpt lat="44.66152" lon="3.0464">
        <ele>1175</ele>
        <time>2019-05-31T09:15:38.116Z</time>
      </trkpt>
      <trkpt lat="44.66155" lon="3.04639">
        <ele>1174</ele>
        <time>2019-05-31T09:15:43.103Z</time>
      </trkpt>
      <trkpt lat="44.66158" lon="3.04633">
        <ele>1174</ele>
        <time>2019-05-31T09:15:47.118Z</time>
      </trkpt>
      <trkpt lat="44.66162" lon="3.04628">
        <ele>1174</ele>
        <time>2019-05-31T09:15:52.115Z</time>
      </trkpt>
      <trkpt lat="44.66166" lon="3.04627">
        <ele>1174</ele>
        <time>2019-05-31T09:15:57.105Z</time>
      </trkpt>
      <trkpt lat="44.66172" lon="3.04628">
        <ele>1174</ele>
        <time>2019-05-31T09:16:02.137Z</time>
      </trkpt>
      <trkpt lat="44.66175" lon="3.0463">
        <ele>1174</ele>
        <time>2019-05-31T09:16:07.108Z</time>
      </trkpt>
      <trkpt lat="44.66181" lon="3.04635">
        <ele>1174</ele>
        <time>2019-05-31T09:16:12.108Z</time>
      </trkpt>
      <trkpt lat="44.66185" lon="3.04638">
        <ele>1174</ele>
        <time>2019-05-31T09:16:16.132Z</time>
      </trkpt>
      <trkpt lat="44.66192" lon="3.04642">
        <ele>1174</ele>
        <time>2019-05-31T09:16:21.118Z</time>
      </trkpt>
      <trkpt lat="44.66197" lon="3.04647">
        <ele>1174</ele>
        <time>2019-05-31T09:16:25.115Z</time>
      </trkpt>
      <trkpt lat="44.66203" lon="3.04652">
        <ele>1174</ele>
        <time>2019-05-31T09:16:30.102Z</time>
      </trkpt>
      <trkpt lat="44.66209" lon="3.04659">
        <ele>1176</ele>
        <time>2019-05-31T09:16:35.107Z</time>
      </trkpt>
      <trkpt lat="44.66212" lon="3.04662">
        <ele>1176</ele>
        <time>2019-05-31T09:16:39.118Z</time>
      </trkpt>
      <trkpt lat="44.66215" lon="3.04665">
        <ele>1176</ele>
        <time>2019-05-31T09:16:44.133Z</time>
      </trkpt>
      <trkpt lat="44.66221" lon="3.04668">
        <ele>1176</ele>
        <time>2019-05-31T09:16:49.119Z</time>
      </trkpt>
      <trkpt lat="44.66229" lon="3.04674">
        <ele>1176</ele>
        <time>2019-05-31T09:16:54.118Z</time>
      </trkpt>
      <trkpt lat="44.66236" lon="3.04675">
        <ele>1178</ele>
        <time>2019-05-31T09:16:59.102Z</time>
      </trkpt>
      <trkpt lat="44.66241" lon="3.04672">
        <ele>1178</ele>
        <time>2019-05-31T09:17:04.113Z</time>
      </trkpt>
      <trkpt lat="44.66244" lon="3.0467">
        <ele>1178</ele>
        <time>2019-05-31T09:17:09.101Z</time>
      </trkpt>
      <trkpt lat="44.66249" lon="3.04665">
        <ele>1178</ele>
        <time>2019-05-31T09:17:14.117Z</time>
      </trkpt>
      <trkpt lat="44.66252" lon="3.04656">
        <ele>1178</ele>
        <time>2019-05-31T09:17:19.102Z</time>
      </trkpt>
      <trkpt lat="44.66252" lon="3.04649">
        <ele>1180</ele>
        <time>2019-05-31T09:17:24.111Z</time>
      </trkpt>
      <trkpt lat="44.66253" lon="3.04646">
        <ele>1180</ele>
        <time>2019-05-31T09:18:01.115Z</time>
      </trkpt>
      <trkpt lat="44.66251" lon="3.04649">
        <ele>1180</ele>
        <time>2019-05-31T09:18:11.123Z</time>
      </trkpt>
      <trkpt lat="44.66245" lon="3.04654">
        <ele>1178</ele>
        <time>2019-05-31T09:18:16.133Z</time>
      </trkpt>
      <trkpt lat="44.66242" lon="3.04659">
        <ele>1178</ele>
        <time>2019-05-31T09:18:21.124Z</time>
      </trkpt>
      <trkpt lat="44.66239" lon="3.04664">
        <ele>1178</ele>
        <time>2019-05-31T09:18:26.141Z</time>
      </trkpt>
      <trkpt lat="44.66235" lon="3.04665">
        <ele>1176</ele>
        <time>2019-05-31T09:18:31.102Z</time>
      </trkpt>
      <trkpt lat="44.66232" lon="3.04665">
        <ele>1176</ele>
        <time>2019-05-31T09:18:35.101Z</time>
      </trkpt>
      <trkpt lat="44.66227" lon="3.04663">
        <ele>1176</ele>
        <time>2019-05-31T09:18:40.100Z</time>
      </trkpt>
      <trkpt lat="44.66225" lon="3.04658">
        <ele>1176</ele>
        <time>2019-05-31T09:18:44.123Z</time>
      </trkpt>
      <trkpt lat="44.66225" lon="3.04646">
        <ele>1177</ele>
        <time>2019-05-31T09:18:58.125Z</time>
      </trkpt>
      <trkpt lat="44.66224" lon="3.04645">
        <ele>1177</ele>
        <time>2019-05-31T09:19:03.123Z</time>
      </trkpt>
      <trkpt lat="44.66222" lon="3.04643">
        <ele>1177</ele>
        <time>2019-05-31T09:19:07.132Z</time>
      </trkpt>
      <trkpt lat="44.6622" lon="3.04642">
        <ele>1177</ele>
        <time>2019-05-31T09:19:12.102Z</time>
      </trkpt>
      <trkpt lat="44.66217" lon="3.04641">
        <ele>1177</ele>
        <time>2019-05-31T09:19:16.126Z</time>
      </trkpt>
      <trkpt lat="44.6621" lon="3.04641">
        <ele>1177</ele>
        <time>2019-05-31T09:19:21.118Z</time>
      </trkpt>
      <trkpt lat="44.66205" lon="3.04636">
        <ele>1174</ele>
        <time>2019-05-31T09:19:26.145Z</time>
      </trkpt>
      <trkpt lat="44.66202" lon="3.04632">
        <ele>1174</ele>
        <time>2019-05-31T09:19:31.125Z</time>
      </trkpt>
      <trkpt lat="44.662" lon="3.04632">
        <ele>1174</ele>
        <time>2019-05-31T09:19:35.158Z</time>
      </trkpt>
      <trkpt lat="44.66195" lon="3.04628">
        <ele>1174</ele>
        <time>2019-05-31T09:19:40.119Z</time>
      </trkpt>
      <trkpt lat="44.6619" lon="3.04625">
        <ele>1175</ele>
        <time>2019-05-31T09:19:45.124Z</time>
      </trkpt>
      <trkpt lat="44.66187" lon="3.04622">
        <ele>1175</ele>
        <time>2019-05-31T09:19:50.103Z</time>
      </trkpt>
      <trkpt lat="44.66184" lon="3.04622">
        <ele>1175</ele>
        <time>2019-05-31T09:19:54.124Z</time>
      </trkpt>
      <trkpt lat="44.66179" lon="3.04622">
        <ele>1175</ele>
        <time>2019-05-31T09:19:59.115Z</time>
      </trkpt>
      <trkpt lat="44.66175" lon="3.0462">
        <ele>1175</ele>
        <time>2019-05-31T09:20:03.119Z</time>
      </trkpt>
      <trkpt lat="44.6617" lon="3.04618">
        <ele>1175</ele>
        <time>2019-05-31T09:20:08.119Z</time>
      </trkpt>
      <trkpt lat="44.66169" lon="3.04617">
        <ele>1175</ele>
        <time>2019-05-31T09:20:12.149Z</time>
      </trkpt>
      <trkpt lat="44.66166" lon="3.0462">
        <ele>1175</ele>
        <time>2019-05-31T09:20:22.119Z</time>
      </trkpt>
      <trkpt lat="44.66161" lon="3.04621">
        <ele>1175</ele>
        <time>2019-05-31T09:20:27.122Z</time>
      </trkpt>
      <trkpt lat="44.66159" lon="3.04625">
        <ele>1175</ele>
        <time>2019-05-31T09:20:32.121Z</time>
      </trkpt>
      <trkpt lat="44.66157" lon="3.04628">
        <ele>1174</ele>
        <time>2019-05-31T09:20:37.120Z</time>
      </trkpt>
      <trkpt lat="44.66153" lon="3.04632">
        <ele>1175</ele>
        <time>2019-05-31T09:23:18.121Z</time>
      </trkpt>
      <trkpt lat="44.66151" lon="3.0463">
        <ele>1175</ele>
        <time>2019-05-31T09:23:22.123Z</time>
      </trkpt>
      <trkpt lat="44.6615" lon="3.04626">
        <ele>1175</ele>
        <time>2019-05-31T09:23:27.121Z</time>
      </trkpt>
      <trkpt lat="44.66148" lon="3.04619">
        <ele>1177</ele>
        <time>2019-05-31T09:23:32.114Z</time>
      </trkpt>
      <trkpt lat="44.66144" lon="3.04617">
        <ele>1177</ele>
        <time>2019-05-31T09:23:37.121Z</time>
      </trkpt>
      <trkpt lat="44.66139" lon="3.0462">
        <ele>1177</ele>
        <time>2019-05-31T09:23:46.140Z</time>
      </trkpt>
      <trkpt lat="44.66139" lon="3.04622">
        <ele>1177</ele>
        <time>2019-05-31T09:23:51.123Z</time>
      </trkpt>
      <trkpt lat="44.66139" lon="3.04626">
        <ele>1175</ele>
        <time>2019-05-31T09:23:56.118Z</time>
      </trkpt>
      <trkpt lat="44.66138" lon="3.04628">
        <ele>1175</ele>
        <time>2019-05-31T09:24:40.121Z</time>
      </trkpt>
      <trkpt lat="44.66137" lon="3.04631">
        <ele>1175</ele>
        <time>2019-05-31T09:26:40.124Z</time>
      </trkpt>
      <trkpt lat="44.66135" lon="3.04639">
        <ele>1175</ele>
        <time>2019-05-31T09:26:45.148Z</time>
      </trkpt>
      <trkpt lat="44.66133" lon="3.04644">
        <ele>1175</ele>
        <time>2019-05-31T09:26:50.117Z</time>
      </trkpt>
      <trkpt lat="44.66131" lon="3.0465">
        <ele>1175</ele>
        <time>2019-05-31T09:26:55.122Z</time>
      </trkpt>
      <trkpt lat="44.66131" lon="3.04654">
        <ele>1174</ele>
        <time>2019-05-31T09:27:00.124Z</time>
      </trkpt>
      <trkpt lat="44.66132" lon="3.04654">
        <ele>1174</ele>
        <time>2019-05-31T09:27:52.122Z</time>
      </trkpt>
      <trkpt lat="44.66133" lon="3.04651">
        <ele>1175</ele>
        <time>2019-05-31T09:27:57.123Z</time>
      </trkpt>
      <trkpt lat="44.66133" lon="3.04647">
        <ele>1175</ele>
        <time>2019-05-31T09:28:02.125Z</time>
      </trkpt>
      <trkpt lat="44.66135" lon="3.04643">
        <ele>1175</ele>
        <time>2019-05-31T09:28:07.126Z</time>
      </trkpt>
      <trkpt lat="44.66135" lon="3.04642">
        <ele>1175</ele>
        <time>2019-05-31T09:28:12.128Z</time>
      </trkpt>
      <trkpt lat="44.66135" lon="3.04642">
        <ele>1175</ele>
        <time>2019-05-31T10:09:34.133Z</time>
      </trkpt>
      <trkpt lat="44.66133" lon="3.04646">
        <ele>1175</ele>
        <time>2019-05-31T10:09:39.119Z</time>
      </trkpt>
      <trkpt lat="44.66132" lon="3.04648">
        <ele>1175</ele>
        <time>2019-05-31T10:09:43.117Z</time>
      </trkpt>
      <trkpt lat="44.66131" lon="3.04649">
        <ele>1175</ele>
        <time>2019-05-31T10:09:48.119Z</time>
      </trkpt>
      <trkpt lat="44.66131" lon="3.04652">
        <ele>1175</ele>
        <time>2019-05-31T10:09:57.124Z</time>
      </trkpt>
      <trkpt lat="44.6613" lon="3.04654">
        <ele>1174</ele>
        <time>2019-05-31T10:10:16.126Z</time>
      </trkpt>
      <trkpt lat="44.66129" lon="3.04656">
        <ele>1174</ele>
        <time>2019-05-31T10:10:21.120Z</time>
      </trkpt>
      <trkpt lat="44.66129" lon="3.04659">
        <ele>1174</ele>
        <time>2019-05-31T10:10:25.144Z</time>
      </trkpt>
      <trkpt lat="44.66129" lon="3.0466">
        <ele>1174</ele>
        <time>2019-05-31T10:10:30.146Z</time>
      </trkpt>
      <trkpt lat="44.66126" lon="3.04669">
        <ele>1174</ele>
        <time>2019-05-31T10:10:39.145Z</time>
      </trkpt>
      <trkpt lat="44.66125" lon="3.04673">
        <ele>1177</ele>
        <time>2019-05-31T10:10:44.133Z</time>
      </trkpt>
      <trkpt lat="44.66123" lon="3.04679">
        <ele>1177</ele>
        <time>2019-05-31T10:10:49.119Z</time>
      </trkpt>
      <trkpt lat="44.66123" lon="3.0468">
        <ele>1177</ele>
        <time>2019-05-31T10:10:58.126Z</time>
      </trkpt>
      <trkpt lat="44.66123" lon="3.04691">
        <ele>1178</ele>
        <time>2019-05-31T10:11:03.149Z</time>
      </trkpt>
      <trkpt lat="44.66124" lon="3.047">
        <ele>1178</ele>
        <time>2019-05-31T10:11:12.130Z</time>
      </trkpt>
      <trkpt lat="44.66124" lon="3.04703">
        <ele>1178</ele>
        <time>2019-05-31T10:11:17.099Z</time>
      </trkpt>
      <trkpt lat="44.66124" lon="3.04708">
        <ele>1178</ele>
        <time>2019-05-31T10:11:21.116Z</time>
      </trkpt>
      <trkpt lat="44.66123" lon="3.04711">
        <ele>1180</ele>
        <time>2019-05-31T10:11:25.153Z</time>
      </trkpt>
      <trkpt lat="44.66123" lon="3.04715">
        <ele>1180</ele>
        <time>2019-05-31T10:11:30.129Z</time>
      </trkpt>
      <trkpt lat="44.66125" lon="3.04722">
        <ele>1180</ele>
        <time>2019-05-31T10:11:35.118Z</time>
      </trkpt>
      <trkpt lat="44.66127" lon="3.04729">
        <ele>1177</ele>
        <time>2019-05-31T10:11:40.121Z</time>
      </trkpt>
      <trkpt lat="44.66126" lon="3.04734">
        <ele>1177</ele>
        <time>2019-05-31T10:11:44.156Z</time>
      </trkpt>
      <trkpt lat="44.66128" lon="3.0474">
        <ele>1177</ele>
        <time>2019-05-31T10:11:49.121Z</time>
      </trkpt>
      <trkpt lat="44.6613" lon="3.04748">
        <ele>1177</ele>
        <time>2019-05-31T10:11:54.153Z</time>
      </trkpt>
      <trkpt lat="44.66132" lon="3.04756">
        <ele>1177</ele>
        <time>2019-05-31T10:11:59.096Z</time>
      </trkpt>
      <trkpt lat="44.66135" lon="3.04763">
        <ele>1177</ele>
        <time>2019-05-31T10:12:03.120Z</time>
      </trkpt>
      <trkpt lat="44.66138" lon="3.04771">
        <ele>1179</ele>
        <time>2019-05-31T10:12:08.120Z</time>
      </trkpt>
      <trkpt lat="44.6614" lon="3.04774">
        <ele>1179</ele>
        <time>2019-05-31T10:12:12.147Z</time>
      </trkpt>
      <trkpt lat="44.66142" lon="3.04781">
        <ele>1179</ele>
        <time>2019-05-31T10:12:17.098Z</time>
      </trkpt>
      <trkpt lat="44.66145" lon="3.04787">
        <ele>1179</ele>
        <time>2019-05-31T10:12:21.122Z</time>
      </trkpt>
      <trkpt lat="44.66147" lon="3.04791">
        <ele>1179</ele>
        <time>2019-05-31T10:12:25.155Z</time>
      </trkpt>
      <trkpt lat="44.66146" lon="3.04798">
        <ele>1180</ele>
        <time>2019-05-31T10:12:30.120Z</time>
      </trkpt>
      <trkpt lat="44.66144" lon="3.04805">
        <ele>1180</ele>
        <time>2019-05-31T10:12:35.121Z</time>
      </trkpt>
      <trkpt lat="44.66147" lon="3.0481">
        <ele>1180</ele>
        <time>2019-05-31T10:12:40.123Z</time>
      </trkpt>
      <trkpt lat="44.66149" lon="3.04816">
        <ele>1180</ele>
        <time>2019-05-31T10:12:44.156Z</time>
      </trkpt>
      <trkpt lat="44.66152" lon="3.04823">
        <ele>1181</ele>
        <time>2019-05-31T10:12:49.123Z</time>
      </trkpt>
      <trkpt lat="44.66154" lon="3.04827">
        <ele>1177</ele>
        <time>2019-05-31T10:12:53.145Z</time>
      </trkpt>
      <trkpt lat="44.66155" lon="3.04834">
        <ele>1177</ele>
        <time>2019-05-31T10:12:58.126Z</time>
      </trkpt>
      <trkpt lat="44.66156" lon="3.04841">
        <ele>1177</ele>
        <time>2019-05-31T10:13:03.120Z</time>
      </trkpt>
      <trkpt lat="44.66158" lon="3.04847">
        <ele>1177</ele>
        <time>2019-05-31T10:13:08.124Z</time>
      </trkpt>
      <trkpt lat="44.66158" lon="3.04852">
        <ele>1178</ele>
        <time>2019-05-31T10:13:12.151Z</time>
      </trkpt>
      <trkpt lat="44.66159" lon="3.04861">
        <ele>1178</ele>
        <time>2019-05-31T10:13:17.108Z</time>
      </trkpt>
      <trkpt lat="44.66159" lon="3.0487">
        <ele>1178</ele>
        <time>2019-05-31T10:13:22.102Z</time>
      </trkpt>
      <trkpt lat="44.66159" lon="3.04876">
        <ele>1178</ele>
        <time>2019-05-31T10:13:27.143Z</time>
      </trkpt>
      <trkpt lat="44.66159" lon="3.04882">
        <ele>1178</ele>
        <time>2019-05-31T10:13:32.136Z</time>
      </trkpt>
      <trkpt lat="44.66159" lon="3.0489">
        <ele>1178</ele>
        <time>2019-05-31T10:13:37.102Z</time>
      </trkpt>
      <trkpt lat="44.66159" lon="3.04896">
        <ele>1178</ele>
        <time>2019-05-31T10:13:41.144Z</time>
      </trkpt>
      <trkpt lat="44.66157" lon="3.04904">
        <ele>1176</ele>
        <time>2019-05-31T10:13:46.100Z</time>
      </trkpt>
      <trkpt lat="44.66156" lon="3.04909">
        <ele>1176</ele>
        <time>2019-05-31T10:13:50.142Z</time>
      </trkpt>
      <trkpt lat="44.66157" lon="3.04918">
        <ele>1176</ele>
        <time>2019-05-31T10:13:55.144Z</time>
      </trkpt>
      <trkpt lat="44.66156" lon="3.04924">
        <ele>1176</ele>
        <time>2019-05-31T10:14:00.137Z</time>
      </trkpt>
      <trkpt lat="44.66153" lon="3.04929">
        <ele>1181</ele>
        <time>2019-05-31T10:14:05.113Z</time>
      </trkpt>
      <trkpt lat="44.66148" lon="3.04934">
        <ele>1179</ele>
        <time>2019-05-31T10:14:10.101Z</time>
      </trkpt>
      <trkpt lat="44.66147" lon="3.04939">
        <ele>1179</ele>
        <time>2019-05-31T10:14:14.105Z</time>
      </trkpt>
      <trkpt lat="44.66145" lon="3.04945">
        <ele>1179</ele>
        <time>2019-05-31T10:14:18.128Z</time>
      </trkpt>
      <trkpt lat="44.66141" lon="3.0495">
        <ele>1179</ele>
        <time>2019-05-31T10:14:23.130Z</time>
      </trkpt>
      <trkpt lat="44.66136" lon="3.04953">
        <ele>1179</ele>
        <time>2019-05-31T10:14:27.146Z</time>
      </trkpt>
      <trkpt lat="44.66132" lon="3.04958">
        <ele>1179</ele>
        <time>2019-05-31T10:14:32.114Z</time>
      </trkpt>
      <trkpt lat="44.66129" lon="3.04964">
        <ele>1177</ele>
        <time>2019-05-31T10:14:37.112Z</time>
      </trkpt>
      <trkpt lat="44.66125" lon="3.04967">
        <ele>1177</ele>
        <time>2019-05-31T10:14:41.138Z</time>
      </trkpt>
      <trkpt lat="44.66124" lon="3.04969">
        <ele>1183</ele>
        <time>2019-05-31T10:14:45.146Z</time>
      </trkpt>
      <trkpt lat="44.66121" lon="3.04974">
        <ele>1183</ele>
        <time>2019-05-31T10:14:50.139Z</time>
      </trkpt>
      <trkpt lat="44.66117" lon="3.04979">
        <ele>1183</ele>
        <time>2019-05-31T10:14:55.130Z</time>
      </trkpt>
      <trkpt lat="44.66112" lon="3.04985">
        <ele>1183</ele>
        <time>2019-05-31T10:15:00.102Z</time>
      </trkpt>
      <trkpt lat="44.66109" lon="3.04992">
        <ele>1181</ele>
        <time>2019-05-31T10:15:04.129Z</time>
      </trkpt>
      <trkpt lat="44.66105" lon="3.04996">
        <ele>1181</ele>
        <time>2019-05-31T10:15:09.131Z</time>
      </trkpt>
      <trkpt lat="44.66099" lon="3.05001">
        <ele>1181</ele>
        <time>2019-05-31T10:15:14.144Z</time>
      </trkpt>
      <trkpt lat="44.66096" lon="3.05006">
        <ele>1184</ele>
        <time>2019-05-31T10:15:19.101Z</time>
      </trkpt>
      <trkpt lat="44.66093" lon="3.0501">
        <ele>1184</ele>
        <time>2019-05-31T10:15:23.142Z</time>
      </trkpt>
      <trkpt lat="44.66088" lon="3.05016">
        <ele>1182</ele>
        <time>2019-05-31T10:15:28.112Z</time>
      </trkpt>
      <trkpt lat="44.66087" lon="3.05019">
        <ele>1182</ele>
        <time>2019-05-31T10:15:33.110Z</time>
      </trkpt>
      <trkpt lat="44.66085" lon="3.05021">
        <ele>1182</ele>
        <time>2019-05-31T10:15:37.136Z</time>
      </trkpt>
      <trkpt lat="44.6608" lon="3.05025">
        <ele>1182</ele>
        <time>2019-05-31T10:15:42.148Z</time>
      </trkpt>
      <trkpt lat="44.66073" lon="3.05032">
        <ele>1182</ele>
        <time>2019-05-31T10:15:47.130Z</time>
      </trkpt>
      <trkpt lat="44.66066" lon="3.05036">
        <ele>1184</ele>
        <time>2019-05-31T10:15:52.144Z</time>
      </trkpt>
      <trkpt lat="44.66063" lon="3.05041">
        <ele>1184</ele>
        <time>2019-05-31T10:15:57.102Z</time>
      </trkpt>
      <trkpt lat="44.66059" lon="3.05045">
        <ele>1183</ele>
        <time>2019-05-31T10:16:01.129Z</time>
      </trkpt>
      <trkpt lat="44.66055" lon="3.0505">
        <ele>1183</ele>
        <time>2019-05-31T10:16:06.103Z</time>
      </trkpt>
      <trkpt lat="44.66052" lon="3.05056">
        <ele>1183</ele>
        <time>2019-05-31T10:16:10.129Z</time>
      </trkpt>
      <trkpt lat="44.66047" lon="3.05062">
        <ele>1183</ele>
        <time>2019-05-31T10:16:15.130Z</time>
      </trkpt>
      <trkpt lat="44.66044" lon="3.05066">
        <ele>1183</ele>
        <time>2019-05-31T10:16:19.138Z</time>
      </trkpt>
      <trkpt lat="44.66039" lon="3.05072">
        <ele>1186</ele>
        <time>2019-05-31T10:16:24.112Z</time>
      </trkpt>
      <trkpt lat="44.66035" lon="3.05075">
        <ele>1186</ele>
        <time>2019-05-31T10:16:29.141Z</time>
      </trkpt>
      <trkpt lat="44.66031" lon="3.0508">
        <ele>1186</ele>
        <time>2019-05-31T10:16:34.137Z</time>
      </trkpt>
      <trkpt lat="44.66027" lon="3.05088">
        <ele>1186</ele>
        <time>2019-05-31T10:16:39.111Z</time>
      </trkpt>
      <trkpt lat="44.66025" lon="3.05091">
        <ele>1186</ele>
        <time>2019-05-31T10:16:43.129Z</time>
      </trkpt>
      <trkpt lat="44.66023" lon="3.05097">
        <ele>1186</ele>
        <time>2019-05-31T10:16:48.129Z</time>
      </trkpt>
      <trkpt lat="44.66019" lon="3.05102">
        <ele>1184</ele>
        <time>2019-05-31T10:16:52.142Z</time>
      </trkpt>
      <trkpt lat="44.66014" lon="3.05107">
        <ele>1185</ele>
        <time>2019-05-31T10:16:57.101Z</time>
      </trkpt>
      <trkpt lat="44.66009" lon="3.05112">
        <ele>1185</ele>
        <time>2019-05-31T10:17:01.135Z</time>
      </trkpt>
      <trkpt lat="44.66005" lon="3.05117">
        <ele>1185</ele>
        <time>2019-05-31T10:17:06.103Z</time>
      </trkpt>
      <trkpt lat="44.66" lon="3.05124">
        <ele>1185</ele>
        <time>2019-05-31T10:17:11.110Z</time>
      </trkpt>
      <trkpt lat="44.65996" lon="3.05128">
        <ele>1184</ele>
        <time>2019-05-31T10:17:16.098Z</time>
      </trkpt>
      <trkpt lat="44.65992" lon="3.05131">
        <ele>1184</ele>
        <time>2019-05-31T10:17:20.106Z</time>
      </trkpt>
      <trkpt lat="44.65987" lon="3.05137">
        <ele>1184</ele>
        <time>2019-05-31T10:17:25.105Z</time>
      </trkpt>
      <trkpt lat="44.65984" lon="3.05142">
        <ele>1185</ele>
        <time>2019-05-31T10:17:29.112Z</time>
      </trkpt>
      <trkpt lat="44.65982" lon="3.05146">
        <ele>1185</ele>
        <time>2019-05-31T10:17:34.111Z</time>
      </trkpt>
      <trkpt lat="44.65977" lon="3.0515">
        <ele>1185</ele>
        <time>2019-05-31T10:17:39.106Z</time>
      </trkpt>
      <trkpt lat="44.65971" lon="3.05153">
        <ele>1185</ele>
        <time>2019-05-31T10:17:44.100Z</time>
      </trkpt>
      <trkpt lat="44.65968" lon="3.05156">
        <ele>1186</ele>
        <time>2019-05-31T10:17:48.144Z</time>
      </trkpt>
      <trkpt lat="44.65966" lon="3.05161">
        <ele>1186</ele>
        <time>2019-05-31T10:17:53.105Z</time>
      </trkpt>
      <trkpt lat="44.65961" lon="3.05167">
        <ele>1186</ele>
        <time>2019-05-31T10:17:58.109Z</time>
      </trkpt>
      <trkpt lat="44.65956" lon="3.05171">
        <ele>1187</ele>
        <time>2019-05-31T10:18:03.105Z</time>
      </trkpt>
      <trkpt lat="44.65952" lon="3.05172">
        <ele>1187</ele>
        <time>2019-05-31T10:18:08.117Z</time>
      </trkpt>
      <trkpt lat="44.6595" lon="3.05172">
        <ele>1187</ele>
        <time>2019-05-31T10:18:13.139Z</time>
      </trkpt>
      <trkpt lat="44.6595" lon="3.05173">
        <ele>1187</ele>
        <time>2019-05-31T10:18:18.132Z</time>
      </trkpt>
      <trkpt lat="44.65946" lon="3.05181">
        <ele>1188</ele>
        <time>2019-05-31T10:18:23.141Z</time>
      </trkpt>
      <trkpt lat="44.65941" lon="3.05185">
        <ele>1188</ele>
        <time>2019-05-31T10:18:28.104Z</time>
      </trkpt>
      <trkpt lat="44.65941" lon="3.05187">
        <ele>1188</ele>
        <time>2019-05-31T10:18:32.125Z</time>
      </trkpt>
      <trkpt lat="44.6594" lon="3.05189">
        <ele>1188</ele>
        <time>2019-05-31T10:18:41.143Z</time>
      </trkpt>
      <trkpt lat="44.6594" lon="3.05191">
        <ele>1188</ele>
        <time>2019-05-31T10:18:46.111Z</time>
      </trkpt>
      <trkpt lat="44.65935" lon="3.05196">
        <ele>1188</ele>
        <time>2019-05-31T10:18:51.106Z</time>
      </trkpt>
      <trkpt lat="44.65932" lon="3.05199">
        <ele>1188</ele>
        <time>2019-05-31T10:18:55.118Z</time>
      </trkpt>
      <trkpt lat="44.65928" lon="3.052">
        <ele>1189</ele>
        <time>2019-05-31T10:19:00.112Z</time>
      </trkpt>
      <trkpt lat="44.65925" lon="3.05205">
        <ele>1189</ele>
        <time>2019-05-31T10:19:05.100Z</time>
      </trkpt>
      <trkpt lat="44.65922" lon="3.0521">
        <ele>1190</ele>
        <time>2019-05-31T10:19:09.133Z</time>
      </trkpt>
      <trkpt lat="44.65921" lon="3.05216">
        <ele>1190</ele>
        <time>2019-05-31T10:19:14.104Z</time>
      </trkpt>
      <trkpt lat="44.65921" lon="3.05223">
        <ele>1190</ele>
        <time>2019-05-31T10:19:19.112Z</time>
      </trkpt>
      <trkpt lat="44.65923" lon="3.05231">
        <ele>1190</ele>
        <time>2019-05-31T10:19:24.150Z</time>
      </trkpt>
      <trkpt lat="44.65925" lon="3.05238">
        <ele>1191</ele>
        <time>2019-05-31T10:19:29.128Z</time>
      </trkpt>
      <trkpt lat="44.65924" lon="3.05246">
        <ele>1191</ele>
        <time>2019-05-31T10:19:34.100Z</time>
      </trkpt>
      <trkpt lat="44.65924" lon="3.05251">
        <ele>1191</ele>
        <time>2019-05-31T10:19:38.130Z</time>
      </trkpt>
      <trkpt lat="44.65926" lon="3.0526">
        <ele>1191</ele>
        <time>2019-05-31T10:19:43.101Z</time>
      </trkpt>
      <trkpt lat="44.65927" lon="3.05265">
        <ele>1191</ele>
        <time>2019-05-31T10:19:47.119Z</time>
      </trkpt>
      <trkpt lat="44.65928" lon="3.05268">
        <ele>1191</ele>
        <time>2019-05-31T10:19:52.121Z</time>
      </trkpt>
      <trkpt lat="44.65929" lon="3.05272">
        <ele>1191</ele>
        <time>2019-05-31T10:19:56.123Z</time>
      </trkpt>
      <trkpt lat="44.6593" lon="3.05277">
        <ele>1191</ele>
        <time>2019-05-31T10:20:01.116Z</time>
      </trkpt>
      <trkpt lat="44.65932" lon="3.05282">
        <ele>1191</ele>
        <time>2019-05-31T10:20:06.165Z</time>
      </trkpt>
      <trkpt lat="44.65933" lon="3.05288">
        <ele>1191</ele>
        <time>2019-05-31T10:20:11.121Z</time>
      </trkpt>
      <trkpt lat="44.65933" lon="3.05297">
        <ele>1191</ele>
        <time>2019-05-31T10:20:16.123Z</time>
      </trkpt>
      <trkpt lat="44.65934" lon="3.05306">
        <ele>1191</ele>
        <time>2019-05-31T10:20:21.119Z</time>
      </trkpt>
      <trkpt lat="44.65935" lon="3.05313">
        <ele>1191</ele>
        <time>2019-05-31T10:20:25.140Z</time>
      </trkpt>
      <trkpt lat="44.65936" lon="3.05319">
        <ele>1191</ele>
        <time>2019-05-31T10:20:30.140Z</time>
      </trkpt>
      <trkpt lat="44.65936" lon="3.05325">
        <ele>1192</ele>
        <time>2019-05-31T10:20:35.115Z</time>
      </trkpt>
      <trkpt lat="44.65934" lon="3.05334">
        <ele>1192</ele>
        <time>2019-05-31T10:20:40.123Z</time>
      </trkpt>
      <trkpt lat="44.65932" lon="3.05339">
        <ele>1192</ele>
        <time>2019-05-31T10:20:44.146Z</time>
      </trkpt>
      <trkpt lat="44.65929" lon="3.05346">
        <ele>1195</ele>
        <time>2019-05-31T10:20:49.117Z</time>
      </trkpt>
      <trkpt lat="44.65927" lon="3.05351">
        <ele>1195</ele>
        <time>2019-05-31T10:20:53.123Z</time>
      </trkpt>
      <trkpt lat="44.65925" lon="3.05358">
        <ele>1195</ele>
        <time>2019-05-31T10:20:58.118Z</time>
      </trkpt>
      <trkpt lat="44.65923" lon="3.05365">
        <ele>1195</ele>
        <time>2019-05-31T10:21:03.121Z</time>
      </trkpt>
      <trkpt lat="44.65919" lon="3.05372">
        <ele>1195</ele>
        <time>2019-05-31T10:21:08.145Z</time>
      </trkpt>
      <trkpt lat="44.65917" lon="3.05378">
        <ele>1196</ele>
        <time>2019-05-31T10:21:12.146Z</time>
      </trkpt>
      <trkpt lat="44.65914" lon="3.05383">
        <ele>1196</ele>
        <time>2019-05-31T10:21:17.118Z</time>
      </trkpt>
      <trkpt lat="44.6591" lon="3.05388">
        <ele>1196</ele>
        <time>2019-05-31T10:21:22.123Z</time>
      </trkpt>
      <trkpt lat="44.65906" lon="3.05392">
        <ele>1196</ele>
        <time>2019-05-31T10:21:27.118Z</time>
      </trkpt>
      <trkpt lat="44.65903" lon="3.05395">
        <ele>1196</ele>
        <time>2019-05-31T10:21:31.127Z</time>
      </trkpt>
      <trkpt lat="44.659" lon="3.05401">
        <ele>1197</ele>
        <time>2019-05-31T10:21:36.118Z</time>
      </trkpt>
      <trkpt lat="44.65898" lon="3.05406">
        <ele>1198</ele>
        <time>2019-05-31T10:21:40.140Z</time>
      </trkpt>
      <trkpt lat="44.65896" lon="3.05413">
        <ele>1198</ele>
        <time>2019-05-31T10:21:45.116Z</time>
      </trkpt>
      <trkpt lat="44.65895" lon="3.05418">
        <ele>1198</ele>
        <time>2019-05-31T10:21:49.150Z</time>
      </trkpt>
      <trkpt lat="44.65894" lon="3.05424">
        <ele>1198</ele>
        <time>2019-05-31T10:21:54.119Z</time>
      </trkpt>
      <trkpt lat="44.65893" lon="3.05429">
        <ele>1198</ele>
        <time>2019-05-31T10:21:59.121Z</time>
      </trkpt>
      <trkpt lat="44.65892" lon="3.05435">
        <ele>1200</ele>
        <time>2019-05-31T10:22:04.121Z</time>
      </trkpt>
      <trkpt lat="44.6589" lon="3.05439">
        <ele>1200</ele>
        <time>2019-05-31T10:22:08.123Z</time>
      </trkpt>
      <trkpt lat="44.65889" lon="3.05444">
        <ele>1200</ele>
        <time>2019-05-31T10:22:13.122Z</time>
      </trkpt>
      <trkpt lat="44.6589" lon="3.0545">
        <ele>1200</ele>
        <time>2019-05-31T10:22:18.122Z</time>
      </trkpt>
      <trkpt lat="44.65889" lon="3.05455">
        <ele>1200</ele>
        <time>2019-05-31T10:22:23.123Z</time>
      </trkpt>
      <trkpt lat="44.65885" lon="3.05462">
        <ele>1201</ele>
        <time>2019-05-31T10:22:28.136Z</time>
      </trkpt>
      <trkpt lat="44.65882" lon="3.05468">
        <ele>1201</ele>
        <time>2019-05-31T10:22:33.147Z</time>
      </trkpt>
      <trkpt lat="44.65879" lon="3.05473">
        <ele>1201</ele>
        <time>2019-05-31T10:22:38.122Z</time>
      </trkpt>
      <trkpt lat="44.65875" lon="3.05479">
        <ele>1201</ele>
        <time>2019-05-31T10:22:43.120Z</time>
      </trkpt>
      <trkpt lat="44.65872" lon="3.05485">
        <ele>1202</ele>
        <time>2019-05-31T10:22:48.120Z</time>
      </trkpt>
      <trkpt lat="44.6587" lon="3.05491">
        <ele>1203</ele>
        <time>2019-05-31T10:22:53.115Z</time>
      </trkpt>
      <trkpt lat="44.65867" lon="3.05497">
        <ele>1203</ele>
        <time>2019-05-31T10:22:58.134Z</time>
      </trkpt>
      <trkpt lat="44.65864" lon="3.05503">
        <ele>1203</ele>
        <time>2019-05-31T10:23:03.123Z</time>
      </trkpt>
      <trkpt lat="44.65862" lon="3.05508">
        <ele>1203</ele>
        <time>2019-05-31T10:23:07.123Z</time>
      </trkpt>
      <trkpt lat="44.65861" lon="3.0551">
        <ele>1203</ele>
        <time>2019-05-31T10:23:12.157Z</time>
      </trkpt>
      <trkpt lat="44.65859" lon="3.05516">
        <ele>1203</ele>
        <time>2019-05-31T10:23:17.131Z</time>
      </trkpt>
      <trkpt lat="44.65857" lon="3.05521">
        <ele>1203</ele>
        <time>2019-05-31T10:23:21.154Z</time>
      </trkpt>
      <trkpt lat="44.65856" lon="3.05529">
        <ele>1203</ele>
        <time>2019-05-31T10:23:26.142Z</time>
      </trkpt>
      <trkpt lat="44.65854" lon="3.05535">
        <ele>1203</ele>
        <time>2019-05-31T10:23:31.156Z</time>
      </trkpt>
      <trkpt lat="44.65852" lon="3.05541">
        <ele>1203</ele>
        <time>2019-05-31T10:23:36.131Z</time>
      </trkpt>
      <trkpt lat="44.65852" lon="3.05546">
        <ele>1203</ele>
        <time>2019-05-31T10:23:41.114Z</time>
      </trkpt>
      <trkpt lat="44.65851" lon="3.05554">
        <ele>1203</ele>
        <time>2019-05-31T10:23:45.149Z</time>
      </trkpt>
      <trkpt lat="44.6585" lon="3.05561">
        <ele>1203</ele>
        <time>2019-05-31T10:23:50.124Z</time>
      </trkpt>
      <trkpt lat="44.6585" lon="3.05568">
        <ele>1203</ele>
        <time>2019-05-31T10:23:55.118Z</time>
      </trkpt>
      <trkpt lat="44.65849" lon="3.05573">
        <ele>1203</ele>
        <time>2019-05-31T10:23:59.126Z</time>
      </trkpt>
      <trkpt lat="44.6585" lon="3.05581">
        <ele>1203</ele>
        <time>2019-05-31T10:24:04.118Z</time>
      </trkpt>
      <trkpt lat="44.65849" lon="3.05589">
        <ele>1203</ele>
        <time>2019-05-31T10:24:09.116Z</time>
      </trkpt>
      <trkpt lat="44.65849" lon="3.05594">
        <ele>1203</ele>
        <time>2019-05-31T10:24:13.129Z</time>
      </trkpt>
      <trkpt lat="44.65848" lon="3.05601">
        <ele>1203</ele>
        <time>2019-05-31T10:24:18.123Z</time>
      </trkpt>
      <trkpt lat="44.65848" lon="3.05608">
        <ele>1203</ele>
        <time>2019-05-31T10:24:23.172Z</time>
      </trkpt>
      <trkpt lat="44.65849" lon="3.05615">
        <ele>1203</ele>
        <time>2019-05-31T10:24:28.119Z</time>
      </trkpt>
      <trkpt lat="44.65849" lon="3.05622">
        <ele>1203</ele>
        <time>2019-05-31T10:24:33.138Z</time>
      </trkpt>
      <trkpt lat="44.65849" lon="3.05628">
        <ele>1205</ele>
        <time>2019-05-31T10:24:38.138Z</time>
      </trkpt>
      <trkpt lat="44.65849" lon="3.05632">
        <ele>1205</ele>
        <time>2019-05-31T10:24:42.170Z</time>
      </trkpt>
      <trkpt lat="44.65846" lon="3.05639">
        <ele>1205</ele>
        <time>2019-05-31T10:24:47.111Z</time>
      </trkpt>
      <trkpt lat="44.65843" lon="3.05644">
        <ele>1205</ele>
        <time>2019-05-31T10:24:51.120Z</time>
      </trkpt>
      <trkpt lat="44.65841" lon="3.05649">
        <ele>1205</ele>
        <time>2019-05-31T10:24:56.119Z</time>
      </trkpt>
      <trkpt lat="44.65839" lon="3.05653">
        <ele>1205</ele>
        <time>2019-05-31T10:25:00.122Z</time>
      </trkpt>
      <trkpt lat="44.65834" lon="3.05656">
        <ele>1207</ele>
        <time>2019-05-31T10:25:05.140Z</time>
      </trkpt>
      <trkpt lat="44.65832" lon="3.05662">
        <ele>1207</ele>
        <time>2019-05-31T10:25:10.124Z</time>
      </trkpt>
      <trkpt lat="44.6583" lon="3.05663">
        <ele>1207</ele>
        <time>2019-05-31T10:25:15.124Z</time>
      </trkpt>
      <trkpt lat="44.65828" lon="3.05666">
        <ele>1207</ele>
        <time>2019-05-31T10:25:25.126Z</time>
      </trkpt>
      <trkpt lat="44.65823" lon="3.05672">
        <ele>1207</ele>
        <time>2019-05-31T10:25:30.128Z</time>
      </trkpt>
      <trkpt lat="44.65819" lon="3.05677">
        <ele>1207</ele>
        <time>2019-05-31T10:25:35.124Z</time>
      </trkpt>
      <trkpt lat="44.65815" lon="3.05682">
        <ele>1211</ele>
        <time>2019-05-31T10:25:40.124Z</time>
      </trkpt>
      <trkpt lat="44.65813" lon="3.05686">
        <ele>1211</ele>
        <time>2019-05-31T10:25:44.144Z</time>
      </trkpt>
      <trkpt lat="44.6581" lon="3.05688">
        <ele>1211</ele>
        <time>2019-05-31T10:25:49.137Z</time>
      </trkpt>
      <trkpt lat="44.65808" lon="3.05692">
        <ele>1211</ele>
        <time>2019-05-31T10:25:54.132Z</time>
      </trkpt>
      <trkpt lat="44.65805" lon="3.05697">
        <ele>1211</ele>
        <time>2019-05-31T10:25:59.116Z</time>
      </trkpt>
      <trkpt lat="44.65802" lon="3.057">
        <ele>1211</ele>
        <time>2019-05-31T10:26:03.156Z</time>
      </trkpt>
      <trkpt lat="44.65801" lon="3.05705">
        <ele>1211</ele>
        <time>2019-05-31T10:26:08.140Z</time>
      </trkpt>
      <trkpt lat="44.65799" lon="3.05709">
        <ele>1214</ele>
        <time>2019-05-31T10:26:13.147Z</time>
      </trkpt>
      <trkpt lat="44.65797" lon="3.05712">
        <ele>1214</ele>
        <time>2019-05-31T10:26:17.152Z</time>
      </trkpt>
      <trkpt lat="44.65794" lon="3.05717">
        <ele>1214</ele>
        <time>2019-05-31T10:26:22.124Z</time>
      </trkpt>
      <trkpt lat="44.65791" lon="3.05723">
        <ele>1216</ele>
        <time>2019-05-31T10:26:27.116Z</time>
      </trkpt>
      <trkpt lat="44.65788" lon="3.05727">
        <ele>1216</ele>
        <time>2019-05-31T10:26:31.134Z</time>
      </trkpt>
      <trkpt lat="44.65785" lon="3.0573">
        <ele>1216</ele>
        <time>2019-05-31T10:26:35.151Z</time>
      </trkpt>
      <trkpt lat="44.65782" lon="3.05734">
        <ele>1216</ele>
        <time>2019-05-31T10:26:40.124Z</time>
      </trkpt>
      <trkpt lat="44.65778" lon="3.05737">
        <ele>1217</ele>
        <time>2019-05-31T10:26:45.150Z</time>
      </trkpt>
      <trkpt lat="44.65777" lon="3.05741">
        <ele>1217</ele>
        <time>2019-05-31T10:26:50.125Z</time>
      </trkpt>
      <trkpt lat="44.65774" lon="3.05745">
        <ele>1217</ele>
        <time>2019-05-31T10:26:55.151Z</time>
      </trkpt>
      <trkpt lat="44.65765" lon="3.05755">
        <ele>1217</ele>
        <time>2019-05-31T10:27:15.115Z</time>
      </trkpt>
      <trkpt lat="44.65765" lon="3.05755">
        <ele>1217</ele>
        <time>2019-05-31T10:27:29.123Z</time>
      </trkpt>
      <trkpt lat="44.65764" lon="3.05759">
        <ele>1218</ele>
        <time>2019-05-31T10:27:33.126Z</time>
      </trkpt>
      <trkpt lat="44.65761" lon="3.05761">
        <ele>1218</ele>
        <time>2019-05-31T10:27:37.131Z</time>
      </trkpt>
      <trkpt lat="44.65756" lon="3.05765">
        <ele>1219</ele>
        <time>2019-05-31T10:27:42.122Z</time>
      </trkpt>
      <trkpt lat="44.65752" lon="3.0577">
        <ele>1219</ele>
        <time>2019-05-31T10:27:47.122Z</time>
      </trkpt>
      <trkpt lat="44.65748" lon="3.05775">
        <ele>1219</ele>
        <time>2019-05-31T10:27:52.126Z</time>
      </trkpt>
      <trkpt lat="44.65745" lon="3.05779">
        <ele>1219</ele>
        <time>2019-05-31T10:27:57.176Z</time>
      </trkpt>
      <trkpt lat="44.65743" lon="3.05785">
        <ele>1219</ele>
        <time>2019-05-31T10:28:02.129Z</time>
      </trkpt>
      <trkpt lat="44.65742" lon="3.05789">
        <ele>1219</ele>
        <time>2019-05-31T10:28:07.102Z</time>
      </trkpt>
      <trkpt lat="44.6574" lon="3.05792">
        <ele>1220</ele>
        <time>2019-05-31T10:28:11.145Z</time>
      </trkpt>
      <trkpt lat="44.65738" lon="3.05799">
        <ele>1220</ele>
        <time>2019-05-31T10:28:16.152Z</time>
      </trkpt>
      <trkpt lat="44.65735" lon="3.05804">
        <ele>1218</ele>
        <time>2019-05-31T10:28:21.121Z</time>
      </trkpt>
      <trkpt lat="44.65734" lon="3.05811">
        <ele>1218</ele>
        <time>2019-05-31T10:28:26.115Z</time>
      </trkpt>
      <trkpt lat="44.65736" lon="3.05815">
        <ele>1218</ele>
        <time>2019-05-31T10:28:30.125Z</time>
      </trkpt>
      <trkpt lat="44.65736" lon="3.0582">
        <ele>1219</ele>
        <time>2019-05-31T10:28:35.132Z</time>
      </trkpt>
      <trkpt lat="44.65736" lon="3.05821">
        <ele>1219</ele>
        <time>2019-05-31T10:28:40.117Z</time>
      </trkpt>
      <trkpt lat="44.65736" lon="3.05826">
        <ele>1219</ele>
        <time>2019-05-31T10:28:45.123Z</time>
      </trkpt>
      <trkpt lat="44.65736" lon="3.05832">
        <ele>1221</ele>
        <time>2019-05-31T10:28:49.123Z</time>
      </trkpt>
      <trkpt lat="44.65736" lon="3.0584">
        <ele>1219</ele>
        <time>2019-05-31T10:28:54.126Z</time>
      </trkpt>
      <trkpt lat="44.65736" lon="3.05848">
        <ele>1219</ele>
        <time>2019-05-31T10:28:59.115Z</time>
      </trkpt>
      <trkpt lat="44.65736" lon="3.05855">
        <ele>1221</ele>
        <time>2019-05-31T10:29:03.123Z</time>
      </trkpt>
      <trkpt lat="44.65736" lon="3.05863">
        <ele>1221</ele>
        <time>2019-05-31T10:29:08.116Z</time>
      </trkpt>
      <trkpt lat="44.65737" lon="3.0587">
        <ele>1221</ele>
        <time>2019-05-31T10:29:13.128Z</time>
      </trkpt>
      <trkpt lat="44.65739" lon="3.05876">
        <ele>1220</ele>
        <time>2019-05-31T10:29:17.148Z</time>
      </trkpt>
      <trkpt lat="44.65742" lon="3.05885">
        <ele>1220</ele>
        <time>2019-05-31T10:29:22.152Z</time>
      </trkpt>
      <trkpt lat="44.65745" lon="3.05891">
        <ele>1220</ele>
        <time>2019-05-31T10:29:27.122Z</time>
      </trkpt>
      <trkpt lat="44.65747" lon="3.05899">
        <ele>1220</ele>
        <time>2019-05-31T10:29:32.134Z</time>
      </trkpt>
      <trkpt lat="44.6575" lon="3.05905">
        <ele>1219</ele>
        <time>2019-05-31T10:29:37.155Z</time>
      </trkpt>
      <trkpt lat="44.65753" lon="3.05912">
        <ele>1219</ele>
        <time>2019-05-31T10:29:42.119Z</time>
      </trkpt>
      <trkpt lat="44.65752" lon="3.05922">
        <ele>1219</ele>
        <time>2019-05-31T10:30:07.123Z</time>
      </trkpt>
      <trkpt lat="44.65751" lon="3.05916">
        <ele>1219</ele>
        <time>2019-05-31T10:30:12.116Z</time>
      </trkpt>
      <trkpt lat="44.65751" lon="3.0591">
        <ele>1219</ele>
        <time>2019-05-31T10:30:16.140Z</time>
      </trkpt>
      <trkpt lat="44.65749" lon="3.05905">
        <ele>1219</ele>
        <time>2019-05-31T10:30:21.123Z</time>
      </trkpt>
      <trkpt lat="44.65746" lon="3.059">
        <ele>1220</ele>
        <time>2019-05-31T10:30:26.122Z</time>
      </trkpt>
      <trkpt lat="44.65745" lon="3.05895">
        <ele>1220</ele>
        <time>2019-05-31T10:30:30.125Z</time>
      </trkpt>
      <trkpt lat="44.65744" lon="3.05888">
        <ele>1220</ele>
        <time>2019-05-31T10:30:35.125Z</time>
      </trkpt>
      <trkpt lat="44.65742" lon="3.05883">
        <ele>1220</ele>
        <time>2019-05-31T10:30:39.153Z</time>
      </trkpt>
      <trkpt lat="44.65741" lon="3.05876">
        <ele>1220</ele>
        <time>2019-05-31T10:30:44.134Z</time>
      </trkpt>
      <trkpt lat="44.6574" lon="3.05869">
        <ele>1221</ele>
        <time>2019-05-31T10:30:49.121Z</time>
      </trkpt>
      <trkpt lat="44.65739" lon="3.05862">
        <ele>1221</ele>
        <time>2019-05-31T10:30:54.111Z</time>
      </trkpt>
      <trkpt lat="44.65739" lon="3.05857">
        <ele>1221</ele>
        <time>2019-05-31T10:30:58.148Z</time>
      </trkpt>
      <trkpt lat="44.65739" lon="3.05851">
        <ele>1221</ele>
        <time>2019-05-31T10:31:02.125Z</time>
      </trkpt>
      <trkpt lat="44.65741" lon="3.05835">
        <ele>1221</ele>
        <time>2019-05-31T10:32:39.114Z</time>
      </trkpt>
      <trkpt lat="44.65742" lon="3.05833">
        <ele>1221</ele>
        <time>2019-05-31T10:32:43.131Z</time>
      </trkpt>
      <trkpt lat="44.65742" lon="3.05831">
        <ele>1221</ele>
        <time>2019-05-31T10:32:48.119Z</time>
      </trkpt>
      <trkpt lat="44.65742" lon="3.0583">
        <ele>1221</ele>
        <time>2019-05-31T10:32:57.121Z</time>
      </trkpt>
      <trkpt lat="44.65742" lon="3.05823">
        <ele>1221</ele>
        <time>2019-05-31T10:33:02.107Z</time>
      </trkpt>
      <trkpt lat="44.65743" lon="3.05819">
        <ele>1220</ele>
        <time>2019-05-31T10:33:06.122Z</time>
      </trkpt>
      <trkpt lat="44.65745" lon="3.05818">
        <ele>1220</ele>
        <time>2019-05-31T10:33:11.126Z</time>
      </trkpt>
      <trkpt lat="44.65751" lon="3.05819">
        <ele>1220</ele>
        <time>2019-05-31T10:33:16.116Z</time>
      </trkpt>
      <trkpt lat="44.65756" lon="3.05822">
        <ele>1221</ele>
        <time>2019-05-31T10:33:20.145Z</time>
      </trkpt>
      <trkpt lat="44.65762" lon="3.05824">
        <ele>1221</ele>
        <time>2019-05-31T10:33:25.147Z</time>
      </trkpt>
      <trkpt lat="44.65762" lon="3.05824">
        <ele>1221</ele>
        <time>2019-05-31T10:33:30.147Z</time>
      </trkpt>
      <trkpt lat="44.65766" lon="3.05825">
        <ele>1224</ele>
        <time>2019-05-31T10:33:35.147Z</time>
      </trkpt>
      <trkpt lat="44.65771" lon="3.05827">
        <ele>1224</ele>
        <time>2019-05-31T10:33:40.134Z</time>
      </trkpt>
      <trkpt lat="44.65776" lon="3.05829">
        <ele>1224</ele>
        <time>2019-05-31T10:33:45.121Z</time>
      </trkpt>
      <trkpt lat="44.65781" lon="3.05832">
        <ele>1224</ele>
        <time>2019-05-31T10:33:50.121Z</time>
      </trkpt>
      <trkpt lat="44.65785" lon="3.05832">
        <ele>1224</ele>
        <time>2019-05-31T10:33:55.122Z</time>
      </trkpt>
      <trkpt lat="44.65789" lon="3.05832">
        <ele>1224</ele>
        <time>2019-05-31T10:34:00.154Z</time>
      </trkpt>
      <trkpt lat="44.65794" lon="3.05833">
        <ele>1225</ele>
        <time>2019-05-31T10:34:05.121Z</time>
      </trkpt>
      <trkpt lat="44.65798" lon="3.05831">
        <ele>1225</ele>
        <time>2019-05-31T10:34:10.122Z</time>
      </trkpt>
      <trkpt lat="44.65802" lon="3.05831">
        <ele>1225</ele>
        <time>2019-05-31T10:34:14.127Z</time>
      </trkpt>
      <trkpt lat="44.65806" lon="3.0583">
        <ele>1225</ele>
        <time>2019-05-31T10:34:19.123Z</time>
      </trkpt>
      <trkpt lat="44.65808" lon="3.05829">
        <ele>1225</ele>
        <time>2019-05-31T10:34:34.121Z</time>
      </trkpt>
      <trkpt lat="44.65805" lon="3.05828">
        <ele>1225</ele>
        <time>2019-05-31T10:34:38.124Z</time>
      </trkpt>
      <trkpt lat="44.658" lon="3.05828">
        <ele>1225</ele>
        <time>2019-05-31T10:34:43.098Z</time>
      </trkpt>
      <trkpt lat="44.65796" lon="3.05827">
        <ele>1225</ele>
        <time>2019-05-31T10:34:47.123Z</time>
      </trkpt>
      <trkpt lat="44.65791" lon="3.05827">
        <ele>1224</ele>
        <time>2019-05-31T10:34:52.134Z</time>
      </trkpt>
      <trkpt lat="44.65786" lon="3.05827">
        <ele>1224</ele>
        <time>2019-05-31T10:34:57.117Z</time>
      </trkpt>
      <trkpt lat="44.65782" lon="3.05827">
        <ele>1224</ele>
        <time>2019-05-31T10:35:01.146Z</time>
      </trkpt>
      <trkpt lat="44.65777" lon="3.05827">
        <ele>1224</ele>
        <time>2019-05-31T10:35:06.155Z</time>
      </trkpt>
      <trkpt lat="44.65772" lon="3.05826">
        <ele>1224</ele>
        <time>2019-05-31T10:35:11.154Z</time>
      </trkpt>
      <trkpt lat="44.65767" lon="3.05826">
        <ele>1224</ele>
        <time>2019-05-31T10:35:16.149Z</time>
      </trkpt>
      <trkpt lat="44.65764" lon="3.05825">
        <ele>1221</ele>
        <time>2019-05-31T10:35:21.118Z</time>
      </trkpt>
      <trkpt lat="44.6576" lon="3.05823">
        <ele>1221</ele>
        <time>2019-05-31T10:35:26.133Z</time>
      </trkpt>
      <trkpt lat="44.65756" lon="3.05821">
        <ele>1221</ele>
        <time>2019-05-31T10:35:31.119Z</time>
      </trkpt>
      <trkpt lat="44.65752" lon="3.0582">
        <ele>1221</ele>
        <time>2019-05-31T10:35:36.123Z</time>
      </trkpt>
      <trkpt lat="44.65747" lon="3.05818">
        <ele>1220</ele>
        <time>2019-05-31T10:35:41.124Z</time>
      </trkpt>
      <trkpt lat="44.65744" lon="3.05818">
        <ele>1220</ele>
        <time>2019-05-31T10:35:45.126Z</time>
      </trkpt>
      <trkpt lat="44.65743" lon="3.05818">
        <ele>1220</ele>
        <time>2019-05-31T10:35:50.143Z</time>
      </trkpt>
      <trkpt lat="44.65741" lon="3.0582">
        <ele>1221</ele>
        <time>2019-05-31T10:37:28.153Z</time>
      </trkpt>
      <trkpt lat="44.65742" lon="3.05828">
        <ele>1221</ele>
        <time>2019-05-31T10:38:19.126Z</time>
      </trkpt>
      <trkpt lat="44.65744" lon="3.05824">
        <ele>1221</ele>
        <time>2019-05-31T10:38:23.155Z</time>
      </trkpt>
      <trkpt lat="44.65746" lon="3.0582">
        <ele>1221</ele>
        <time>2019-05-31T10:38:28.099Z</time>
      </trkpt>
      <trkpt lat="44.65749" lon="3.05818">
        <ele>1220</ele>
        <time>2019-05-31T10:38:32.123Z</time>
      </trkpt>
      <trkpt lat="44.65753" lon="3.05821">
        <ele>1221</ele>
        <time>2019-05-31T10:38:36.132Z</time>
      </trkpt>
      <trkpt lat="44.65754" lon="3.05823">
        <ele>1221</ele>
        <time>2019-05-31T10:38:41.098Z</time>
      </trkpt>
      <trkpt lat="44.65755" lon="3.05823">
        <ele>1221</ele>
        <time>2019-05-31T10:38:45.121Z</time>
      </trkpt>
      <trkpt lat="44.6576" lon="3.05825">
        <ele>1221</ele>
        <time>2019-05-31T10:38:50.099Z</time>
      </trkpt>
      <trkpt lat="44.65762" lon="3.05825">
        <ele>1221</ele>
        <time>2019-05-31T10:38:54.121Z</time>
      </trkpt>
      <trkpt lat="44.65766" lon="3.05825">
        <ele>1224</ele>
        <time>2019-05-31T10:38:59.121Z</time>
      </trkpt>
      <trkpt lat="44.65769" lon="3.05824">
        <ele>1224</ele>
        <time>2019-05-31T10:39:04.118Z</time>
      </trkpt>
      <trkpt lat="44.6577" lon="3.05826">
        <ele>1224</ele>
        <time>2019-05-31T10:39:18.146Z</time>
      </trkpt>
      <trkpt lat="44.65772" lon="3.05827">
        <ele>1224</ele>
        <time>2019-05-31T10:39:23.115Z</time>
      </trkpt>
      <trkpt lat="44.65776" lon="3.05829">
        <ele>1224</ele>
        <time>2019-05-31T10:39:28.126Z</time>
      </trkpt>
      <trkpt lat="44.6578" lon="3.05829">
        <ele>1224</ele>
        <time>2019-05-31T10:39:33.121Z</time>
      </trkpt>
      <trkpt lat="44.65784" lon="3.05827">
        <ele>1224</ele>
        <time>2019-05-31T10:39:38.124Z</time>
      </trkpt>
      <trkpt lat="44.65788" lon="3.05828">
        <ele>1224</ele>
        <time>2019-05-31T10:39:42.141Z</time>
      </trkpt>
      <trkpt lat="44.65792" lon="3.0583">
        <ele>1225</ele>
        <time>2019-05-31T10:39:46.160Z</time>
      </trkpt>
      <trkpt lat="44.65796" lon="3.0583">
        <ele>1225</ele>
        <time>2019-05-31T10:39:51.119Z</time>
      </trkpt>
      <trkpt lat="44.65799" lon="3.0583">
        <ele>1225</ele>
        <time>2019-05-31T10:39:55.153Z</time>
      </trkpt>
      <trkpt lat="44.65804" lon="3.0583">
        <ele>1225</ele>
        <time>2019-05-31T10:40:00.135Z</time>
      </trkpt>
      <trkpt lat="44.65805" lon="3.0583">
        <ele>1225</ele>
        <time>2019-05-31T10:40:05.121Z</time>
      </trkpt>
      <trkpt lat="44.6581" lon="3.0583">
        <ele>1225</ele>
        <time>2019-05-31T10:40:10.113Z</time>
      </trkpt>
      <trkpt lat="44.65819" lon="3.05832">
        <ele>1225</ele>
        <time>2019-05-31T10:42:20.123Z</time>
      </trkpt>
      <trkpt lat="44.65821" lon="3.05833">
        <ele>1227</ele>
        <time>2019-05-31T10:46:43.150Z</time>
      </trkpt>
      <trkpt lat="44.65824" lon="3.05834">
        <ele>1227</ele>
        <time>2019-05-31T10:46:48.121Z</time>
      </trkpt>
      <trkpt lat="44.65828" lon="3.05835">
        <ele>1227</ele>
        <time>2019-05-31T10:46:53.146Z</time>
      </trkpt>
      <trkpt lat="44.65832" lon="3.05836">
        <ele>1227</ele>
        <time>2019-05-31T10:46:58.122Z</time>
      </trkpt>
      <trkpt lat="44.65836" lon="3.05837">
        <ele>1227</ele>
        <time>2019-05-31T10:47:03.121Z</time>
      </trkpt>
      <trkpt lat="44.65839" lon="3.05838">
        <ele>1227</ele>
        <time>2019-05-31T10:47:07.123Z</time>
      </trkpt>
      <trkpt lat="44.65843" lon="3.0584">
        <ele>1227</ele>
        <time>2019-05-31T10:47:12.098Z</time>
      </trkpt>
      <trkpt lat="44.65845" lon="3.0584">
        <ele>1227</ele>
        <time>2019-05-31T10:47:16.108Z</time>
      </trkpt>
      <trkpt lat="44.65848" lon="3.05842">
        <ele>1230</ele>
        <time>2019-05-31T10:47:21.122Z</time>
      </trkpt>
      <trkpt lat="44.65849" lon="3.05845">
        <ele>1230</ele>
        <time>2019-05-31T10:47:25.146Z</time>
      </trkpt>
      <trkpt lat="44.6585" lon="3.05846">
        <ele>1230</ele>
        <time>2019-05-31T10:47:30.120Z</time>
      </trkpt>
      <trkpt lat="44.65854" lon="3.05848">
        <ele>1230</ele>
        <time>2019-05-31T10:47:35.120Z</time>
      </trkpt>
      <trkpt lat="44.65858" lon="3.0585">
        <ele>1230</ele>
        <time>2019-05-31T10:47:40.120Z</time>
      </trkpt>
      <trkpt lat="44.65862" lon="3.05851">
        <ele>1230</ele>
        <time>2019-05-31T10:47:45.118Z</time>
      </trkpt>
      <trkpt lat="44.65864" lon="3.05853">
        <ele>1230</ele>
        <time>2019-05-31T10:47:49.121Z</time>
      </trkpt>
      <trkpt lat="44.65868" lon="3.05853">
        <ele>1230</ele>
        <time>2019-05-31T10:47:53.143Z</time>
      </trkpt>
      <trkpt lat="44.65872" lon="3.05853">
        <ele>1230</ele>
        <time>2019-05-31T10:47:58.116Z</time>
      </trkpt>
      <trkpt lat="44.65881" lon="3.05856">
        <ele>1229</ele>
        <time>2019-05-31T10:48:16.122Z</time>
      </trkpt>
      <trkpt lat="44.65885" lon="3.05856">
        <ele>1229</ele>
        <time>2019-05-31T10:48:21.124Z</time>
      </trkpt>
      <trkpt lat="44.65887" lon="3.05855">
        <ele>1229</ele>
        <time>2019-05-31T10:48:26.140Z</time>
      </trkpt>
      <trkpt lat="44.65887" lon="3.05855">
        <ele>1229</ele>
        <time>2019-05-31T10:48:31.113Z</time>
      </trkpt>
      <trkpt lat="44.65887" lon="3.05855">
        <ele>1229</ele>
        <time>2019-05-31T10:48:55.121Z</time>
      </trkpt>
      <trkpt lat="44.65886" lon="3.05856">
        <ele>1229</ele>
        <time>2019-05-31T10:49:00.125Z</time>
      </trkpt>
      <trkpt lat="44.65883" lon="3.05855">
        <ele>1229</ele>
        <time>2019-05-31T10:49:15.130Z</time>
      </trkpt>
      <trkpt lat="44.65877" lon="3.05853">
        <ele>1229</ele>
        <time>2019-05-31T10:49:20.117Z</time>
      </trkpt>
      <trkpt lat="44.65873" lon="3.05853">
        <ele>1230</ele>
        <time>2019-05-31T10:49:24.146Z</time>
      </trkpt>
      <trkpt lat="44.65867" lon="3.05852">
        <ele>1230</ele>
        <time>2019-05-31T10:49:29.125Z</time>
      </trkpt>
      <trkpt lat="44.65863" lon="3.0585">
        <ele>1230</ele>
        <time>2019-05-31T10:49:34.131Z</time>
      </trkpt>
      <trkpt lat="44.65859" lon="3.05848">
        <ele>1230</ele>
        <time>2019-05-31T10:49:39.119Z</time>
      </trkpt>
      <trkpt lat="44.65856" lon="3.05847">
        <ele>1230</ele>
        <time>2019-05-31T10:49:44.123Z</time>
      </trkpt>
      <trkpt lat="44.6585" lon="3.05844">
        <ele>1230</ele>
        <time>2019-05-31T10:49:53.117Z</time>
      </trkpt>
      <trkpt lat="44.65848" lon="3.05843">
        <ele>1230</ele>
        <time>2019-05-31T10:49:57.125Z</time>
      </trkpt>
      <trkpt lat="44.65847" lon="3.05843">
        <ele>1227</ele>
        <time>2019-05-31T10:50:02.122Z</time>
      </trkpt>
      <trkpt lat="44.65845" lon="3.05841">
        <ele>1227</ele>
        <time>2019-05-31T10:50:07.111Z</time>
      </trkpt>
      <trkpt lat="44.65842" lon="3.05838">
        <ele>1227</ele>
        <time>2019-05-31T10:50:11.140Z</time>
      </trkpt>
      <trkpt lat="44.65838" lon="3.05836">
        <ele>1227</ele>
        <time>2019-05-31T10:50:16.122Z</time>
      </trkpt>
      <trkpt lat="44.65838" lon="3.05836">
        <ele>1227</ele>
        <time>2019-05-31T10:50:20.131Z</time>
      </trkpt>
      <trkpt lat="44.65833" lon="3.05835">
        <ele>1227</ele>
        <time>2019-05-31T10:50:25.121Z</time>
      </trkpt>
      <trkpt lat="44.65829" lon="3.05833">
        <ele>1227</ele>
        <time>2019-05-31T10:50:29.123Z</time>
      </trkpt>
      <trkpt lat="44.65825" lon="3.05832">
        <ele>1227</ele>
        <time>2019-05-31T10:50:34.124Z</time>
      </trkpt>
      <trkpt lat="44.65822" lon="3.0583">
        <ele>1227</ele>
        <time>2019-05-31T10:50:39.118Z</time>
      </trkpt>
      <trkpt lat="44.65819" lon="3.05829">
        <ele>1225</ele>
        <time>2019-05-31T10:50:44.151Z</time>
      </trkpt>
      <trkpt lat="44.65816" lon="3.05827">
        <ele>1225</ele>
        <time>2019-05-31T10:50:49.123Z</time>
      </trkpt>
      <trkpt lat="44.65815" lon="3.05824">
        <ele>1225</ele>
        <time>2019-05-31T11:14:27.114Z</time>
      </trkpt>
      <trkpt lat="44.65813" lon="3.05825">
        <ele>1225</ele>
        <time>2019-05-31T11:14:41.128Z</time>
      </trkpt>
      <trkpt lat="44.6581" lon="3.05827">
        <ele>1225</ele>
        <time>2019-05-31T11:14:46.118Z</time>
      </trkpt>
      <trkpt lat="44.65808" lon="3.05827">
        <ele>1225</ele>
        <time>2019-05-31T11:14:51.127Z</time>
      </trkpt>
      <trkpt lat="44.65805" lon="3.05827">
        <ele>1225</ele>
        <time>2019-05-31T11:14:55.133Z</time>
      </trkpt>
      <trkpt lat="44.65801" lon="3.05826">
        <ele>1225</ele>
        <time>2019-05-31T11:15:00.104Z</time>
      </trkpt>
      <trkpt lat="44.65799" lon="3.05825">
        <ele>1225</ele>
        <time>2019-05-31T11:15:05.134Z</time>
      </trkpt>
      <trkpt lat="44.65796" lon="3.05824">
        <ele>1225</ele>
        <time>2019-05-31T11:15:24.124Z</time>
      </trkpt>
      <trkpt lat="44.65794" lon="3.05825">
        <ele>1225</ele>
        <time>2019-05-31T11:15:29.143Z</time>
      </trkpt>
      <trkpt lat="44.6579" lon="3.05825">
        <ele>1224</ele>
        <time>2019-05-31T11:15:33.148Z</time>
      </trkpt>
      <trkpt lat="44.65786" lon="3.05825">
        <ele>1224</ele>
        <time>2019-05-31T11:15:38.123Z</time>
      </trkpt>
      <trkpt lat="44.65784" lon="3.05825">
        <ele>1224</ele>
        <time>2019-05-31T11:15:43.116Z</time>
      </trkpt>
      <trkpt lat="44.65779" lon="3.05824">
        <ele>1224</ele>
        <time>2019-05-31T11:15:48.113Z</time>
      </trkpt>
      <trkpt lat="44.65776" lon="3.05824">
        <ele>1224</ele>
        <time>2019-05-31T11:15:52.123Z</time>
      </trkpt>
      <trkpt lat="44.6577" lon="3.05823">
        <ele>1224</ele>
        <time>2019-05-31T11:15:57.161Z</time>
      </trkpt>
      <trkpt lat="44.65766" lon="3.05821">
        <ele>1224</ele>
        <time>2019-05-31T11:16:02.119Z</time>
      </trkpt>
      <trkpt lat="44.65763" lon="3.0582">
        <ele>1221</ele>
        <time>2019-05-31T11:16:06.119Z</time>
      </trkpt>
      <trkpt lat="44.65758" lon="3.05819">
        <ele>1220</ele>
        <time>2019-05-31T11:16:10.129Z</time>
      </trkpt>
      <trkpt lat="44.65752" lon="3.05818">
        <ele>1220</ele>
        <time>2019-05-31T11:16:15.131Z</time>
      </trkpt>
      <trkpt lat="44.65748" lon="3.05816">
        <ele>1220</ele>
        <time>2019-05-31T11:16:20.114Z</time>
      </trkpt>
      <trkpt lat="44.65743" lon="3.05818">
        <ele>1220</ele>
        <time>2019-05-31T11:16:25.121Z</time>
      </trkpt>
      <trkpt lat="44.65741" lon="3.05823">
        <ele>1221</ele>
        <time>2019-05-31T11:16:30.111Z</time>
      </trkpt>
      <trkpt lat="44.6574" lon="3.05828">
        <ele>1221</ele>
        <time>2019-05-31T11:16:34.142Z</time>
      </trkpt>
      <trkpt lat="44.65738" lon="3.05833">
        <ele>1221</ele>
        <time>2019-05-31T11:16:39.119Z</time>
      </trkpt>
      <trkpt lat="44.65737" lon="3.05837">
        <ele>1221</ele>
        <time>2019-05-31T11:16:44.122Z</time>
      </trkpt>
      <trkpt lat="44.65736" lon="3.05841">
        <ele>1221</ele>
        <time>2019-05-31T11:16:48.130Z</time>
      </trkpt>
      <trkpt lat="44.65737" lon="3.05844">
        <ele>1221</ele>
        <time>2019-05-31T11:16:53.095Z</time>
      </trkpt>
      <trkpt lat="44.65737" lon="3.05849">
        <ele>1221</ele>
        <time>2019-05-31T11:17:02.117Z</time>
      </trkpt>
      <trkpt lat="44.65737" lon="3.05854">
        <ele>1221</ele>
        <time>2019-05-31T11:17:07.119Z</time>
      </trkpt>
      <trkpt lat="44.65739" lon="3.0586">
        <ele>1221</ele>
        <time>2019-05-31T11:17:11.116Z</time>
      </trkpt>
      <trkpt lat="44.6574" lon="3.05867">
        <ele>1221</ele>
        <time>2019-05-31T11:17:16.152Z</time>
      </trkpt>
      <trkpt lat="44.65742" lon="3.05873">
        <ele>1221</ele>
        <time>2019-05-31T11:17:21.120Z</time>
      </trkpt>
      <trkpt lat="44.65744" lon="3.0588">
        <ele>1220</ele>
        <time>2019-05-31T11:17:25.139Z</time>
      </trkpt>
      <trkpt lat="44.65747" lon="3.05887">
        <ele>1220</ele>
        <time>2019-05-31T11:17:30.131Z</time>
      </trkpt>
      <trkpt lat="44.65749" lon="3.05893">
        <ele>1220</ele>
        <time>2019-05-31T11:17:35.122Z</time>
      </trkpt>
      <trkpt lat="44.65751" lon="3.05896">
        <ele>1220</ele>
        <time>2019-05-31T11:17:39.138Z</time>
      </trkpt>
      <trkpt lat="44.65754" lon="3.05902">
        <ele>1220</ele>
        <time>2019-05-31T11:17:44.120Z</time>
      </trkpt>
      <trkpt lat="44.65756" lon="3.05908">
        <ele>1219</ele>
        <time>2019-05-31T11:17:49.110Z</time>
      </trkpt>
      <trkpt lat="44.65758" lon="3.05915">
        <ele>1219</ele>
        <time>2019-05-31T11:17:54.138Z</time>
      </trkpt>
      <trkpt lat="44.65759" lon="3.05921">
        <ele>1219</ele>
        <time>2019-05-31T11:17:59.145Z</time>
      </trkpt>
      <trkpt lat="44.65759" lon="3.05927">
        <ele>1219</ele>
        <time>2019-05-31T11:18:04.126Z</time>
      </trkpt>
      <trkpt lat="44.6576" lon="3.05934">
        <ele>1217</ele>
        <time>2019-05-31T11:18:09.114Z</time>
      </trkpt>
      <trkpt lat="44.65761" lon="3.05938">
        <ele>1217</ele>
        <time>2019-05-31T11:18:14.118Z</time>
      </trkpt>
      <trkpt lat="44.65762" lon="3.05943">
        <ele>1217</ele>
        <time>2019-05-31T11:18:18.156Z</time>
      </trkpt>
      <trkpt lat="44.65763" lon="3.05949">
        <ele>1217</ele>
        <time>2019-05-31T11:18:23.146Z</time>
      </trkpt>
      <trkpt lat="44.65764" lon="3.05955">
        <ele>1220</ele>
        <time>2019-05-31T11:18:28.112Z</time>
      </trkpt>
      <trkpt lat="44.65767" lon="3.0596">
        <ele>1217</ele>
        <time>2019-05-31T11:18:33.145Z</time>
      </trkpt>
      <trkpt lat="44.65769" lon="3.05965">
        <ele>1217</ele>
        <time>2019-05-31T11:18:38.119Z</time>
      </trkpt>
      <trkpt lat="44.6577" lon="3.05971">
        <ele>1217</ele>
        <time>2019-05-31T11:18:43.123Z</time>
      </trkpt>
      <trkpt lat="44.65772" lon="3.05977">
        <ele>1217</ele>
        <time>2019-05-31T11:18:48.117Z</time>
      </trkpt>
      <trkpt lat="44.65775" lon="3.05982">
        <ele>1217</ele>
        <time>2019-05-31T11:18:52.132Z</time>
      </trkpt>
      <trkpt lat="44.65778" lon="3.05987">
        <ele>1215</ele>
        <time>2019-05-31T11:18:57.118Z</time>
      </trkpt>
      <trkpt lat="44.65779" lon="3.05991">
        <ele>1215</ele>
        <time>2019-05-31T11:19:01.122Z</time>
      </trkpt>
      <trkpt lat="44.65781" lon="3.05995">
        <ele>1215</ele>
        <time>2019-05-31T11:19:05.133Z</time>
      </trkpt>
      <trkpt lat="44.65783" lon="3.06001">
        <ele>1215</ele>
        <time>2019-05-31T11:19:10.141Z</time>
      </trkpt>
      <trkpt lat="44.65786" lon="3.06007">
        <ele>1215</ele>
        <time>2019-05-31T11:19:15.153Z</time>
      </trkpt>
      <trkpt lat="44.65789" lon="3.06013">
        <ele>1215</ele>
        <time>2019-05-31T11:19:20.121Z</time>
      </trkpt>
      <trkpt lat="44.65791" lon="3.06017">
        <ele>1214</ele>
        <time>2019-05-31T11:19:24.125Z</time>
      </trkpt>
      <trkpt lat="44.65794" lon="3.06023">
        <ele>1215</ele>
        <time>2019-05-31T11:19:29.133Z</time>
      </trkpt>
      <trkpt lat="44.65797" lon="3.06029">
        <ele>1215</ele>
        <time>2019-05-31T11:19:34.118Z</time>
      </trkpt>
      <trkpt lat="44.65799" lon="3.06035">
        <ele>1215</ele>
        <time>2019-05-31T11:19:38.100Z</time>
      </trkpt>
      <trkpt lat="44.65801" lon="3.0604">
        <ele>1215</ele>
        <time>2019-05-31T11:19:43.099Z</time>
      </trkpt>
      <trkpt lat="44.65802" lon="3.06044">
        <ele>1214</ele>
        <time>2019-05-31T11:19:47.121Z</time>
      </trkpt>
      <trkpt lat="44.65804" lon="3.06051">
        <ele>1214</ele>
        <time>2019-05-31T11:19:52.114Z</time>
      </trkpt>
      <trkpt lat="44.65806" lon="3.06056">
        <ele>1214</ele>
        <time>2019-05-31T11:19:57.107Z</time>
      </trkpt>
      <trkpt lat="44.65808" lon="3.06061">
        <ele>1214</ele>
        <time>2019-05-31T11:20:01.120Z</time>
      </trkpt>
      <trkpt lat="44.65809" lon="3.06065">
        <ele>1214</ele>
        <time>2019-05-31T11:20:05.124Z</time>
      </trkpt>
      <trkpt lat="44.65812" lon="3.0607">
        <ele>1213</ele>
        <time>2019-05-31T11:20:10.120Z</time>
      </trkpt>
      <trkpt lat="44.65818" lon="3.06075">
        <ele>1213</ele>
        <time>2019-05-31T11:20:15.110Z</time>
      </trkpt>
      <trkpt lat="44.6582" lon="3.06079">
        <ele>1213</ele>
        <time>2019-05-31T11:20:19.152Z</time>
      </trkpt>
      <trkpt lat="44.65821" lon="3.06085">
        <ele>1213</ele>
        <time>2019-05-31T11:20:24.129Z</time>
      </trkpt>
      <trkpt lat="44.65823" lon="3.06092">
        <ele>1213</ele>
        <time>2019-05-31T11:20:29.119Z</time>
      </trkpt>
      <trkpt lat="44.65825" lon="3.06098">
        <ele>1211</ele>
        <time>2019-05-31T11:20:34.115Z</time>
      </trkpt>
      <trkpt lat="44.65826" lon="3.06102">
        <ele>1211</ele>
        <time>2019-05-31T11:20:38.131Z</time>
      </trkpt>
      <trkpt lat="44.65828" lon="3.06109">
        <ele>1211</ele>
        <time>2019-05-31T11:20:43.116Z</time>
      </trkpt>
      <trkpt lat="44.65831" lon="3.06114">
        <ele>1211</ele>
        <time>2019-05-31T11:20:47.149Z</time>
      </trkpt>
      <trkpt lat="44.65834" lon="3.0612">
        <ele>1211</ele>
        <time>2019-05-31T11:20:52.119Z</time>
      </trkpt>
      <trkpt lat="44.65836" lon="3.06126">
        <ele>1208</ele>
        <time>2019-05-31T11:20:56.131Z</time>
      </trkpt>
      <trkpt lat="44.65837" lon="3.06132">
        <ele>1208</ele>
        <time>2019-05-31T11:21:00.153Z</time>
      </trkpt>
      <trkpt lat="44.65838" lon="3.06139">
        <ele>1208</ele>
        <time>2019-05-31T11:21:05.120Z</time>
      </trkpt>
      <trkpt lat="44.6584" lon="3.06146">
        <ele>1208</ele>
        <time>2019-05-31T11:21:10.120Z</time>
      </trkpt>
      <trkpt lat="44.65842" lon="3.06152">
        <ele>1208</ele>
        <time>2019-05-31T11:21:15.095Z</time>
      </trkpt>
      <trkpt lat="44.65844" lon="3.06156">
        <ele>1206</ele>
        <time>2019-05-31T11:21:19.147Z</time>
      </trkpt>
      <trkpt lat="44.65846" lon="3.06161">
        <ele>1206</ele>
        <time>2019-05-31T11:21:23.153Z</time>
      </trkpt>
      <trkpt lat="44.65848" lon="3.06168">
        <ele>1205</ele>
        <time>2019-05-31T11:21:28.116Z</time>
      </trkpt>
      <trkpt lat="44.65849" lon="3.06174">
        <ele>1205</ele>
        <time>2019-05-31T11:21:32.131Z</time>
      </trkpt>
      <trkpt lat="44.6585" lon="3.0618">
        <ele>1205</ele>
        <time>2019-05-31T11:21:36.143Z</time>
      </trkpt>
      <trkpt lat="44.65852" lon="3.06188">
        <ele>1203</ele>
        <time>2019-05-31T11:21:41.111Z</time>
      </trkpt>
      <trkpt lat="44.65852" lon="3.06194">
        <ele>1203</ele>
        <time>2019-05-31T11:21:45.118Z</time>
      </trkpt>
      <trkpt lat="44.65853" lon="3.06198">
        <ele>1203</ele>
        <time>2019-05-31T11:21:49.120Z</time>
      </trkpt>
      <trkpt lat="44.65854" lon="3.06206">
        <ele>1203</ele>
        <time>2019-05-31T11:21:54.118Z</time>
      </trkpt>
      <trkpt lat="44.65856" lon="3.06214">
        <ele>1203</ele>
        <time>2019-05-31T11:21:59.120Z</time>
      </trkpt>
      <trkpt lat="44.65858" lon="3.06221">
        <ele>1203</ele>
        <time>2019-05-31T11:22:04.118Z</time>
      </trkpt>
      <trkpt lat="44.6586" lon="3.06226">
        <ele>1203</ele>
        <time>2019-05-31T11:22:08.118Z</time>
      </trkpt>
      <trkpt lat="44.65863" lon="3.06232">
        <ele>1203</ele>
        <time>2019-05-31T11:22:12.156Z</time>
      </trkpt>
      <trkpt lat="44.65867" lon="3.06239">
        <ele>1204</ele>
        <time>2019-05-31T11:22:17.123Z</time>
      </trkpt>
      <trkpt lat="44.65869" lon="3.06244">
        <ele>1204</ele>
        <time>2019-05-31T11:22:21.150Z</time>
      </trkpt>
      <trkpt lat="44.65872" lon="3.06248">
        <ele>1204</ele>
        <time>2019-05-31T11:22:26.131Z</time>
      </trkpt>
      <trkpt lat="44.65874" lon="3.06255">
        <ele>1204</ele>
        <time>2019-05-31T11:22:31.120Z</time>
      </trkpt>
      <trkpt lat="44.65876" lon="3.06262">
        <ele>1203</ele>
        <time>2019-05-31T11:22:36.112Z</time>
      </trkpt>
      <trkpt lat="44.65878" lon="3.06268">
        <ele>1203</ele>
        <time>2019-05-31T11:22:40.136Z</time>
      </trkpt>
      <trkpt lat="44.65881" lon="3.06275">
        <ele>1203</ele>
        <time>2019-05-31T11:22:45.098Z</time>
      </trkpt>
      <trkpt lat="44.65883" lon="3.06279">
        <ele>1203</ele>
        <time>2019-05-31T11:22:49.138Z</time>
      </trkpt>
      <trkpt lat="44.65885" lon="3.06285">
        <ele>1203</ele>
        <time>2019-05-31T11:22:54.150Z</time>
      </trkpt>
      <trkpt lat="44.65886" lon="3.06292">
        <ele>1202</ele>
        <time>2019-05-31T11:22:59.117Z</time>
      </trkpt>
      <trkpt lat="44.65888" lon="3.06299">
        <ele>1202</ele>
        <time>2019-05-31T11:23:04.141Z</time>
      </trkpt>
      <trkpt lat="44.6589" lon="3.06306">
        <ele>1202</ele>
        <time>2019-05-31T11:23:09.146Z</time>
      </trkpt>
      <trkpt lat="44.65891" lon="3.06314">
        <ele>1202</ele>
        <time>2019-05-31T11:23:14.120Z</time>
      </trkpt>
      <trkpt lat="44.65891" lon="3.06321">
        <ele>1200</ele>
        <time>2019-05-31T11:23:19.151Z</time>
      </trkpt>
      <trkpt lat="44.65891" lon="3.06329">
        <ele>1200</ele>
        <time>2019-05-31T11:23:24.116Z</time>
      </trkpt>
      <trkpt lat="44.65892" lon="3.06336">
        <ele>1200</ele>
        <time>2019-05-31T11:23:29.119Z</time>
      </trkpt>
      <trkpt lat="44.65892" lon="3.06344">
        <ele>1200</ele>
        <time>2019-05-31T11:23:34.121Z</time>
      </trkpt>
      <trkpt lat="44.65893" lon="3.06353">
        <ele>1198</ele>
        <time>2019-05-31T11:23:39.114Z</time>
      </trkpt>
      <trkpt lat="44.65894" lon="3.06359">
        <ele>1198</ele>
        <time>2019-05-31T11:23:43.123Z</time>
      </trkpt>
      <trkpt lat="44.65894" lon="3.06368">
        <ele>1198</ele>
        <time>2019-05-31T11:23:48.097Z</time>
      </trkpt>
      <trkpt lat="44.65894" lon="3.06373">
        <ele>1198</ele>
        <time>2019-05-31T11:23:52.108Z</time>
      </trkpt>
      <trkpt lat="44.65895" lon="3.0638">
        <ele>1196</ele>
        <time>2019-05-31T11:23:56.122Z</time>
      </trkpt>
      <trkpt lat="44.65896" lon="3.06389">
        <ele>1196</ele>
        <time>2019-05-31T11:24:01.148Z</time>
      </trkpt>
      <trkpt lat="44.65897" lon="3.06397">
        <ele>1196</ele>
        <time>2019-05-31T11:24:06.115Z</time>
      </trkpt>
      <trkpt lat="44.65899" lon="3.06404">
        <ele>1194</ele>
        <time>2019-05-31T11:24:11.115Z</time>
      </trkpt>
      <trkpt lat="44.659" lon="3.0641">
        <ele>1194</ele>
        <time>2019-05-31T11:24:15.144Z</time>
      </trkpt>
      <trkpt lat="44.65901" lon="3.06416">
        <ele>1194</ele>
        <time>2019-05-31T11:24:20.145Z</time>
      </trkpt>
      <trkpt lat="44.65902" lon="3.06424">
        <ele>1194</ele>
        <time>2019-05-31T11:24:25.123Z</time>
      </trkpt>
      <trkpt lat="44.65903" lon="3.06432">
        <ele>1193</ele>
        <time>2019-05-31T11:24:30.117Z</time>
      </trkpt>
      <trkpt lat="44.65903" lon="3.06438">
        <ele>1193</ele>
        <time>2019-05-31T11:24:34.134Z</time>
      </trkpt>
      <trkpt lat="44.65903" lon="3.06445">
        <ele>1193</ele>
        <time>2019-05-31T11:24:39.125Z</time>
      </trkpt>
      <trkpt lat="44.65902" lon="3.06452">
        <ele>1193</ele>
        <time>2019-05-31T11:24:44.117Z</time>
      </trkpt>
      <trkpt lat="44.65902" lon="3.0646">
        <ele>1192</ele>
        <time>2019-05-31T11:24:49.146Z</time>
      </trkpt>
      <trkpt lat="44.65902" lon="3.06469">
        <ele>1192</ele>
        <time>2019-05-31T11:24:54.120Z</time>
      </trkpt>
      <trkpt lat="44.65904" lon="3.06477">
        <ele>1193</ele>
        <time>2019-05-31T11:24:59.109Z</time>
      </trkpt>
      <trkpt lat="44.65904" lon="3.06483">
        <ele>1193</ele>
        <time>2019-05-31T11:25:03.120Z</time>
      </trkpt>
      <trkpt lat="44.65905" lon="3.06487">
        <ele>1193</ele>
        <time>2019-05-31T11:25:07.120Z</time>
      </trkpt>
      <trkpt lat="44.65905" lon="3.06489">
        <ele>1193</ele>
        <time>2019-05-31T11:25:12.118Z</time>
      </trkpt>
      <trkpt lat="44.65905" lon="3.0649">
        <ele>1193</ele>
        <time>2019-05-31T11:25:17.121Z</time>
      </trkpt>
      <trkpt lat="44.65906" lon="3.06499">
        <ele>1193</ele>
        <time>2019-05-31T11:25:22.134Z</time>
      </trkpt>
      <trkpt lat="44.65906" lon="3.06507">
        <ele>1193</ele>
        <time>2019-05-31T11:25:27.119Z</time>
      </trkpt>
      <trkpt lat="44.65907" lon="3.06515">
        <ele>1193</ele>
        <time>2019-05-31T11:25:32.131Z</time>
      </trkpt>
      <trkpt lat="44.65908" lon="3.06521">
        <ele>1193</ele>
        <time>2019-05-31T11:25:36.165Z</time>
      </trkpt>
      <trkpt lat="44.65908" lon="3.06529">
        <ele>1193</ele>
        <time>2019-05-31T11:25:41.118Z</time>
      </trkpt>
      <trkpt lat="44.65907" lon="3.06536">
        <ele>1193</ele>
        <time>2019-05-31T11:25:46.126Z</time>
      </trkpt>
      <trkpt lat="44.65907" lon="3.06543">
        <ele>1192</ele>
        <time>2019-05-31T11:25:51.121Z</time>
      </trkpt>
      <trkpt lat="44.65908" lon="3.0655">
        <ele>1192</ele>
        <time>2019-05-31T11:25:56.120Z</time>
      </trkpt>
      <trkpt lat="44.65907" lon="3.06556">
        <ele>1192</ele>
        <time>2019-05-31T11:26:00.127Z</time>
      </trkpt>
      <trkpt lat="44.65906" lon="3.06564">
        <ele>1192</ele>
        <time>2019-05-31T11:26:05.122Z</time>
      </trkpt>
      <trkpt lat="44.65905" lon="3.0657">
        <ele>1192</ele>
        <time>2019-05-31T11:26:09.125Z</time>
      </trkpt>
      <trkpt lat="44.65904" lon="3.06576">
        <ele>1192</ele>
        <time>2019-05-31T11:26:13.152Z</time>
      </trkpt>
      <trkpt lat="44.65903" lon="3.06582">
        <ele>1191</ele>
        <time>2019-05-31T11:26:18.116Z</time>
      </trkpt>
      <trkpt lat="44.65902" lon="3.06589">
        <ele>1191</ele>
        <time>2019-05-31T11:26:23.119Z</time>
      </trkpt>
      <trkpt lat="44.659" lon="3.06596">
        <ele>1191</ele>
        <time>2019-05-31T11:26:28.126Z</time>
      </trkpt>
      <trkpt lat="44.65899" lon="3.06604">
        <ele>1190</ele>
        <time>2019-05-31T11:26:33.116Z</time>
      </trkpt>
      <trkpt lat="44.65897" lon="3.06612">
        <ele>1190</ele>
        <time>2019-05-31T11:26:38.122Z</time>
      </trkpt>
      <trkpt lat="44.65896" lon="3.0662">
        <ele>1190</ele>
        <time>2019-05-31T11:26:43.118Z</time>
      </trkpt>
      <trkpt lat="44.65895" lon="3.06628">
        <ele>1189</ele>
        <time>2019-05-31T11:26:48.120Z</time>
      </trkpt>
      <trkpt lat="44.65896" lon="3.06635">
        <ele>1189</ele>
        <time>2019-05-31T11:26:52.122Z</time>
      </trkpt>
      <trkpt lat="44.65896" lon="3.06637">
        <ele>1189</ele>
        <time>2019-05-31T11:26:57.119Z</time>
      </trkpt>
      <trkpt lat="44.65897" lon="3.06639">
        <ele>1189</ele>
        <time>2019-05-31T11:27:01.152Z</time>
      </trkpt>
      <trkpt lat="44.65898" lon="3.06644">
        <ele>1189</ele>
        <time>2019-05-31T11:27:06.155Z</time>
      </trkpt>
      <trkpt lat="44.659" lon="3.06648">
        <ele>1189</ele>
        <time>2019-05-31T11:27:11.121Z</time>
      </trkpt>
      <trkpt lat="44.659" lon="3.06649">
        <ele>1189</ele>
        <time>2019-05-31T11:27:21.120Z</time>
      </trkpt>
      <trkpt lat="44.65902" lon="3.06653">
        <ele>1189</ele>
        <time>2019-05-31T11:27:26.126Z</time>
      </trkpt>
      <trkpt lat="44.65901" lon="3.06663">
        <ele>1189</ele>
        <time>2019-05-31T11:27:46.121Z</time>
      </trkpt>
      <trkpt lat="44.65901" lon="3.06668">
        <ele>1189</ele>
        <time>2019-05-31T11:28:15.097Z</time>
      </trkpt>
      <trkpt lat="44.659" lon="3.06674">
        <ele>1189</ele>
        <time>2019-05-31T11:28:19.121Z</time>
      </trkpt>
      <trkpt lat="44.659" lon="3.06679">
        <ele>1189</ele>
        <time>2019-05-31T11:28:24.116Z</time>
      </trkpt>
      <trkpt lat="44.65899" lon="3.06684">
        <ele>1190</ele>
        <time>2019-05-31T11:28:29.119Z</time>
      </trkpt>
      <trkpt lat="44.65897" lon="3.0669">
        <ele>1190</ele>
        <time>2019-05-31T11:28:34.121Z</time>
      </trkpt>
      <trkpt lat="44.65893" lon="3.06693">
        <ele>1190</ele>
        <time>2019-05-31T11:28:39.118Z</time>
      </trkpt>
      <trkpt lat="44.6589" lon="3.06696">
        <ele>1190</ele>
        <time>2019-05-31T11:28:43.131Z</time>
      </trkpt>
      <trkpt lat="44.65886" lon="3.06697">
        <ele>1190</ele>
        <time>2019-05-31T11:28:48.107Z</time>
      </trkpt>
      <trkpt lat="44.65883" lon="3.06698">
        <ele>1190</ele>
        <time>2019-05-31T11:28:52.115Z</time>
      </trkpt>
      <trkpt lat="44.6588" lon="3.067">
        <ele>1190</ele>
        <time>2019-05-31T11:28:56.144Z</time>
      </trkpt>
      <trkpt lat="44.65876" lon="3.06703">
        <ele>1190</ele>
        <time>2019-05-31T11:29:00.149Z</time>
      </trkpt>
      <trkpt lat="44.65872" lon="3.06704">
        <ele>1190</ele>
        <time>2019-05-31T11:29:05.119Z</time>
      </trkpt>
      <trkpt lat="44.65868" lon="3.06707">
        <ele>1190</ele>
        <time>2019-05-31T11:29:10.120Z</time>
      </trkpt>
      <trkpt lat="44.65864" lon="3.06711">
        <ele>1193</ele>
        <time>2019-05-31T11:29:15.119Z</time>
      </trkpt>
      <trkpt lat="44.6586" lon="3.06713">
        <ele>1193</ele>
        <time>2019-05-31T11:29:19.138Z</time>
      </trkpt>
      <trkpt lat="44.65855" lon="3.06715">
        <ele>1193</ele>
        <time>2019-05-31T11:29:24.119Z</time>
      </trkpt>
      <trkpt lat="44.65852" lon="3.06717">
        <ele>1193</ele>
        <time>2019-05-31T11:29:29.120Z</time>
      </trkpt>
      <trkpt lat="44.65848" lon="3.0672">
        <ele>1193</ele>
        <time>2019-05-31T11:29:33.142Z</time>
      </trkpt>
      <trkpt lat="44.65846" lon="3.06723">
        <ele>1195</ele>
        <time>2019-05-31T11:29:38.119Z</time>
      </trkpt>
      <trkpt lat="44.65841" lon="3.06724">
        <ele>1195</ele>
        <time>2019-05-31T11:29:43.116Z</time>
      </trkpt>
      <trkpt lat="44.65837" lon="3.06726">
        <ele>1195</ele>
        <time>2019-05-31T11:29:47.119Z</time>
      </trkpt>
      <trkpt lat="44.65834" lon="3.06731">
        <ele>1195</ele>
        <time>2019-05-31T11:29:52.113Z</time>
      </trkpt>
      <trkpt lat="44.65831" lon="3.06733">
        <ele>1195</ele>
        <time>2019-05-31T11:29:56.128Z</time>
      </trkpt>
      <trkpt lat="44.65828" lon="3.06737">
        <ele>1197</ele>
        <time>2019-05-31T11:30:00.158Z</time>
      </trkpt>
      <trkpt lat="44.65825" lon="3.06742">
        <ele>1197</ele>
        <time>2019-05-31T11:30:05.152Z</time>
      </trkpt>
      <trkpt lat="44.65821" lon="3.06745">
        <ele>1197</ele>
        <time>2019-05-31T11:30:10.120Z</time>
      </trkpt>
      <trkpt lat="44.65818" lon="3.06749">
        <ele>1200</ele>
        <time>2019-05-31T11:30:15.122Z</time>
      </trkpt>
      <trkpt lat="44.65815" lon="3.06755">
        <ele>1200</ele>
        <time>2019-05-31T11:30:20.119Z</time>
      </trkpt>
      <trkpt lat="44.65812" lon="3.06758">
        <ele>1200</ele>
        <time>2019-05-31T11:30:25.146Z</time>
      </trkpt>
      <trkpt lat="44.65808" lon="3.06762">
        <ele>1200</ele>
        <time>2019-05-31T11:30:30.144Z</time>
      </trkpt>
      <trkpt lat="44.65804" lon="3.06765">
        <ele>1201</ele>
        <time>2019-05-31T11:30:35.119Z</time>
      </trkpt>
      <trkpt lat="44.65799" lon="3.06768">
        <ele>1201</ele>
        <time>2019-05-31T11:30:40.141Z</time>
      </trkpt>
      <trkpt lat="44.65796" lon="3.06772">
        <ele>1201</ele>
        <time>2019-05-31T11:30:45.125Z</time>
      </trkpt>
      <trkpt lat="44.65793" lon="3.06777">
        <ele>1201</ele>
        <time>2019-05-31T11:30:50.117Z</time>
      </trkpt>
      <trkpt lat="44.65791" lon="3.06779">
        <ele>1205</ele>
        <time>2019-05-31T11:30:54.117Z</time>
      </trkpt>
      <trkpt lat="44.6579" lon="3.06781">
        <ele>1205</ele>
        <time>2019-05-31T11:30:59.095Z</time>
      </trkpt>
      <trkpt lat="44.65787" lon="3.06784">
        <ele>1205</ele>
        <time>2019-05-31T11:31:03.115Z</time>
      </trkpt>
      <trkpt lat="44.65784" lon="3.06789">
        <ele>1205</ele>
        <time>2019-05-31T11:31:08.147Z</time>
      </trkpt>
      <trkpt lat="44.65781" lon="3.06794">
        <ele>1205</ele>
        <time>2019-05-31T11:31:13.115Z</time>
      </trkpt>
      <trkpt lat="44.65778" lon="3.06802">
        <ele>1205</ele>
        <time>2019-05-31T11:31:18.115Z</time>
      </trkpt>
      <trkpt lat="44.65776" lon="3.06809">
        <ele>1205</ele>
        <time>2019-05-31T11:31:22.115Z</time>
      </trkpt>
      <trkpt lat="44.65773" lon="3.06817">
        <ele>1205</ele>
        <time>2019-05-31T11:31:27.149Z</time>
      </trkpt>
      <trkpt lat="44.65772" lon="3.06824">
        <ele>1206</ele>
        <time>2019-05-31T11:31:32.119Z</time>
      </trkpt>
      <trkpt lat="44.65772" lon="3.06831">
        <ele>1206</ele>
        <time>2019-05-31T11:31:37.114Z</time>
      </trkpt>
      <trkpt lat="44.65772" lon="3.06837">
        <ele>1206</ele>
        <time>2019-05-31T11:31:41.149Z</time>
      </trkpt>
      <trkpt lat="44.65771" lon="3.06844">
        <ele>1206</ele>
        <time>2019-05-31T11:31:46.109Z</time>
      </trkpt>
      <trkpt lat="44.65771" lon="3.06849">
        <ele>1206</ele>
        <time>2019-05-31T11:31:50.131Z</time>
      </trkpt>
      <trkpt lat="44.65771" lon="3.06857">
        <ele>1206</ele>
        <time>2019-05-31T11:31:55.118Z</time>
      </trkpt>
      <trkpt lat="44.65771" lon="3.06862">
        <ele>1206</ele>
        <time>2019-05-31T11:31:59.142Z</time>
      </trkpt>
      <trkpt lat="44.6577" lon="3.0687">
        <ele>1206</ele>
        <time>2019-05-31T11:32:04.122Z</time>
      </trkpt>
      <trkpt lat="44.65768" lon="3.06877">
        <ele>1205</ele>
        <time>2019-05-31T11:32:09.116Z</time>
      </trkpt>
      <trkpt lat="44.65767" lon="3.06883">
        <ele>1205</ele>
        <time>2019-05-31T11:32:13.120Z</time>
      </trkpt>
      <trkpt lat="44.65766" lon="3.0689">
        <ele>1205</ele>
        <time>2019-05-31T11:32:18.117Z</time>
      </trkpt>
      <trkpt lat="44.65765" lon="3.06896">
        <ele>1205</ele>
        <time>2019-05-31T11:32:22.121Z</time>
      </trkpt>
      <trkpt lat="44.65763" lon="3.06904">
        <ele>1209</ele>
        <time>2019-05-31T11:32:27.118Z</time>
      </trkpt>
      <trkpt lat="44.65761" lon="3.06913">
        <ele>1209</ele>
        <time>2019-05-31T11:32:32.116Z</time>
      </trkpt>
      <trkpt lat="44.6576" lon="3.06917">
        <ele>1209</ele>
        <time>2019-05-31T11:32:36.162Z</time>
      </trkpt>
      <trkpt lat="44.65757" lon="3.06924">
        <ele>1209</ele>
        <time>2019-05-31T11:32:41.144Z</time>
      </trkpt>
      <trkpt lat="44.65755" lon="3.06931">
        <ele>1209</ele>
        <time>2019-05-31T11:32:46.119Z</time>
      </trkpt>
      <trkpt lat="44.65755" lon="3.06938">
        <ele>1209</ele>
        <time>2019-05-31T11:32:51.093Z</time>
      </trkpt>
      <trkpt lat="44.65756" lon="3.06943">
        <ele>1209</ele>
        <time>2019-05-31T11:32:55.098Z</time>
      </trkpt>
      <trkpt lat="44.65756" lon="3.06946">
        <ele>1209</ele>
        <time>2019-05-31T11:32:59.107Z</time>
      </trkpt>
      <trkpt lat="44.65755" lon="3.06952">
        <ele>1209</ele>
        <time>2019-05-31T11:33:04.111Z</time>
      </trkpt>
      <trkpt lat="44.65754" lon="3.06959">
        <ele>1210</ele>
        <time>2019-05-31T11:33:09.125Z</time>
      </trkpt>
      <trkpt lat="44.65753" lon="3.06966">
        <ele>1210</ele>
        <time>2019-05-31T11:33:14.094Z</time>
      </trkpt>
      <trkpt lat="44.65752" lon="3.06973">
        <ele>1210</ele>
        <time>2019-05-31T11:33:18.109Z</time>
      </trkpt>
      <trkpt lat="44.6575" lon="3.06979">
        <ele>1210</ele>
        <time>2019-05-31T11:33:23.097Z</time>
      </trkpt>
      <trkpt lat="44.65749" lon="3.06985">
        <ele>1210</ele>
        <time>2019-05-31T11:33:27.100Z</time>
      </trkpt>
      <trkpt lat="44.65748" lon="3.06989">
        <ele>1211</ele>
        <time>2019-05-31T11:33:31.099Z</time>
      </trkpt>
      <trkpt lat="44.65747" lon="3.06994">
        <ele>1211</ele>
        <time>2019-05-31T11:33:36.107Z</time>
      </trkpt>
      <trkpt lat="44.65744" lon="3.06998">
        <ele>1211</ele>
        <time>2019-05-31T11:33:41.130Z</time>
      </trkpt>
      <trkpt lat="44.65743" lon="3.07001">
        <ele>1211</ele>
        <time>2019-05-31T11:33:46.103Z</time>
      </trkpt>
      <trkpt lat="44.65742" lon="3.07007">
        <ele>1211</ele>
        <time>2019-05-31T11:33:50.135Z</time>
      </trkpt>
      <trkpt lat="44.65741" lon="3.07011">
        <ele>1211</ele>
        <time>2019-05-31T11:33:54.142Z</time>
      </trkpt>
      <trkpt lat="44.65738" lon="3.07017">
        <ele>1213</ele>
        <time>2019-05-31T11:33:59.134Z</time>
      </trkpt>
      <trkpt lat="44.65734" lon="3.07024">
        <ele>1211</ele>
        <time>2019-05-31T11:34:04.100Z</time>
      </trkpt>
      <trkpt lat="44.65732" lon="3.07031">
        <ele>1211</ele>
        <time>2019-05-31T11:34:08.142Z</time>
      </trkpt>
      <trkpt lat="44.65731" lon="3.07038">
        <ele>1211</ele>
        <time>2019-05-31T11:34:13.098Z</time>
      </trkpt>
      <trkpt lat="44.65731" lon="3.07045">
        <ele>1213</ele>
        <time>2019-05-31T11:34:18.107Z</time>
      </trkpt>
      <trkpt lat="44.65732" lon="3.07051">
        <ele>1213</ele>
        <time>2019-05-31T11:34:22.113Z</time>
      </trkpt>
      <trkpt lat="44.65734" lon="3.07059">
        <ele>1213</ele>
        <time>2019-05-31T11:34:27.139Z</time>
      </trkpt>
      <trkpt lat="44.65736" lon="3.07067">
        <ele>1213</ele>
        <time>2019-05-31T11:34:32.137Z</time>
      </trkpt>
      <trkpt lat="44.65737" lon="3.07074">
        <ele>1217</ele>
        <time>2019-05-31T11:34:37.106Z</time>
      </trkpt>
      <trkpt lat="44.65738" lon="3.0708">
        <ele>1217</ele>
        <time>2019-05-31T11:34:41.141Z</time>
      </trkpt>
      <trkpt lat="44.65739" lon="3.07086">
        <ele>1217</ele>
        <time>2019-05-31T11:34:46.137Z</time>
      </trkpt>
      <trkpt lat="44.6574" lon="3.07091">
        <ele>1217</ele>
        <time>2019-05-31T11:34:50.152Z</time>
      </trkpt>
      <trkpt lat="44.65741" lon="3.07098">
        <ele>1217</ele>
        <time>2019-05-31T11:34:55.138Z</time>
      </trkpt>
      <trkpt lat="44.65742" lon="3.07105">
        <ele>1217</ele>
        <time>2019-05-31T11:35:00.128Z</time>
      </trkpt>
      <trkpt lat="44.65743" lon="3.07111">
        <ele>1217</ele>
        <time>2019-05-31T11:35:05.093Z</time>
      </trkpt>
      <trkpt lat="44.65744" lon="3.07117">
        <ele>1217</ele>
        <time>2019-05-31T11:35:09.118Z</time>
      </trkpt>
      <trkpt lat="44.65745" lon="3.07125">
        <ele>1216</ele>
        <time>2019-05-31T11:35:14.117Z</time>
      </trkpt>
      <trkpt lat="44.65747" lon="3.07133">
        <ele>1216</ele>
        <time>2019-05-31T11:35:19.118Z</time>
      </trkpt>
      <trkpt lat="44.65749" lon="3.07141">
        <ele>1216</ele>
        <time>2019-05-31T11:35:24.148Z</time>
      </trkpt>
      <trkpt lat="44.65751" lon="3.07147">
        <ele>1216</ele>
        <time>2019-05-31T11:35:29.133Z</time>
      </trkpt>
      <trkpt lat="44.65753" lon="3.07154">
        <ele>1215</ele>
        <time>2019-05-31T11:35:34.131Z</time>
      </trkpt>
      <trkpt lat="44.65755" lon="3.07162">
        <ele>1215</ele>
        <time>2019-05-31T11:35:39.114Z</time>
      </trkpt>
      <trkpt lat="44.65756" lon="3.07168">
        <ele>1215</ele>
        <time>2019-05-31T11:35:43.116Z</time>
      </trkpt>
      <trkpt lat="44.65759" lon="3.07175">
        <ele>1215</ele>
        <time>2019-05-31T11:35:48.115Z</time>
      </trkpt>
      <trkpt lat="44.65762" lon="3.07182">
        <ele>1213</ele>
        <time>2019-05-31T11:35:53.116Z</time>
      </trkpt>
      <trkpt lat="44.65765" lon="3.07189">
        <ele>1214</ele>
        <time>2019-05-31T11:35:58.129Z</time>
      </trkpt>
      <trkpt lat="44.65767" lon="3.07196">
        <ele>1214</ele>
        <time>2019-05-31T11:36:03.122Z</time>
      </trkpt>
      <trkpt lat="44.6577" lon="3.07203">
        <ele>1214</ele>
        <time>2019-05-31T11:36:08.121Z</time>
      </trkpt>
      <trkpt lat="44.65772" lon="3.07211">
        <ele>1213</ele>
        <time>2019-05-31T11:36:13.123Z</time>
      </trkpt>
      <trkpt lat="44.65773" lon="3.07218">
        <ele>1213</ele>
        <time>2019-05-31T11:36:18.116Z</time>
      </trkpt>
      <trkpt lat="44.65776" lon="3.07226">
        <ele>1213</ele>
        <time>2019-05-31T11:36:23.114Z</time>
      </trkpt>
      <trkpt lat="44.6578" lon="3.07233">
        <ele>1213</ele>
        <time>2019-05-31T11:36:28.121Z</time>
      </trkpt>
      <trkpt lat="44.65786" lon="3.07239">
        <ele>1212</ele>
        <time>2019-05-31T11:36:33.118Z</time>
      </trkpt>
      <trkpt lat="44.65788" lon="3.07246">
        <ele>1212</ele>
        <time>2019-05-31T11:36:38.159Z</time>
      </trkpt>
      <trkpt lat="44.65786" lon="3.07253">
        <ele>1212</ele>
        <time>2019-05-31T11:36:43.118Z</time>
      </trkpt>
      <trkpt lat="44.65783" lon="3.07257">
        <ele>1212</ele>
        <time>2019-05-31T11:36:47.129Z</time>
      </trkpt>
      <trkpt lat="44.65783" lon="3.07264">
        <ele>1210</ele>
        <time>2019-05-31T11:36:52.124Z</time>
      </trkpt>
      <trkpt lat="44.65782" lon="3.07272">
        <ele>1210</ele>
        <time>2019-05-31T11:36:57.110Z</time>
      </trkpt>
      <trkpt lat="44.65783" lon="3.07276">
        <ele>1210</ele>
        <time>2019-05-31T11:37:01.115Z</time>
      </trkpt>
      <trkpt lat="44.65782" lon="3.07282">
        <ele>1210</ele>
        <time>2019-05-31T11:37:06.130Z</time>
      </trkpt>
      <trkpt lat="44.65782" lon="3.0729">
        <ele>1210</ele>
        <time>2019-05-31T11:37:11.112Z</time>
      </trkpt>
      <trkpt lat="44.65781" lon="3.07298">
        <ele>1210</ele>
        <time>2019-05-31T11:37:15.141Z</time>
      </trkpt>
      <trkpt lat="44.65779" lon="3.07304">
        <ele>1210</ele>
        <time>2019-05-31T11:37:20.115Z</time>
      </trkpt>
      <trkpt lat="44.65778" lon="3.07309">
        <ele>1210</ele>
        <time>2019-05-31T11:37:24.114Z</time>
      </trkpt>
      <trkpt lat="44.65776" lon="3.07314">
        <ele>1210</ele>
        <time>2019-05-31T11:37:28.161Z</time>
      </trkpt>
      <trkpt lat="44.65774" lon="3.07318">
        <ele>1210</ele>
        <time>2019-05-31T11:37:33.111Z</time>
      </trkpt>
      <trkpt lat="44.65774" lon="3.07322">
        <ele>1211</ele>
        <time>2019-05-31T11:37:37.117Z</time>
      </trkpt>
      <trkpt lat="44.65774" lon="3.07331">
        <ele>1211</ele>
        <time>2019-05-31T11:37:42.095Z</time>
      </trkpt>
      <trkpt lat="44.65773" lon="3.07336">
        <ele>1211</ele>
        <time>2019-05-31T11:37:46.100Z</time>
      </trkpt>
      <trkpt lat="44.6577" lon="3.07341">
        <ele>1211</ele>
        <time>2019-05-31T11:37:50.118Z</time>
      </trkpt>
      <trkpt lat="44.65765" lon="3.07344">
        <ele>1211</ele>
        <time>2019-05-31T11:37:55.119Z</time>
      </trkpt>
      <trkpt lat="44.65762" lon="3.07349">
        <ele>1207</ele>
        <time>2019-05-31T11:38:00.118Z</time>
      </trkpt>
      <trkpt lat="44.6576" lon="3.07356">
        <ele>1207</ele>
        <time>2019-05-31T11:38:05.115Z</time>
      </trkpt>
      <trkpt lat="44.65759" lon="3.07363">
        <ele>1207</ele>
        <time>2019-05-31T11:38:10.114Z</time>
      </trkpt>
      <trkpt lat="44.6576" lon="3.07371">
        <ele>1207</ele>
        <time>2019-05-31T11:38:15.122Z</time>
      </trkpt>
      <trkpt lat="44.65759" lon="3.07379">
        <ele>1204</ele>
        <time>2019-05-31T11:38:20.116Z</time>
      </trkpt>
      <trkpt lat="44.6576" lon="3.07386">
        <ele>1204</ele>
        <time>2019-05-31T11:38:24.139Z</time>
      </trkpt>
      <trkpt lat="44.65759" lon="3.07394">
        <ele>1204</ele>
        <time>2019-05-31T11:38:29.098Z</time>
      </trkpt>
      <trkpt lat="44.65759" lon="3.07401">
        <ele>1204</ele>
        <time>2019-05-31T11:38:33.115Z</time>
      </trkpt>
      <trkpt lat="44.65759" lon="3.07408">
        <ele>1203</ele>
        <time>2019-05-31T11:38:38.120Z</time>
      </trkpt>
      <trkpt lat="44.65756" lon="3.07414">
        <ele>1203</ele>
        <time>2019-05-31T11:38:43.118Z</time>
      </trkpt>
      <trkpt lat="44.65755" lon="3.07421">
        <ele>1203</ele>
        <time>2019-05-31T11:38:48.164Z</time>
      </trkpt>
      <trkpt lat="44.65754" lon="3.07427">
        <ele>1203</ele>
        <time>2019-05-31T11:38:53.115Z</time>
      </trkpt>
      <trkpt lat="44.65754" lon="3.07432">
        <ele>1202</ele>
        <time>2019-05-31T11:38:57.174Z</time>
      </trkpt>
      <trkpt lat="44.65754" lon="3.07439">
        <ele>1202</ele>
        <time>2019-05-31T11:39:02.151Z</time>
      </trkpt>
      <trkpt lat="44.65753" lon="3.07446">
        <ele>1202</ele>
        <time>2019-05-31T11:39:07.117Z</time>
      </trkpt>
      <trkpt lat="44.65751" lon="3.07452">
        <ele>1202</ele>
        <time>2019-05-31T11:39:11.120Z</time>
      </trkpt>
      <trkpt lat="44.65748" lon="3.07459">
        <ele>1201</ele>
        <time>2019-05-31T11:39:16.115Z</time>
      </trkpt>
      <trkpt lat="44.65746" lon="3.07466">
        <ele>1201</ele>
        <time>2019-05-31T11:39:21.118Z</time>
      </trkpt>
      <trkpt lat="44.65744" lon="3.07472">
        <ele>1201</ele>
        <time>2019-05-31T11:39:25.153Z</time>
      </trkpt>
      <trkpt lat="44.65742" lon="3.07479">
        <ele>1201</ele>
        <time>2019-05-31T11:39:30.141Z</time>
      </trkpt>
      <trkpt lat="44.65741" lon="3.07487">
        <ele>1199</ele>
        <time>2019-05-31T11:39:35.137Z</time>
      </trkpt>
      <trkpt lat="44.65739" lon="3.07495">
        <ele>1199</ele>
        <time>2019-05-31T11:39:40.114Z</time>
      </trkpt>
      <trkpt lat="44.65737" lon="3.07501">
        <ele>1199</ele>
        <time>2019-05-31T11:39:44.119Z</time>
      </trkpt>
      <trkpt lat="44.65736" lon="3.07507">
        <ele>1196</ele>
        <time>2019-05-31T11:39:48.134Z</time>
      </trkpt>
      <trkpt lat="44.65733" lon="3.07513">
        <ele>1196</ele>
        <time>2019-05-31T11:39:53.116Z</time>
      </trkpt>
      <trkpt lat="44.65731" lon="3.07517">
        <ele>1195</ele>
        <time>2019-05-31T11:39:57.154Z</time>
      </trkpt>
      <trkpt lat="44.65729" lon="3.07522">
        <ele>1195</ele>
        <time>2019-05-31T11:40:02.144Z</time>
      </trkpt>
      <trkpt lat="44.65726" lon="3.07528">
        <ele>1195</ele>
        <time>2019-05-31T11:40:07.160Z</time>
      </trkpt>
      <trkpt lat="44.65722" lon="3.07535">
        <ele>1195</ele>
        <time>2019-05-31T11:40:12.154Z</time>
      </trkpt>
      <trkpt lat="44.6572" lon="3.07543">
        <ele>1194</ele>
        <time>2019-05-31T11:40:17.093Z</time>
      </trkpt>
      <trkpt lat="44.65717" lon="3.07547">
        <ele>1194</ele>
        <time>2019-05-31T11:40:21.110Z</time>
      </trkpt>
      <trkpt lat="44.65714" lon="3.07552">
        <ele>1194</ele>
        <time>2019-05-31T11:40:25.121Z</time>
      </trkpt>
      <trkpt lat="44.65711" lon="3.07557">
        <ele>1194</ele>
        <time>2019-05-31T11:40:29.143Z</time>
      </trkpt>
      <trkpt lat="44.65706" lon="3.07562">
        <ele>1191</ele>
        <time>2019-05-31T11:40:34.121Z</time>
      </trkpt>
      <trkpt lat="44.65702" lon="3.07568">
        <ele>1191</ele>
        <time>2019-05-31T11:40:39.113Z</time>
      </trkpt>
      <trkpt lat="44.65699" lon="3.07575">
        <ele>1190</ele>
        <time>2019-05-31T11:40:44.125Z</time>
      </trkpt>
      <trkpt lat="44.65696" lon="3.07582">
        <ele>1190</ele>
        <time>2019-05-31T11:40:49.126Z</time>
      </trkpt>
      <trkpt lat="44.65694" lon="3.07587">
        <ele>1190</ele>
        <time>2019-05-31T11:40:53.152Z</time>
      </trkpt>
      <trkpt lat="44.65691" lon="3.07593">
        <ele>1190</ele>
        <time>2019-05-31T11:40:58.120Z</time>
      </trkpt>
      <trkpt lat="44.65689" lon="3.07598">
        <ele>1189</ele>
        <time>2019-05-31T11:41:02.135Z</time>
      </trkpt>
      <trkpt lat="44.65686" lon="3.07606">
        <ele>1189</ele>
        <time>2019-05-31T11:41:07.112Z</time>
      </trkpt>
      <trkpt lat="44.65684" lon="3.07612">
        <ele>1189</ele>
        <time>2019-05-31T11:41:12.112Z</time>
      </trkpt>
      <trkpt lat="44.65682" lon="3.07619">
        <ele>1189</ele>
        <time>2019-05-31T11:41:17.118Z</time>
      </trkpt>
      <trkpt lat="44.65679" lon="3.07627">
        <ele>1187</ele>
        <time>2019-05-31T11:41:22.116Z</time>
      </trkpt>
      <trkpt lat="44.65677" lon="3.07633">
        <ele>1187</ele>
        <time>2019-05-31T11:41:27.121Z</time>
      </trkpt>
      <trkpt lat="44.65676" lon="3.0764">
        <ele>1187</ele>
        <time>2019-05-31T11:41:32.121Z</time>
      </trkpt>
      <trkpt lat="44.65674" lon="3.0765">
        <ele>1187</ele>
        <time>2019-05-31T11:41:37.124Z</time>
      </trkpt>
      <trkpt lat="44.65672" lon="3.07655">
        <ele>1186</ele>
        <time>2019-05-31T11:41:41.124Z</time>
      </trkpt>
      <trkpt lat="44.65669" lon="3.07661">
        <ele>1186</ele>
        <time>2019-05-31T11:41:46.114Z</time>
      </trkpt>
      <trkpt lat="44.65667" lon="3.07667">
        <ele>1186</ele>
        <time>2019-05-31T11:41:51.121Z</time>
      </trkpt>
      <trkpt lat="44.65664" lon="3.07674">
        <ele>1186</ele>
        <time>2019-05-31T11:41:56.122Z</time>
      </trkpt>
      <trkpt lat="44.65661" lon="3.07682">
        <ele>1186</ele>
        <time>2019-05-31T11:42:01.136Z</time>
      </trkpt>
      <trkpt lat="44.65661" lon="3.07689">
        <ele>1186</ele>
        <time>2019-05-31T11:42:06.132Z</time>
      </trkpt>
      <trkpt lat="44.65659" lon="3.07696">
        <ele>1186</ele>
        <time>2019-05-31T11:42:11.115Z</time>
      </trkpt>
      <trkpt lat="44.65658" lon="3.07702">
        <ele>1186</ele>
        <time>2019-05-31T11:42:15.120Z</time>
      </trkpt>
      <trkpt lat="44.65656" lon="3.0771">
        <ele>1185</ele>
        <time>2019-05-31T11:42:20.117Z</time>
      </trkpt>
      <trkpt lat="44.65654" lon="3.07719">
        <ele>1185</ele>
        <time>2019-05-31T11:42:25.122Z</time>
      </trkpt>
      <trkpt lat="44.65655" lon="3.07728">
        <ele>1185</ele>
        <time>2019-05-31T11:42:30.117Z</time>
      </trkpt>
      <trkpt lat="44.65654" lon="3.07736">
        <ele>1185</ele>
        <time>2019-05-31T11:42:34.155Z</time>
      </trkpt>
      <trkpt lat="44.65654" lon="3.07745">
        <ele>1184</ele>
        <time>2019-05-31T11:42:39.121Z</time>
      </trkpt>
      <trkpt lat="44.65656" lon="3.07753">
        <ele>1184</ele>
        <time>2019-05-31T11:42:44.112Z</time>
      </trkpt>
      <trkpt lat="44.65656" lon="3.07761">
        <ele>1184</ele>
        <time>2019-05-31T11:42:48.153Z</time>
      </trkpt>
      <trkpt lat="44.65655" lon="3.0777">
        <ele>1184</ele>
        <time>2019-05-31T11:42:53.121Z</time>
      </trkpt>
      <trkpt lat="44.65656" lon="3.07776">
        <ele>1184</ele>
        <time>2019-05-31T11:42:57.132Z</time>
      </trkpt>
      <trkpt lat="44.65655" lon="3.07784">
        <ele>1184</ele>
        <time>2019-05-31T11:43:02.140Z</time>
      </trkpt>
      <trkpt lat="44.65655" lon="3.07792">
        <ele>1185</ele>
        <time>2019-05-31T11:43:07.119Z</time>
      </trkpt>
      <trkpt lat="44.65655" lon="3.078">
        <ele>1185</ele>
        <time>2019-05-31T11:43:12.115Z</time>
      </trkpt>
      <trkpt lat="44.65655" lon="3.07807">
        <ele>1185</ele>
        <time>2019-05-31T11:43:17.121Z</time>
      </trkpt>
      <trkpt lat="44.65655" lon="3.07814">
        <ele>1185</ele>
        <time>2019-05-31T11:43:22.114Z</time>
      </trkpt>
      <trkpt lat="44.65654" lon="3.07822">
        <ele>1184</ele>
        <time>2019-05-31T11:43:27.093Z</time>
      </trkpt>
      <trkpt lat="44.65654" lon="3.07827">
        <ele>1184</ele>
        <time>2019-05-31T11:43:31.123Z</time>
      </trkpt>
      <trkpt lat="44.65653" lon="3.07834">
        <ele>1184</ele>
        <time>2019-05-31T11:43:35.134Z</time>
      </trkpt>
      <trkpt lat="44.65652" lon="3.07842">
        <ele>1183</ele>
        <time>2019-05-31T11:43:40.125Z</time>
      </trkpt>
      <trkpt lat="44.65652" lon="3.07848">
        <ele>1182</ele>
        <time>2019-05-31T11:43:44.120Z</time>
      </trkpt>
      <trkpt lat="44.65654" lon="3.07854">
        <ele>1182</ele>
        <time>2019-05-31T11:43:49.097Z</time>
      </trkpt>
      <trkpt lat="44.65654" lon="3.07857">
        <ele>1182</ele>
        <time>2019-05-31T11:43:54.102Z</time>
      </trkpt>
      <trkpt lat="44.65654" lon="3.07864">
        <ele>1182</ele>
        <time>2019-05-31T11:43:59.096Z</time>
      </trkpt>
      <trkpt lat="44.65655" lon="3.07872">
        <ele>1182</ele>
        <time>2019-05-31T11:44:04.102Z</time>
      </trkpt>
      <trkpt lat="44.65655" lon="3.07879">
        <ele>1181</ele>
        <time>2019-05-31T11:44:08.116Z</time>
      </trkpt>
      <trkpt lat="44.65657" lon="3.07886">
        <ele>1181</ele>
        <time>2019-05-31T11:44:13.118Z</time>
      </trkpt>
      <trkpt lat="44.65659" lon="3.07892">
        <ele>1181</ele>
        <time>2019-05-31T11:44:18.121Z</time>
      </trkpt>
      <trkpt lat="44.65662" lon="3.07898">
        <ele>1181</ele>
        <time>2019-05-31T11:44:23.140Z</time>
      </trkpt>
      <trkpt lat="44.65665" lon="3.07905">
        <ele>1180</ele>
        <time>2019-05-31T11:44:28.139Z</time>
      </trkpt>
      <trkpt lat="44.65666" lon="3.07911">
        <ele>1180</ele>
        <time>2019-05-31T11:44:33.142Z</time>
      </trkpt>
      <trkpt lat="44.65669" lon="3.07919">
        <ele>1180</ele>
        <time>2019-05-31T11:44:38.120Z</time>
      </trkpt>
      <trkpt lat="44.65671" lon="3.07927">
        <ele>1180</ele>
        <time>2019-05-31T11:44:43.124Z</time>
      </trkpt>
      <trkpt lat="44.65673" lon="3.07935">
        <ele>1180</ele>
        <time>2019-05-31T11:44:48.125Z</time>
      </trkpt>
      <trkpt lat="44.65673" lon="3.07941">
        <ele>1180</ele>
        <time>2019-05-31T11:44:52.142Z</time>
      </trkpt>
      <trkpt lat="44.65673" lon="3.07949">
        <ele>1180</ele>
        <time>2019-05-31T11:44:57.136Z</time>
      </trkpt>
      <trkpt lat="44.65674" lon="3.07957">
        <ele>1180</ele>
        <time>2019-05-31T11:45:02.114Z</time>
      </trkpt>
      <trkpt lat="44.65674" lon="3.07964">
        <ele>1179</ele>
        <time>2019-05-31T11:45:06.144Z</time>
      </trkpt>
      <trkpt lat="44.65675" lon="3.07972">
        <ele>1179</ele>
        <time>2019-05-31T11:45:11.117Z</time>
      </trkpt>
      <trkpt lat="44.65676" lon="3.07974">
        <ele>1179</ele>
        <time>2019-05-31T11:45:15.120Z</time>
      </trkpt>
      <trkpt lat="44.65677" lon="3.07979">
        <ele>1179</ele>
        <time>2019-05-31T11:45:25.131Z</time>
      </trkpt>
      <trkpt lat="44.65678" lon="3.07987">
        <ele>1180</ele>
        <time>2019-05-31T11:45:30.125Z</time>
      </trkpt>
      <trkpt lat="44.65678" lon="3.07995">
        <ele>1180</ele>
        <time>2019-05-31T11:45:35.129Z</time>
      </trkpt>
      <trkpt lat="44.65678" lon="3.08003">
        <ele>1180</ele>
        <time>2019-05-31T11:45:40.116Z</time>
      </trkpt>
      <trkpt lat="44.65677" lon="3.0801">
        <ele>1180</ele>
        <time>2019-05-31T11:45:45.120Z</time>
      </trkpt>
      <trkpt lat="44.65676" lon="3.08018">
        <ele>1179</ele>
        <time>2019-05-31T11:45:50.120Z</time>
      </trkpt>
      <trkpt lat="44.65672" lon="3.08028">
        <ele>1179</ele>
        <time>2019-05-31T11:45:55.130Z</time>
      </trkpt>
      <trkpt lat="44.6567" lon="3.08035">
        <ele>1179</ele>
        <time>2019-05-31T11:46:00.126Z</time>
      </trkpt>
      <trkpt lat="44.65668" lon="3.08039">
        <ele>1179</ele>
        <time>2019-05-31T11:46:04.150Z</time>
      </trkpt>
      <trkpt lat="44.65667" lon="3.08046">
        <ele>1180</ele>
        <time>2019-05-31T11:46:09.126Z</time>
      </trkpt>
      <trkpt lat="44.65666" lon="3.08052">
        <ele>1180</ele>
        <time>2019-05-31T11:46:13.151Z</time>
      </trkpt>
      <trkpt lat="44.65666" lon="3.08059">
        <ele>1180</ele>
        <time>2019-05-31T11:46:18.120Z</time>
      </trkpt>
      <trkpt lat="44.65664" lon="3.08066">
        <ele>1180</ele>
        <time>2019-05-31T11:46:22.146Z</time>
      </trkpt>
      <trkpt lat="44.65663" lon="3.08073">
        <ele>1180</ele>
        <time>2019-05-31T11:46:27.120Z</time>
      </trkpt>
      <trkpt lat="44.6566" lon="3.08082">
        <ele>1180</ele>
        <time>2019-05-31T11:46:32.125Z</time>
      </trkpt>
      <trkpt lat="44.6566" lon="3.08087">
        <ele>1180</ele>
        <time>2019-05-31T11:46:36.147Z</time>
      </trkpt>
      <trkpt lat="44.65659" lon="3.08095">
        <ele>1180</ele>
        <time>2019-05-31T11:46:41.122Z</time>
      </trkpt>
      <trkpt lat="44.65655" lon="3.08103">
        <ele>1180</ele>
        <time>2019-05-31T11:46:46.116Z</time>
      </trkpt>
      <trkpt lat="44.65653" lon="3.08111">
        <ele>1179</ele>
        <time>2019-05-31T11:46:51.113Z</time>
      </trkpt>
      <trkpt lat="44.6565" lon="3.08119">
        <ele>1179</ele>
        <time>2019-05-31T11:46:56.112Z</time>
      </trkpt>
      <trkpt lat="44.65649" lon="3.08127">
        <ele>1178</ele>
        <time>2019-05-31T11:47:01.125Z</time>
      </trkpt>
      <trkpt lat="44.6565" lon="3.08135">
        <ele>1178</ele>
        <time>2019-05-31T11:47:06.123Z</time>
      </trkpt>
      <trkpt lat="44.6565" lon="3.08142">
        <ele>1178</ele>
        <time>2019-05-31T11:47:11.093Z</time>
      </trkpt>
      <trkpt lat="44.6565" lon="3.08147">
        <ele>1178</ele>
        <time>2019-05-31T11:47:15.121Z</time>
      </trkpt>
      <trkpt lat="44.65648" lon="3.08155">
        <ele>1177</ele>
        <time>2019-05-31T11:47:20.123Z</time>
      </trkpt>
      <trkpt lat="44.65648" lon="3.08163">
        <ele>1177</ele>
        <time>2019-05-31T11:47:25.121Z</time>
      </trkpt>
      <trkpt lat="44.65649" lon="3.08173">
        <ele>1177</ele>
        <time>2019-05-31T11:47:30.142Z</time>
      </trkpt>
      <trkpt lat="44.65648" lon="3.0818">
        <ele>1177</ele>
        <time>2019-05-31T11:47:34.163Z</time>
      </trkpt>
      <trkpt lat="44.65645" lon="3.08188">
        <ele>1178</ele>
        <time>2019-05-31T11:47:39.120Z</time>
      </trkpt>
      <trkpt lat="44.65643" lon="3.08195">
        <ele>1178</ele>
        <time>2019-05-31T11:47:44.148Z</time>
      </trkpt>
      <trkpt lat="44.6564" lon="3.08203">
        <ele>1178</ele>
        <time>2019-05-31T11:47:49.121Z</time>
      </trkpt>
      <trkpt lat="44.65638" lon="3.08209">
        <ele>1178</ele>
        <time>2019-05-31T11:47:53.125Z</time>
      </trkpt>
      <trkpt lat="44.65637" lon="3.08218">
        <ele>1178</ele>
        <time>2019-05-31T11:47:58.135Z</time>
      </trkpt>
      <trkpt lat="44.65636" lon="3.08227">
        <ele>1178</ele>
        <time>2019-05-31T11:48:03.142Z</time>
      </trkpt>
      <trkpt lat="44.65633" lon="3.08235">
        <ele>1178</ele>
        <time>2019-05-31T11:48:08.126Z</time>
      </trkpt>
      <trkpt lat="44.65632" lon="3.08242">
        <ele>1178</ele>
        <time>2019-05-31T11:48:13.122Z</time>
      </trkpt>
      <trkpt lat="44.65631" lon="3.0825">
        <ele>1178</ele>
        <time>2019-05-31T11:48:18.119Z</time>
      </trkpt>
      <trkpt lat="44.6563" lon="3.08256">
        <ele>1178</ele>
        <time>2019-05-31T11:48:22.125Z</time>
      </trkpt>
      <trkpt lat="44.65629" lon="3.08264">
        <ele>1178</ele>
        <time>2019-05-31T11:48:27.167Z</time>
      </trkpt>
      <trkpt lat="44.65629" lon="3.08271">
        <ele>1177</ele>
        <time>2019-05-31T11:48:32.145Z</time>
      </trkpt>
      <trkpt lat="44.65628" lon="3.0828">
        <ele>1177</ele>
        <time>2019-05-31T11:48:37.151Z</time>
      </trkpt>
      <trkpt lat="44.65626" lon="3.08289">
        <ele>1177</ele>
        <time>2019-05-31T11:48:42.132Z</time>
      </trkpt>
      <trkpt lat="44.65626" lon="3.08297">
        <ele>1176</ele>
        <time>2019-05-31T11:48:47.118Z</time>
      </trkpt>
      <trkpt lat="44.65625" lon="3.08304">
        <ele>1176</ele>
        <time>2019-05-31T11:48:51.122Z</time>
      </trkpt>
      <trkpt lat="44.65624" lon="3.08312">
        <ele>1176</ele>
        <time>2019-05-31T11:48:56.116Z</time>
      </trkpt>
      <trkpt lat="44.65624" lon="3.08319">
        <ele>1176</ele>
        <time>2019-05-31T11:49:00.120Z</time>
      </trkpt>
      <trkpt lat="44.65623" lon="3.08327">
        <ele>1176</ele>
        <time>2019-05-31T11:49:05.160Z</time>
      </trkpt>
      <trkpt lat="44.65622" lon="3.08334">
        <ele>1176</ele>
        <time>2019-05-31T11:49:10.123Z</time>
      </trkpt>
      <trkpt lat="44.65623" lon="3.08337">
        <ele>1176</ele>
        <time>2019-05-31T11:49:15.123Z</time>
      </trkpt>
      <trkpt lat="44.6562" lon="3.0834">
        <ele>1176</ele>
        <time>2019-05-31T11:49:20.128Z</time>
      </trkpt>
      <trkpt lat="44.65619" lon="3.08347">
        <ele>1176</ele>
        <time>2019-05-31T11:49:24.137Z</time>
      </trkpt>
      <trkpt lat="44.65618" lon="3.08356">
        <ele>1176</ele>
        <time>2019-05-31T11:49:29.148Z</time>
      </trkpt>
      <trkpt lat="44.65617" lon="3.08365">
        <ele>1176</ele>
        <time>2019-05-31T11:49:34.119Z</time>
      </trkpt>
      <trkpt lat="44.65616" lon="3.08373">
        <ele>1176</ele>
        <time>2019-05-31T11:49:39.122Z</time>
      </trkpt>
      <trkpt lat="44.65614" lon="3.08382">
        <ele>1175</ele>
        <time>2019-05-31T11:49:44.114Z</time>
      </trkpt>
      <trkpt lat="44.65613" lon="3.08388">
        <ele>1175</ele>
        <time>2019-05-31T11:49:48.146Z</time>
      </trkpt>
      <trkpt lat="44.65612" lon="3.08397">
        <ele>1175</ele>
        <time>2019-05-31T11:49:53.117Z</time>
      </trkpt>
      <trkpt lat="44.65611" lon="3.08405">
        <ele>1174</ele>
        <time>2019-05-31T11:49:58.118Z</time>
      </trkpt>
      <trkpt lat="44.6561" lon="3.08413">
        <ele>1174</ele>
        <time>2019-05-31T11:50:02.124Z</time>
      </trkpt>
      <trkpt lat="44.65608" lon="3.0842">
        <ele>1174</ele>
        <time>2019-05-31T11:50:07.151Z</time>
      </trkpt>
      <trkpt lat="44.65608" lon="3.08427">
        <ele>1174</ele>
        <time>2019-05-31T11:50:12.154Z</time>
      </trkpt>
      <trkpt lat="44.65607" lon="3.08435">
        <ele>1173</ele>
        <time>2019-05-31T11:50:17.130Z</time>
      </trkpt>
      <trkpt lat="44.65606" lon="3.08442">
        <ele>1173</ele>
        <time>2019-05-31T11:50:22.119Z</time>
      </trkpt>
      <trkpt lat="44.65604" lon="3.08449">
        <ele>1173</ele>
        <time>2019-05-31T11:50:26.121Z</time>
      </trkpt>
      <trkpt lat="44.65603" lon="3.08457">
        <ele>1173</ele>
        <time>2019-05-31T11:50:31.122Z</time>
      </trkpt>
      <trkpt lat="44.65604" lon="3.08465">
        <ele>1172</ele>
        <time>2019-05-31T11:50:36.120Z</time>
      </trkpt>
      <trkpt lat="44.65603" lon="3.08473">
        <ele>1172</ele>
        <time>2019-05-31T11:50:41.159Z</time>
      </trkpt>
      <trkpt lat="44.65601" lon="3.0848">
        <ele>1172</ele>
        <time>2019-05-31T11:50:46.123Z</time>
      </trkpt>
      <trkpt lat="44.656" lon="3.08487">
        <ele>1172</ele>
        <time>2019-05-31T11:50:50.151Z</time>
      </trkpt>
      <trkpt lat="44.65599" lon="3.08496">
        <ele>1172</ele>
        <time>2019-05-31T11:50:55.109Z</time>
      </trkpt>
      <trkpt lat="44.65598" lon="3.08503">
        <ele>1172</ele>
        <time>2019-05-31T11:50:59.115Z</time>
      </trkpt>
      <trkpt lat="44.65596" lon="3.08511">
        <ele>1171</ele>
        <time>2019-05-31T11:51:04.121Z</time>
      </trkpt>
      <trkpt lat="44.65594" lon="3.08519">
        <ele>1171</ele>
        <time>2019-05-31T11:51:09.126Z</time>
      </trkpt>
      <trkpt lat="44.65593" lon="3.08527">
        <ele>1171</ele>
        <time>2019-05-31T11:51:14.119Z</time>
      </trkpt>
      <trkpt lat="44.65592" lon="3.08537">
        <ele>1171</ele>
        <time>2019-05-31T11:51:19.132Z</time>
      </trkpt>
      <trkpt lat="44.6559" lon="3.08544">
        <ele>1171</ele>
        <time>2019-05-31T11:51:24.115Z</time>
      </trkpt>
      <trkpt lat="44.65587" lon="3.08552">
        <ele>1171</ele>
        <time>2019-05-31T11:51:29.122Z</time>
      </trkpt>
      <trkpt lat="44.65586" lon="3.08561">
        <ele>1171</ele>
        <time>2019-05-31T11:51:34.131Z</time>
      </trkpt>
      <trkpt lat="44.65584" lon="3.08568">
        <ele>1171</ele>
        <time>2019-05-31T11:51:39.133Z</time>
      </trkpt>
      <trkpt lat="44.65581" lon="3.08575">
        <ele>1171</ele>
        <time>2019-05-31T11:51:44.128Z</time>
      </trkpt>
      <trkpt lat="44.65579" lon="3.08582">
        <ele>1171</ele>
        <time>2019-05-31T11:51:49.115Z</time>
      </trkpt>
      <trkpt lat="44.65576" lon="3.08591">
        <ele>1171</ele>
        <time>2019-05-31T11:51:54.114Z</time>
      </trkpt>
      <trkpt lat="44.65574" lon="3.08597">
        <ele>1171</ele>
        <time>2019-05-31T11:51:58.141Z</time>
      </trkpt>
      <trkpt lat="44.65571" lon="3.08603">
        <ele>1171</ele>
        <time>2019-05-31T11:52:03.118Z</time>
      </trkpt>
      <trkpt lat="44.6557" lon="3.08611">
        <ele>1171</ele>
        <time>2019-05-31T11:52:08.098Z</time>
      </trkpt>
      <trkpt lat="44.6557" lon="3.08617">
        <ele>1171</ele>
        <time>2019-05-31T11:52:12.099Z</time>
      </trkpt>
      <trkpt lat="44.65569" lon="3.08624">
        <ele>1171</ele>
        <time>2019-05-31T11:52:17.110Z</time>
      </trkpt>
      <trkpt lat="44.65567" lon="3.08631">
        <ele>1170</ele>
        <time>2019-05-31T11:52:22.102Z</time>
      </trkpt>
      <trkpt lat="44.65566" lon="3.08637">
        <ele>1170</ele>
        <time>2019-05-31T11:52:26.113Z</time>
      </trkpt>
      <trkpt lat="44.65564" lon="3.08642">
        <ele>1170</ele>
        <time>2019-05-31T11:52:30.134Z</time>
      </trkpt>
      <trkpt lat="44.65561" lon="3.0865">
        <ele>1170</ele>
        <time>2019-05-31T11:52:35.102Z</time>
      </trkpt>
      <trkpt lat="44.65558" lon="3.0866">
        <ele>1168</ele>
        <time>2019-05-31T11:52:40.097Z</time>
      </trkpt>
      <trkpt lat="44.65555" lon="3.08665">
        <ele>1168</ele>
        <time>2019-05-31T11:52:44.141Z</time>
      </trkpt>
      <trkpt lat="44.65551" lon="3.08672">
        <ele>1168</ele>
        <time>2019-05-31T11:52:49.098Z</time>
      </trkpt>
      <trkpt lat="44.65549" lon="3.08677">
        <ele>1168</ele>
        <time>2019-05-31T11:52:53.114Z</time>
      </trkpt>
      <trkpt lat="44.65547" lon="3.08683">
        <ele>1167</ele>
        <time>2019-05-31T11:52:58.103Z</time>
      </trkpt>
      <trkpt lat="44.65545" lon="3.0869">
        <ele>1167</ele>
        <time>2019-05-31T11:53:03.104Z</time>
      </trkpt>
      <trkpt lat="44.65543" lon="3.08697">
        <ele>1167</ele>
        <time>2019-05-31T11:53:08.107Z</time>
      </trkpt>
      <trkpt lat="44.65542" lon="3.08704">
        <ele>1167</ele>
        <time>2019-05-31T11:53:13.112Z</time>
      </trkpt>
      <trkpt lat="44.65541" lon="3.08711">
        <ele>1166</ele>
        <time>2019-05-31T11:53:18.111Z</time>
      </trkpt>
      <trkpt lat="44.65538" lon="3.08717">
        <ele>1166</ele>
        <time>2019-05-31T11:53:22.143Z</time>
      </trkpt>
      <trkpt lat="44.65536" lon="3.08724">
        <ele>1166</ele>
        <time>2019-05-31T11:53:27.112Z</time>
      </trkpt>
      <trkpt lat="44.65532" lon="3.08728">
        <ele>1166</ele>
        <time>2019-05-31T11:53:31.144Z</time>
      </trkpt>
      <trkpt lat="44.65528" lon="3.08736">
        <ele>1166</ele>
        <time>2019-05-31T11:53:36.143Z</time>
      </trkpt>
      <trkpt lat="44.65526" lon="3.08741">
        <ele>1165</ele>
        <time>2019-05-31T11:53:41.125Z</time>
      </trkpt>
      <trkpt lat="44.65523" lon="3.08747">
        <ele>1165</ele>
        <time>2019-05-31T11:53:46.104Z</time>
      </trkpt>
      <trkpt lat="44.65521" lon="3.08754">
        <ele>1165</ele>
        <time>2019-05-31T11:53:50.126Z</time>
      </trkpt>
      <trkpt lat="44.6552" lon="3.08762">
        <ele>1165</ele>
        <time>2019-05-31T11:53:55.108Z</time>
      </trkpt>
      <trkpt lat="44.6552" lon="3.08766">
        <ele>1163</ele>
        <time>2019-05-31T11:53:59.115Z</time>
      </trkpt>
      <trkpt lat="44.6552" lon="3.08772">
        <ele>1163</ele>
        <time>2019-05-31T11:54:03.150Z</time>
      </trkpt>
      <trkpt lat="44.6552" lon="3.08776">
        <ele>1163</ele>
        <time>2019-05-31T11:54:07.144Z</time>
      </trkpt>
      <trkpt lat="44.65517" lon="3.08784">
        <ele>1163</ele>
        <time>2019-05-31T11:55:03.123Z</time>
      </trkpt>
      <trkpt lat="44.65516" lon="3.08785">
        <ele>1163</ele>
        <time>2019-05-31T11:55:08.116Z</time>
      </trkpt>
      <trkpt lat="44.65516" lon="3.08786">
        <ele>1163</ele>
        <time>2019-05-31T11:55:12.145Z</time>
      </trkpt>
      <trkpt lat="44.65515" lon="3.08787">
        <ele>1163</ele>
        <time>2019-05-31T11:55:17.138Z</time>
      </trkpt>
      <trkpt lat="44.65513" lon="3.08789">
        <ele>1162</ele>
        <time>2019-05-31T11:55:22.094Z</time>
      </trkpt>
      <trkpt lat="44.65509" lon="3.08794">
        <ele>1159</ele>
        <time>2019-05-31T11:55:31.134Z</time>
      </trkpt>
      <trkpt lat="44.65508" lon="3.08795">
        <ele>1159</ele>
        <time>2019-05-31T11:55:36.119Z</time>
      </trkpt>
      <trkpt lat="44.65505" lon="3.08796">
        <ele>1159</ele>
        <time>2019-05-31T11:56:30.111Z</time>
      </trkpt>
      <trkpt lat="44.65501" lon="3.08803">
        <ele>1159</ele>
        <time>2019-05-31T11:56:34.114Z</time>
      </trkpt>
      <trkpt lat="44.65497" lon="3.08813">
        <ele>1159</ele>
        <time>2019-05-31T11:56:39.097Z</time>
      </trkpt>
      <trkpt lat="44.65494" lon="3.08818">
        <ele>1159</ele>
        <time>2019-05-31T11:56:43.148Z</time>
      </trkpt>
      <trkpt lat="44.6549" lon="3.08823">
        <ele>1156</ele>
        <time>2019-05-31T11:56:48.122Z</time>
      </trkpt>
      <trkpt lat="44.65486" lon="3.08828">
        <ele>1156</ele>
        <time>2019-05-31T11:56:53.116Z</time>
      </trkpt>
      <trkpt lat="44.65485" lon="3.08833">
        <ele>1154</ele>
        <time>2019-05-31T11:56:58.117Z</time>
      </trkpt>
      <trkpt lat="44.65484" lon="3.08834">
        <ele>1154</ele>
        <time>2019-05-31T11:57:03.112Z</time>
      </trkpt>
      <trkpt lat="44.65484" lon="3.08839">
        <ele>1154</ele>
        <time>2019-05-31T11:57:08.114Z</time>
      </trkpt>
      <trkpt lat="44.65483" lon="3.08845">
        <ele>1154</ele>
        <time>2019-05-31T11:57:13.119Z</time>
      </trkpt>
      <trkpt lat="44.65483" lon="3.08852">
        <ele>1153</ele>
        <time>2019-05-31T11:57:18.118Z</time>
      </trkpt>
      <trkpt lat="44.65484" lon="3.08858">
        <ele>1153</ele>
        <time>2019-05-31T11:57:23.113Z</time>
      </trkpt>
      <trkpt lat="44.65482" lon="3.08863">
        <ele>1153</ele>
        <time>2019-05-31T11:57:28.124Z</time>
      </trkpt>
      <trkpt lat="44.65482" lon="3.08865">
        <ele>1153</ele>
        <time>2019-05-31T11:57:33.152Z</time>
      </trkpt>
      <trkpt lat="44.65479" lon="3.08863">
        <ele>1153</ele>
        <time>2019-05-31T11:58:21.108Z</time>
      </trkpt>
      <trkpt lat="44.65476" lon="3.08862">
        <ele>1153</ele>
        <time>2019-05-31T11:58:25.142Z</time>
      </trkpt>
      <trkpt lat="44.65472" lon="3.0886">
        <ele>1153</ele>
        <time>2019-05-31T11:58:30.120Z</time>
      </trkpt>
      <trkpt lat="44.6547" lon="3.08859">
        <ele>1153</ele>
        <time>2019-05-31T11:58:35.114Z</time>
      </trkpt>
      <trkpt lat="44.65467" lon="3.08855">
        <ele>1153</ele>
        <time>2019-05-31T11:58:39.128Z</time>
      </trkpt>
      <trkpt lat="44.65465" lon="3.08851">
        <ele>1153</ele>
        <time>2019-05-31T11:58:44.112Z</time>
      </trkpt>
      <trkpt lat="44.65463" lon="3.0885">
        <ele>1153</ele>
        <time>2019-05-31T11:58:48.111Z</time>
      </trkpt>
      <trkpt lat="44.65461" lon="3.08844">
        <ele>1154</ele>
        <time>2019-05-31T11:58:52.133Z</time>
      </trkpt>
      <trkpt lat="44.65459" lon="3.0884">
        <ele>1154</ele>
        <time>2019-05-31T11:58:57.120Z</time>
      </trkpt>
      <trkpt lat="44.65455" lon="3.08836">
        <ele>1152</ele>
        <time>2019-05-31T11:59:02.120Z</time>
      </trkpt>
      <trkpt lat="44.65452" lon="3.08831">
        <ele>1152</ele>
        <time>2019-05-31T11:59:07.119Z</time>
      </trkpt>
      <trkpt lat="44.65448" lon="3.08825">
        <ele>1152</ele>
        <time>2019-05-31T11:59:12.118Z</time>
      </trkpt>
      <trkpt lat="44.65444" lon="3.08819">
        <ele>1153</ele>
        <time>2019-05-31T11:59:17.116Z</time>
      </trkpt>
      <trkpt lat="44.6544" lon="3.08816">
        <ele>1153</ele>
        <time>2019-05-31T11:59:21.120Z</time>
      </trkpt>
      <trkpt lat="44.65436" lon="3.0881">
        <ele>1153</ele>
        <time>2019-05-31T11:59:26.113Z</time>
      </trkpt>
      <trkpt lat="44.65435" lon="3.08804">
        <ele>1153</ele>
        <time>2019-05-31T11:59:31.110Z</time>
      </trkpt>
      <trkpt lat="44.65432" lon="3.08799">
        <ele>1153</ele>
        <time>2019-05-31T11:59:35.118Z</time>
      </trkpt>
      <trkpt lat="44.65427" lon="3.08795">
        <ele>1152</ele>
        <time>2019-05-31T11:59:39.145Z</time>
      </trkpt>
      <trkpt lat="44.65422" lon="3.08791">
        <ele>1153</ele>
        <time>2019-05-31T11:59:44.120Z</time>
      </trkpt>
      <trkpt lat="44.65419" lon="3.08788">
        <ele>1153</ele>
        <time>2019-05-31T11:59:48.151Z</time>
      </trkpt>
      <trkpt lat="44.65416" lon="3.08786">
        <ele>1153</ele>
        <time>2019-05-31T11:59:53.112Z</time>
      </trkpt>
      <trkpt lat="44.65415" lon="3.08784">
        <ele>1153</ele>
        <time>2019-05-31T11:59:58.117Z</time>
      </trkpt>
      <trkpt lat="44.65411" lon="3.08777">
        <ele>1153</ele>
        <time>2019-05-31T12:00:03.143Z</time>
      </trkpt>
      <trkpt lat="44.65408" lon="3.08771">
        <ele>1153</ele>
        <time>2019-05-31T12:00:08.121Z</time>
      </trkpt>
      <trkpt lat="44.65405" lon="3.08766">
        <ele>1153</ele>
        <time>2019-05-31T12:00:13.136Z</time>
      </trkpt>
      <trkpt lat="44.65402" lon="3.0876">
        <ele>1153</ele>
        <time>2019-05-31T12:00:18.116Z</time>
      </trkpt>
      <trkpt lat="44.65399" lon="3.08753">
        <ele>1153</ele>
        <time>2019-05-31T12:00:23.120Z</time>
      </trkpt>
      <trkpt lat="44.65397" lon="3.08747">
        <ele>1153</ele>
        <time>2019-05-31T12:00:28.126Z</time>
      </trkpt>
      <trkpt lat="44.65395" lon="3.08741">
        <ele>1153</ele>
        <time>2019-05-31T12:00:33.122Z</time>
      </trkpt>
      <trkpt lat="44.65391" lon="3.08736">
        <ele>1153</ele>
        <time>2019-05-31T12:00:38.114Z</time>
      </trkpt>
      <trkpt lat="44.65388" lon="3.08733">
        <ele>1155</ele>
        <time>2019-05-31T12:00:42.130Z</time>
      </trkpt>
      <trkpt lat="44.65384" lon="3.08727">
        <ele>1155</ele>
        <time>2019-05-31T12:00:47.100Z</time>
      </trkpt>
      <trkpt lat="44.6538" lon="3.08723">
        <ele>1155</ele>
        <time>2019-05-31T12:00:52.115Z</time>
      </trkpt>
      <trkpt lat="44.65376" lon="3.08719">
        <ele>1155</ele>
        <time>2019-05-31T12:00:57.108Z</time>
      </trkpt>
      <trkpt lat="44.65373" lon="3.08716">
        <ele>1154</ele>
        <time>2019-05-31T12:01:01.121Z</time>
      </trkpt>
      <trkpt lat="44.65372" lon="3.08716">
        <ele>1154</ele>
        <time>2019-05-31T12:01:06.112Z</time>
      </trkpt>
      <trkpt lat="44.65367" lon="3.08712">
        <ele>1154</ele>
        <time>2019-05-31T12:01:11.123Z</time>
      </trkpt>
      <trkpt lat="44.65362" lon="3.08707">
        <ele>1156</ele>
        <time>2019-05-31T12:01:16.111Z</time>
      </trkpt>
      <trkpt lat="44.65356" lon="3.08703">
        <ele>1156</ele>
        <time>2019-05-31T12:01:21.102Z</time>
      </trkpt>
      <trkpt lat="44.65352" lon="3.08699">
        <ele>1156</ele>
        <time>2019-05-31T12:01:25.120Z</time>
      </trkpt>
      <trkpt lat="44.65346" lon="3.08696">
        <ele>1156</ele>
        <time>2019-05-31T12:01:30.141Z</time>
      </trkpt>
      <trkpt lat="44.65343" lon="3.08694">
        <ele>1156</ele>
        <time>2019-05-31T12:01:35.106Z</time>
      </trkpt>
      <trkpt lat="44.65338" lon="3.08691">
        <ele>1156</ele>
        <time>2019-05-31T12:01:39.124Z</time>
      </trkpt>
      <trkpt lat="44.65333" lon="3.0869">
        <ele>1156</ele>
        <time>2019-05-31T12:01:44.123Z</time>
      </trkpt>
      <trkpt lat="44.65328" lon="3.08687">
        <ele>1156</ele>
        <time>2019-05-31T12:01:49.119Z</time>
      </trkpt>
      <trkpt lat="44.65322" lon="3.08685">
        <ele>1156</ele>
        <time>2019-05-31T12:01:54.118Z</time>
      </trkpt>
      <trkpt lat="44.65317" lon="3.08683">
        <ele>1155</ele>
        <time>2019-05-31T12:01:58.137Z</time>
      </trkpt>
      <trkpt lat="44.65316" lon="3.08682">
        <ele>1155</ele>
        <time>2019-05-31T12:02:03.121Z</time>
      </trkpt>
      <trkpt lat="44.65311" lon="3.08679">
        <ele>1156</ele>
        <time>2019-05-31T12:02:08.119Z</time>
      </trkpt>
      <trkpt lat="44.65305" lon="3.08676">
        <ele>1156</ele>
        <time>2019-05-31T12:02:13.113Z</time>
      </trkpt>
      <trkpt lat="44.65301" lon="3.08674">
        <ele>1156</ele>
        <time>2019-05-31T12:02:18.113Z</time>
      </trkpt>
      <trkpt lat="44.65296" lon="3.08671">
        <ele>1156</ele>
        <time>2019-05-31T12:02:23.120Z</time>
      </trkpt>
      <trkpt lat="44.6529" lon="3.08669">
        <ele>1156</ele>
        <time>2019-05-31T12:02:28.117Z</time>
      </trkpt>
      <trkpt lat="44.65286" lon="3.08667">
        <ele>1156</ele>
        <time>2019-05-31T12:02:32.138Z</time>
      </trkpt>
      <trkpt lat="44.65281" lon="3.08663">
        <ele>1156</ele>
        <time>2019-05-31T12:02:37.112Z</time>
      </trkpt>
      <trkpt lat="44.65277" lon="3.0866">
        <ele>1156</ele>
        <time>2019-05-31T12:02:41.132Z</time>
      </trkpt>
      <trkpt lat="44.65271" lon="3.08655">
        <ele>1156</ele>
        <time>2019-05-31T12:02:46.103Z</time>
      </trkpt>
      <trkpt lat="44.65267" lon="3.08651">
        <ele>1157</ele>
        <time>2019-05-31T12:02:50.113Z</time>
      </trkpt>
      <trkpt lat="44.65262" lon="3.08648">
        <ele>1156</ele>
        <time>2019-05-31T12:02:55.113Z</time>
      </trkpt>
      <trkpt lat="44.65258" lon="3.08644">
        <ele>1156</ele>
        <time>2019-05-31T12:02:59.116Z</time>
      </trkpt>
      <trkpt lat="44.65255" lon="3.0864">
        <ele>1156</ele>
        <time>2019-05-31T12:03:04.131Z</time>
      </trkpt>
      <trkpt lat="44.6525" lon="3.08636">
        <ele>1156</ele>
        <time>2019-05-31T12:03:09.109Z</time>
      </trkpt>
      <trkpt lat="44.65246" lon="3.08632">
        <ele>1156</ele>
        <time>2019-05-31T12:03:14.116Z</time>
      </trkpt>
      <trkpt lat="44.65242" lon="3.08627">
        <ele>1156</ele>
        <time>2019-05-31T12:03:19.120Z</time>
      </trkpt>
      <trkpt lat="44.65239" lon="3.08622">
        <ele>1157</ele>
        <time>2019-05-31T12:03:24.108Z</time>
      </trkpt>
      <trkpt lat="44.65236" lon="3.08618">
        <ele>1157</ele>
        <time>2019-05-31T12:03:28.121Z</time>
      </trkpt>
      <trkpt lat="44.65233" lon="3.08614">
        <ele>1157</ele>
        <time>2019-05-31T12:03:32.146Z</time>
      </trkpt>
      <trkpt lat="44.65229" lon="3.08608">
        <ele>1157</ele>
        <time>2019-05-31T12:03:37.112Z</time>
      </trkpt>
      <trkpt lat="44.65225" lon="3.08604">
        <ele>1157</ele>
        <time>2019-05-31T12:03:42.113Z</time>
      </trkpt>
      <trkpt lat="44.65221" lon="3.08603">
        <ele>1157</ele>
        <time>2019-05-31T12:03:46.130Z</time>
      </trkpt>
      <trkpt lat="44.65219" lon="3.08604">
        <ele>1157</ele>
        <time>2019-05-31T12:03:51.119Z</time>
      </trkpt>
      <trkpt lat="44.65217" lon="3.086">
        <ele>1157</ele>
        <time>2019-05-31T12:05:12.141Z</time>
      </trkpt>
      <trkpt lat="44.65214" lon="3.08596">
        <ele>1156</ele>
        <time>2019-05-31T12:05:17.115Z</time>
      </trkpt>
      <trkpt lat="44.65213" lon="3.08593">
        <ele>1156</ele>
        <time>2019-05-31T12:05:22.113Z</time>
      </trkpt>
      <trkpt lat="44.65212" lon="3.08593">
        <ele>1156</ele>
        <time>2019-05-31T12:05:31.116Z</time>
      </trkpt>
      <trkpt lat="44.65213" lon="3.08592">
        <ele>1156</ele>
        <time>2019-05-31T12:05:36.111Z</time>
      </trkpt>
      <trkpt lat="44.65211" lon="3.0859">
        <ele>1156</ele>
        <time>2019-05-31T12:05:50.151Z</time>
      </trkpt>
      <trkpt lat="44.65209" lon="3.08586">
        <ele>1156</ele>
        <time>2019-05-31T12:05:55.137Z</time>
      </trkpt>
      <trkpt lat="44.65206" lon="3.08581">
        <ele>1158</ele>
        <time>2019-05-31T12:06:00.115Z</time>
      </trkpt>
      <trkpt lat="44.65198" lon="3.08578">
        <ele>1158</ele>
        <time>2019-05-31T12:06:33.117Z</time>
      </trkpt>
      <trkpt lat="44.65197" lon="3.08577">
        <ele>1158</ele>
        <time>2019-05-31T12:06:38.093Z</time>
      </trkpt>
      <trkpt lat="44.65197" lon="3.08575">
        <ele>1158</ele>
        <time>2019-05-31T12:06:52.095Z</time>
      </trkpt>
      <trkpt lat="44.65195" lon="3.08572">
        <ele>1158</ele>
        <time>2019-05-31T12:06:56.147Z</time>
      </trkpt>
      <trkpt lat="44.65192" lon="3.08565">
        <ele>1157</ele>
        <time>2019-05-31T12:07:01.112Z</time>
      </trkpt>
      <trkpt lat="44.65189" lon="3.08561">
        <ele>1157</ele>
        <time>2019-05-31T12:07:06.118Z</time>
      </trkpt>
      <trkpt lat="44.65186" lon="3.08558">
        <ele>1157</ele>
        <time>2019-05-31T12:07:11.120Z</time>
      </trkpt>
      <trkpt lat="44.65182" lon="3.08553">
        <ele>1157</ele>
        <time>2019-05-31T12:07:16.114Z</time>
      </trkpt>
      <trkpt lat="44.65179" lon="3.08549">
        <ele>1158</ele>
        <time>2019-05-31T12:07:20.145Z</time>
      </trkpt>
      <trkpt lat="44.65175" lon="3.08545">
        <ele>1158</ele>
        <time>2019-05-31T12:07:25.115Z</time>
      </trkpt>
      <trkpt lat="44.65171" lon="3.0854">
        <ele>1157</ele>
        <time>2019-05-31T12:07:30.113Z</time>
      </trkpt>
      <trkpt lat="44.65167" lon="3.08535">
        <ele>1157</ele>
        <time>2019-05-31T12:07:35.107Z</time>
      </trkpt>
      <trkpt lat="44.65162" lon="3.0853">
        <ele>1157</ele>
        <time>2019-05-31T12:07:39.141Z</time>
      </trkpt>
      <trkpt lat="44.65157" lon="3.08524">
        <ele>1157</ele>
        <time>2019-05-31T12:07:44.112Z</time>
      </trkpt>
      <trkpt lat="44.65152" lon="3.08521">
        <ele>1157</ele>
        <time>2019-05-31T12:07:49.124Z</time>
      </trkpt>
      <trkpt lat="44.65149" lon="3.08516">
        <ele>1157</ele>
        <time>2019-05-31T12:07:54.112Z</time>
      </trkpt>
      <trkpt lat="44.65144" lon="3.08512">
        <ele>1157</ele>
        <time>2019-05-31T12:07:59.150Z</time>
      </trkpt>
      <trkpt lat="44.65141" lon="3.08507">
        <ele>1157</ele>
        <time>2019-05-31T12:08:04.108Z</time>
      </trkpt>
      <trkpt lat="44.65139" lon="3.08505">
        <ele>1157</ele>
        <time>2019-05-31T12:08:09.101Z</time>
      </trkpt>
      <trkpt lat="44.65136" lon="3.08501">
        <ele>1157</ele>
        <time>2019-05-31T12:08:13.109Z</time>
      </trkpt>
      <trkpt lat="44.65132" lon="3.08496">
        <ele>1157</ele>
        <time>2019-05-31T12:08:17.112Z</time>
      </trkpt>
      <trkpt lat="44.65128" lon="3.08493">
        <ele>1157</ele>
        <time>2019-05-31T12:08:22.120Z</time>
      </trkpt>
      <trkpt lat="44.65125" lon="3.08489">
        <ele>1156</ele>
        <time>2019-05-31T12:08:26.124Z</time>
      </trkpt>
      <trkpt lat="44.65121" lon="3.08485">
        <ele>1156</ele>
        <time>2019-05-31T12:08:31.118Z</time>
      </trkpt>
      <trkpt lat="44.65117" lon="3.08479">
        <ele>1156</ele>
        <time>2019-05-31T12:08:36.113Z</time>
      </trkpt>
      <trkpt lat="44.65114" lon="3.08473">
        <ele>1156</ele>
        <time>2019-05-31T12:08:41.118Z</time>
      </trkpt>
      <trkpt lat="44.65111" lon="3.08467">
        <ele>1156</ele>
        <time>2019-05-31T12:08:46.114Z</time>
      </trkpt>
      <trkpt lat="44.65108" lon="3.08462">
        <ele>1156</ele>
        <time>2019-05-31T12:08:50.143Z</time>
      </trkpt>
      <trkpt lat="44.65107" lon="3.08456">
        <ele>1157</ele>
        <time>2019-05-31T12:08:55.112Z</time>
      </trkpt>
      <trkpt lat="44.65107" lon="3.08451">
        <ele>1157</ele>
        <time>2019-05-31T12:09:00.112Z</time>
      </trkpt>
      <trkpt lat="44.65107" lon="3.08444">
        <ele>1157</ele>
        <time>2019-05-31T12:09:05.103Z</time>
      </trkpt>
      <trkpt lat="44.65105" lon="3.08438">
        <ele>1157</ele>
        <time>2019-05-31T12:09:10.143Z</time>
      </trkpt>
      <trkpt lat="44.65105" lon="3.08431">
        <ele>1157</ele>
        <time>2019-05-31T12:09:15.144Z</time>
      </trkpt>
      <trkpt lat="44.65104" lon="3.08424">
        <ele>1156</ele>
        <time>2019-05-31T12:09:20.104Z</time>
      </trkpt>
      <trkpt lat="44.65103" lon="3.08419">
        <ele>1156</ele>
        <time>2019-05-31T12:09:25.112Z</time>
      </trkpt>
      <trkpt lat="44.65103" lon="3.08417">
        <ele>1156</ele>
        <time>2019-05-31T12:09:30.113Z</time>
      </trkpt>
      <trkpt lat="44.65102" lon="3.08412">
        <ele>1156</ele>
        <time>2019-05-31T12:09:34.114Z</time>
      </trkpt>
      <trkpt lat="44.65101" lon="3.08405">
        <ele>1156</ele>
        <time>2019-05-31T12:09:39.114Z</time>
      </trkpt>
      <trkpt lat="44.65099" lon="3.08397">
        <ele>1155</ele>
        <time>2019-05-31T12:09:44.122Z</time>
      </trkpt>
      <trkpt lat="44.65097" lon="3.08389">
        <ele>1155</ele>
        <time>2019-05-31T12:09:49.119Z</time>
      </trkpt>
      <trkpt lat="44.65095" lon="3.08381">
        <ele>1155</ele>
        <time>2019-05-31T12:09:54.128Z</time>
      </trkpt>
      <trkpt lat="44.65094" lon="3.08375">
        <ele>1155</ele>
        <time>2019-05-31T12:09:59.114Z</time>
      </trkpt>
      <trkpt lat="44.65092" lon="3.08367">
        <ele>1155</ele>
        <time>2019-05-31T12:10:04.111Z</time>
      </trkpt>
      <trkpt lat="44.6509" lon="3.08361">
        <ele>1155</ele>
        <time>2019-05-31T12:10:08.122Z</time>
      </trkpt>
      <trkpt lat="44.65087" lon="3.08352">
        <ele>1155</ele>
        <time>2019-05-31T12:10:13.115Z</time>
      </trkpt>
      <trkpt lat="44.65085" lon="3.08344">
        <ele>1155</ele>
        <time>2019-05-31T12:10:18.110Z</time>
      </trkpt>
      <trkpt lat="44.65084" lon="3.08336">
        <ele>1155</ele>
        <time>2019-05-31T12:10:23.113Z</time>
      </trkpt>
      <trkpt lat="44.65085" lon="3.08331">
        <ele>1155</ele>
        <time>2019-05-31T12:10:27.149Z</time>
      </trkpt>
      <trkpt lat="44.65084" lon="3.08324">
        <ele>1155</ele>
        <time>2019-05-31T12:10:32.125Z</time>
      </trkpt>
      <trkpt lat="44.65083" lon="3.08316">
        <ele>1155</ele>
        <time>2019-05-31T12:10:37.119Z</time>
      </trkpt>
      <trkpt lat="44.65082" lon="3.08309">
        <ele>1155</ele>
        <time>2019-05-31T12:10:42.100Z</time>
      </trkpt>
      <trkpt lat="44.65082" lon="3.08301">
        <ele>1155</ele>
        <time>2019-05-31T12:10:46.112Z</time>
      </trkpt>
      <trkpt lat="44.65081" lon="3.08294">
        <ele>1155</ele>
        <time>2019-05-31T12:10:50.121Z</time>
      </trkpt>
      <trkpt lat="44.6508" lon="3.08287">
        <ele>1155</ele>
        <time>2019-05-31T12:10:55.151Z</time>
      </trkpt>
      <trkpt lat="44.65077" lon="3.08279">
        <ele>1155</ele>
        <time>2019-05-31T12:11:00.144Z</time>
      </trkpt>
      <trkpt lat="44.65075" lon="3.08273">
        <ele>1155</ele>
        <time>2019-05-31T12:11:05.121Z</time>
      </trkpt>
      <trkpt lat="44.65072" lon="3.08268">
        <ele>1155</ele>
        <time>2019-05-31T12:11:09.140Z</time>
      </trkpt>
      <trkpt lat="44.65068" lon="3.08262">
        <ele>1155</ele>
        <time>2019-05-31T12:11:14.111Z</time>
      </trkpt>
      <trkpt lat="44.65064" lon="3.08257">
        <ele>1155</ele>
        <time>2019-05-31T12:11:18.113Z</time>
      </trkpt>
      <trkpt lat="44.65062" lon="3.0825">
        <ele>1155</ele>
        <time>2019-05-31T12:11:23.143Z</time>
      </trkpt>
      <trkpt lat="44.65059" lon="3.08244">
        <ele>1155</ele>
        <time>2019-05-31T12:11:28.114Z</time>
      </trkpt>
      <trkpt lat="44.65056" lon="3.08238">
        <ele>1155</ele>
        <time>2019-05-31T12:11:33.111Z</time>
      </trkpt>
      <trkpt lat="44.65053" lon="3.08234">
        <ele>1156</ele>
        <time>2019-05-31T12:11:37.121Z</time>
      </trkpt>
      <trkpt lat="44.6505" lon="3.08228">
        <ele>1156</ele>
        <time>2019-05-31T12:11:42.116Z</time>
      </trkpt>
      <trkpt lat="44.65046" lon="3.08222">
        <ele>1156</ele>
        <time>2019-05-31T12:11:47.112Z</time>
      </trkpt>
      <trkpt lat="44.65042" lon="3.08216">
        <ele>1156</ele>
        <time>2019-05-31T12:11:52.153Z</time>
      </trkpt>
      <trkpt lat="44.65039" lon="3.08213">
        <ele>1154</ele>
        <time>2019-05-31T12:11:57.113Z</time>
      </trkpt>
      <trkpt lat="44.65038" lon="3.08211">
        <ele>1154</ele>
        <time>2019-05-31T12:12:02.134Z</time>
      </trkpt>
      <trkpt lat="44.65037" lon="3.08208">
        <ele>1154</ele>
        <time>2019-05-31T12:12:20.146Z</time>
      </trkpt>
      <trkpt lat="44.65035" lon="3.08202">
        <ele>1154</ele>
        <time>2019-05-31T12:12:25.115Z</time>
      </trkpt>
      <trkpt lat="44.65031" lon="3.08196">
        <ele>1154</ele>
        <time>2019-05-31T12:12:30.105Z</time>
      </trkpt>
      <trkpt lat="44.65028" lon="3.08192">
        <ele>1154</ele>
        <time>2019-05-31T12:12:39.109Z</time>
      </trkpt>
      <trkpt lat="44.65029" lon="3.08189">
        <ele>1154</ele>
        <time>2019-05-31T12:12:44.113Z</time>
      </trkpt>
      <trkpt lat="44.65029" lon="3.08186">
        <ele>1154</ele>
        <time>2019-05-31T12:12:49.102Z</time>
      </trkpt>
      <trkpt lat="44.65027" lon="3.0818">
        <ele>1156</ele>
        <time>2019-05-31T12:12:54.113Z</time>
      </trkpt>
      <trkpt lat="44.65024" lon="3.08178">
        <ele>1156</ele>
        <time>2019-05-31T12:12:58.144Z</time>
      </trkpt>
      <trkpt lat="44.6502" lon="3.08177">
        <ele>1156</ele>
        <time>2019-05-31T12:13:03.116Z</time>
      </trkpt>
      <trkpt lat="44.65018" lon="3.08174">
        <ele>1156</ele>
        <time>2019-05-31T12:13:07.138Z</time>
      </trkpt>
      <trkpt lat="44.65013" lon="3.08171">
        <ele>1156</ele>
        <time>2019-05-31T12:13:12.110Z</time>
      </trkpt>
      <trkpt lat="44.65011" lon="3.08168">
        <ele>1156</ele>
        <time>2019-05-31T12:13:16.156Z</time>
      </trkpt>
      <trkpt lat="44.65009" lon="3.08163">
        <ele>1156</ele>
        <time>2019-05-31T12:13:21.141Z</time>
      </trkpt>
      <trkpt lat="44.65009" lon="3.08157">
        <ele>1156</ele>
        <time>2019-05-31T12:13:26.106Z</time>
      </trkpt>
      <trkpt lat="44.65009" lon="3.08153">
        <ele>1156</ele>
        <time>2019-05-31T12:13:30.130Z</time>
      </trkpt>
      <trkpt lat="44.65008" lon="3.08147">
        <ele>1156</ele>
        <time>2019-05-31T12:13:35.109Z</time>
      </trkpt>
      <trkpt lat="44.65012" lon="3.08137">
        <ele>1156</ele>
        <time>2019-05-31T12:13:44.112Z</time>
      </trkpt>
      <trkpt lat="44.65011" lon="3.08134">
        <ele>1156</ele>
        <time>2019-05-31T12:13:48.143Z</time>
      </trkpt>
      <trkpt lat="44.65011" lon="3.08133">
        <ele>1156</ele>
        <time>2019-05-31T12:14:07.126Z</time>
      </trkpt>
      <trkpt lat="44.6501" lon="3.0813">
        <ele>1156</ele>
        <time>2019-05-31T12:14:12.098Z</time>
      </trkpt>
      <trkpt lat="44.65012" lon="3.08128">
        <ele>1156</ele>
        <time>2019-05-31T12:14:21.120Z</time>
      </trkpt>
      <trkpt lat="44.65012" lon="3.08125">
        <ele>1156</ele>
        <time>2019-05-31T12:14:31.112Z</time>
      </trkpt>
      <trkpt lat="44.65012" lon="3.08119">
        <ele>1156</ele>
        <time>2019-05-31T12:14:36.096Z</time>
      </trkpt>
      <trkpt lat="44.65012" lon="3.08119">
        <ele>1156</ele>
        <time>2019-05-31T12:14:40.121Z</time>
      </trkpt>
      <trkpt lat="44.65013" lon="3.08118">
        <ele>1156</ele>
        <time>2019-05-31T12:14:55.109Z</time>
      </trkpt>
      <trkpt lat="44.65015" lon="3.0811">
        <ele>1157</ele>
        <time>2019-05-31T12:15:00.107Z</time>
      </trkpt>
      <trkpt lat="44.65017" lon="3.08103">
        <ele>1157</ele>
        <time>2019-05-31T12:15:05.115Z</time>
      </trkpt>
      <trkpt lat="44.6502" lon="3.08095">
        <ele>1157</ele>
        <time>2019-05-31T12:15:10.111Z</time>
      </trkpt>
      <trkpt lat="44.65022" lon="3.08088">
        <ele>1157</ele>
        <time>2019-05-31T12:15:15.105Z</time>
      </trkpt>
      <trkpt lat="44.65024" lon="3.08083">
        <ele>1157</ele>
        <time>2019-05-31T12:15:19.135Z</time>
      </trkpt>
      <trkpt lat="44.65025" lon="3.08082">
        <ele>1157</ele>
        <time>2019-05-31T12:15:23.141Z</time>
      </trkpt>
      <trkpt lat="44.65028" lon="3.08076">
        <ele>1157</ele>
        <time>2019-05-31T12:15:28.105Z</time>
      </trkpt>
      <trkpt lat="44.65029" lon="3.0807">
        <ele>1157</ele>
        <time>2019-05-31T12:15:32.115Z</time>
      </trkpt>
      <trkpt lat="44.6503" lon="3.08063">
        <ele>1156</ele>
        <time>2019-05-31T12:15:37.108Z</time>
      </trkpt>
      <trkpt lat="44.65031" lon="3.08057">
        <ele>1156</ele>
        <time>2019-05-31T12:15:41.135Z</time>
      </trkpt>
      <trkpt lat="44.65032" lon="3.08051">
        <ele>1156</ele>
        <time>2019-05-31T12:15:46.139Z</time>
      </trkpt>
      <trkpt lat="44.65032" lon="3.08044">
        <ele>1156</ele>
        <time>2019-05-31T12:15:51.128Z</time>
      </trkpt>
      <trkpt lat="44.65032" lon="3.08036">
        <ele>1157</ele>
        <time>2019-05-31T12:15:56.113Z</time>
      </trkpt>
      <trkpt lat="44.65031" lon="3.08029">
        <ele>1157</ele>
        <time>2019-05-31T12:16:01.111Z</time>
      </trkpt>
      <trkpt lat="44.6503" lon="3.08023">
        <ele>1157</ele>
        <time>2019-05-31T12:16:06.108Z</time>
      </trkpt>
      <trkpt lat="44.65027" lon="3.08018">
        <ele>1157</ele>
        <time>2019-05-31T12:16:11.110Z</time>
      </trkpt>
      <trkpt lat="44.65025" lon="3.08011">
        <ele>1157</ele>
        <time>2019-05-31T12:16:16.092Z</time>
      </trkpt>
      <trkpt lat="44.65022" lon="3.08004">
        <ele>1157</ele>
        <time>2019-05-31T12:16:21.097Z</time>
      </trkpt>
      <trkpt lat="44.65021" lon="3.07999">
        <ele>1157</ele>
        <time>2019-05-31T12:16:25.110Z</time>
      </trkpt>
      <trkpt lat="44.65019" lon="3.07993">
        <ele>1157</ele>
        <time>2019-05-31T12:16:30.112Z</time>
      </trkpt>
      <trkpt lat="44.65017" lon="3.07986">
        <ele>1158</ele>
        <time>2019-05-31T12:16:35.127Z</time>
      </trkpt>
      <trkpt lat="44.65015" lon="3.07979">
        <ele>1158</ele>
        <time>2019-05-31T12:16:40.110Z</time>
      </trkpt>
      <trkpt lat="44.65013" lon="3.07972">
        <ele>1157</ele>
        <time>2019-05-31T12:16:45.130Z</time>
      </trkpt>
      <trkpt lat="44.65012" lon="3.07965">
        <ele>1157</ele>
        <time>2019-05-31T12:16:50.113Z</time>
      </trkpt>
      <trkpt lat="44.6501" lon="3.07958">
        <ele>1158</ele>
        <time>2019-05-31T12:16:55.106Z</time>
      </trkpt>
      <trkpt lat="44.65007" lon="3.07953">
        <ele>1158</ele>
        <time>2019-05-31T12:16:59.111Z</time>
      </trkpt>
      <trkpt lat="44.65005" lon="3.07947">
        <ele>1158</ele>
        <time>2019-05-31T12:17:03.140Z</time>
      </trkpt>
      <trkpt lat="44.65004" lon="3.0794">
        <ele>1158</ele>
        <time>2019-05-31T12:17:08.110Z</time>
      </trkpt>
      <trkpt lat="44.65004" lon="3.07935">
        <ele>1158</ele>
        <time>2019-05-31T12:17:12.138Z</time>
      </trkpt>
      <trkpt lat="44.65006" lon="3.07925">
        <ele>1158</ele>
        <time>2019-05-31T12:17:21.121Z</time>
      </trkpt>
      <trkpt lat="44.65006" lon="3.07923">
        <ele>1158</ele>
        <time>2019-05-31T12:17:26.111Z</time>
      </trkpt>
      <trkpt lat="44.65005" lon="3.07922">
        <ele>1158</ele>
        <time>2019-05-31T12:17:44.117Z</time>
      </trkpt>
      <trkpt lat="44.65004" lon="3.07916">
        <ele>1158</ele>
        <time>2019-05-31T12:17:49.113Z</time>
      </trkpt>
      <trkpt lat="44.65004" lon="3.0791">
        <ele>1158</ele>
        <time>2019-05-31T12:17:54.110Z</time>
      </trkpt>
      <trkpt lat="44.65004" lon="3.07906">
        <ele>1158</ele>
        <time>2019-05-31T12:17:58.146Z</time>
      </trkpt>
      <trkpt lat="44.65004" lon="3.07899">
        <ele>1159</ele>
        <time>2019-05-31T12:18:03.105Z</time>
      </trkpt>
      <trkpt lat="44.65003" lon="3.07893">
        <ele>1159</ele>
        <time>2019-05-31T12:18:07.109Z</time>
      </trkpt>
      <trkpt lat="44.65002" lon="3.07887">
        <ele>1159</ele>
        <time>2019-05-31T12:18:12.109Z</time>
      </trkpt>
      <trkpt lat="44.65001" lon="3.07879">
        <ele>1159</ele>
        <time>2019-05-31T12:18:17.135Z</time>
      </trkpt>
      <trkpt lat="44.65001" lon="3.07875">
        <ele>1159</ele>
        <time>2019-05-31T12:18:22.149Z</time>
      </trkpt>
      <trkpt lat="44.64999" lon="3.07871">
        <ele>1158</ele>
        <time>2019-05-31T12:18:27.114Z</time>
      </trkpt>
      <trkpt lat="44.64999" lon="3.07863">
        <ele>1158</ele>
        <time>2019-05-31T12:18:32.106Z</time>
      </trkpt>
      <trkpt lat="44.64998" lon="3.07857">
        <ele>1158</ele>
        <time>2019-05-31T12:18:36.115Z</time>
      </trkpt>
      <trkpt lat="44.64997" lon="3.07848">
        <ele>1158</ele>
        <time>2019-05-31T12:18:41.126Z</time>
      </trkpt>
      <trkpt lat="44.64995" lon="3.07841">
        <ele>1158</ele>
        <time>2019-05-31T12:18:46.110Z</time>
      </trkpt>
      <trkpt lat="44.64994" lon="3.07832">
        <ele>1158</ele>
        <time>2019-05-31T12:18:51.127Z</time>
      </trkpt>
      <trkpt lat="44.64993" lon="3.07824">
        <ele>1158</ele>
        <time>2019-05-31T12:18:56.120Z</time>
      </trkpt>
      <trkpt lat="44.6499" lon="3.07818">
        <ele>1160</ele>
        <time>2019-05-31T12:19:01.108Z</time>
      </trkpt>
      <trkpt lat="44.64989" lon="3.07812">
        <ele>1160</ele>
        <time>2019-05-31T12:19:05.114Z</time>
      </trkpt>
      <trkpt lat="44.64989" lon="3.07806">
        <ele>1160</ele>
        <time>2019-05-31T12:19:10.093Z</time>
      </trkpt>
      <trkpt lat="44.64988" lon="3.078">
        <ele>1160</ele>
        <time>2019-05-31T12:19:14.122Z</time>
      </trkpt>
      <trkpt lat="44.64988" lon="3.07793">
        <ele>1160</ele>
        <time>2019-05-31T12:19:18.120Z</time>
      </trkpt>
      <trkpt lat="44.64988" lon="3.07786">
        <ele>1161</ele>
        <time>2019-05-31T12:19:22.114Z</time>
      </trkpt>
      <trkpt lat="44.64987" lon="3.07778">
        <ele>1161</ele>
        <time>2019-05-31T12:19:27.130Z</time>
      </trkpt>
      <trkpt lat="44.64985" lon="3.07774">
        <ele>1159</ele>
        <time>2019-05-31T12:19:31.164Z</time>
      </trkpt>
      <trkpt lat="44.64985" lon="3.07769">
        <ele>1159</ele>
        <time>2019-05-31T12:19:36.143Z</time>
      </trkpt>
      <trkpt lat="44.64985" lon="3.07762">
        <ele>1160</ele>
        <time>2019-05-31T12:19:41.118Z</time>
      </trkpt>
      <trkpt lat="44.64985" lon="3.07762">
        <ele>1160</ele>
        <time>2019-05-31T12:19:45.138Z</time>
      </trkpt>
      <trkpt lat="44.64981" lon="3.07757">
        <ele>1160</ele>
        <time>2019-05-31T12:19:50.106Z</time>
      </trkpt>
      <trkpt lat="44.6498" lon="3.07754">
        <ele>1160</ele>
        <time>2019-05-31T12:19:54.122Z</time>
      </trkpt>
      <trkpt lat="44.6498" lon="3.07753">
        <ele>1160</ele>
        <time>2019-05-31T12:20:04.110Z</time>
      </trkpt>
      <trkpt lat="44.64979" lon="3.07749">
        <ele>1160</ele>
        <time>2019-05-31T12:20:08.111Z</time>
      </trkpt>
      <trkpt lat="44.64978" lon="3.07744">
        <ele>1160</ele>
        <time>2019-05-31T12:20:12.137Z</time>
      </trkpt>
      <trkpt lat="44.64976" lon="3.07737">
        <ele>1160</ele>
        <time>2019-05-31T12:20:17.106Z</time>
      </trkpt>
      <trkpt lat="44.64975" lon="3.07734">
        <ele>1161</ele>
        <time>2019-05-31T12:20:21.112Z</time>
      </trkpt>
      <trkpt lat="44.64974" lon="3.07731">
        <ele>1161</ele>
        <time>2019-05-31T12:20:25.143Z</time>
      </trkpt>
      <trkpt lat="44.64974" lon="3.07725">
        <ele>1161</ele>
        <time>2019-05-31T12:20:30.117Z</time>
      </trkpt>
      <trkpt lat="44.64973" lon="3.07721">
        <ele>1161</ele>
        <time>2019-05-31T12:20:34.122Z</time>
      </trkpt>
      <trkpt lat="44.64972" lon="3.07716">
        <ele>1161</ele>
        <time>2019-05-31T12:20:38.149Z</time>
      </trkpt>
      <trkpt lat="44.6497" lon="3.07709">
        <ele>1161</ele>
        <time>2019-05-31T12:20:43.126Z</time>
      </trkpt>
      <trkpt lat="44.64968" lon="3.07701">
        <ele>1161</ele>
        <time>2019-05-31T12:20:48.105Z</time>
      </trkpt>
      <trkpt lat="44.64967" lon="3.07695">
        <ele>1161</ele>
        <time>2019-05-31T12:20:52.111Z</time>
      </trkpt>
      <trkpt lat="44.64964" lon="3.07688">
        <ele>1161</ele>
        <time>2019-05-31T12:20:57.111Z</time>
      </trkpt>
      <trkpt lat="44.64962" lon="3.07683">
        <ele>1161</ele>
        <time>2019-05-31T12:21:01.123Z</time>
      </trkpt>
      <trkpt lat="44.64962" lon="3.07679">
        <ele>1161</ele>
        <time>2019-05-31T12:21:06.143Z</time>
      </trkpt>
      <trkpt lat="44.64961" lon="3.07671">
        <ele>1161</ele>
        <time>2019-05-31T12:21:11.111Z</time>
      </trkpt>
      <trkpt lat="44.64961" lon="3.07669">
        <ele>1161</ele>
        <time>2019-05-31T12:21:15.127Z</time>
      </trkpt>
      <trkpt lat="44.6496" lon="3.07665">
        <ele>1161</ele>
        <time>2019-05-31T12:21:20.112Z</time>
      </trkpt>
      <trkpt lat="44.64959" lon="3.07659">
        <ele>1161</ele>
        <time>2019-05-31T12:21:25.115Z</time>
      </trkpt>
      <trkpt lat="44.64957" lon="3.07654">
        <ele>1160</ele>
        <time>2019-05-31T12:21:30.111Z</time>
      </trkpt>
      <trkpt lat="44.64955" lon="3.0765">
        <ele>1159</ele>
        <time>2019-05-31T12:22:16.119Z</time>
      </trkpt>
      <trkpt lat="44.64952" lon="3.07648">
        <ele>1159</ele>
        <time>2019-05-31T12:22:21.141Z</time>
      </trkpt>
      <trkpt lat="44.64952" lon="3.07647">
        <ele>1159</ele>
        <time>2019-05-31T12:22:26.115Z</time>
      </trkpt>
      <trkpt lat="44.64952" lon="3.07645">
        <ele>1159</ele>
        <time>2019-05-31T12:22:36.120Z</time>
      </trkpt>
      <trkpt lat="44.64949" lon="3.07643">
        <ele>1159</ele>
        <time>2019-05-31T12:22:41.111Z</time>
      </trkpt>
      <trkpt lat="44.64948" lon="3.07638">
        <ele>1159</ele>
        <time>2019-05-31T12:23:32.114Z</time>
      </trkpt>
      <trkpt lat="44.64947" lon="3.07636">
        <ele>1159</ele>
        <time>2019-05-31T12:23:36.123Z</time>
      </trkpt>
      <trkpt lat="44.64946" lon="3.07635">
        <ele>1159</ele>
        <time>2019-05-31T12:23:41.114Z</time>
      </trkpt>
      <trkpt lat="44.64945" lon="3.07631">
        <ele>1159</ele>
        <time>2019-05-31T12:23:45.121Z</time>
      </trkpt>
      <trkpt lat="44.64944" lon="3.07625">
        <ele>1159</ele>
        <time>2019-05-31T12:23:50.116Z</time>
      </trkpt>
      <trkpt lat="44.64943" lon="3.07621">
        <ele>1159</ele>
        <time>2019-05-31T12:23:55.115Z</time>
      </trkpt>
      <trkpt lat="44.64941" lon="3.07616">
        <ele>1159</ele>
        <time>2019-05-31T12:24:00.113Z</time>
      </trkpt>
      <trkpt lat="44.64941" lon="3.07616">
        <ele>1159</ele>
        <time>2019-05-31T12:24:05.115Z</time>
      </trkpt>
      <trkpt lat="44.6494" lon="3.07612">
        <ele>1159</ele>
        <time>2019-05-31T12:24:23.115Z</time>
      </trkpt>
      <trkpt lat="44.64939" lon="3.07608">
        <ele>1159</ele>
        <time>2019-05-31T12:24:27.147Z</time>
      </trkpt>
      <trkpt lat="44.64938" lon="3.07607">
        <ele>1159</ele>
        <time>2019-05-31T12:24:32.111Z</time>
      </trkpt>
      <trkpt lat="44.64937" lon="3.076">
        <ele>1159</ele>
        <time>2019-05-31T12:24:41.134Z</time>
      </trkpt>
      <trkpt lat="44.64935" lon="3.07594">
        <ele>1160</ele>
        <time>2019-05-31T12:24:46.108Z</time>
      </trkpt>
      <trkpt lat="44.64933" lon="3.07589">
        <ele>1160</ele>
        <time>2019-05-31T12:24:51.105Z</time>
      </trkpt>
      <trkpt lat="44.64932" lon="3.07584">
        <ele>1160</ele>
        <time>2019-05-31T12:24:56.095Z</time>
      </trkpt>
      <trkpt lat="44.64932" lon="3.0758">
        <ele>1160</ele>
        <time>2019-05-31T12:25:12.095Z</time>
      </trkpt>
      <trkpt lat="44.6493" lon="3.07575">
        <ele>1160</ele>
        <time>2019-05-31T12:25:16.104Z</time>
      </trkpt>
      <trkpt lat="44.64926" lon="3.0757">
        <ele>1160</ele>
        <time>2019-05-31T12:25:20.132Z</time>
      </trkpt>
      <trkpt lat="44.64924" lon="3.07564">
        <ele>1162</ele>
        <time>2019-05-31T12:25:25.090Z</time>
      </trkpt>
      <trkpt lat="44.64921" lon="3.07559">
        <ele>1162</ele>
        <time>2019-05-31T12:25:29.114Z</time>
      </trkpt>
      <trkpt lat="44.64919" lon="3.07554">
        <ele>1162</ele>
        <time>2019-05-31T12:25:34.136Z</time>
      </trkpt>
      <trkpt lat="44.64918" lon="3.07548">
        <ele>1162</ele>
        <time>2019-05-31T12:25:39.117Z</time>
      </trkpt>
      <trkpt lat="44.64914" lon="3.07542">
        <ele>1163</ele>
        <time>2019-05-31T12:25:44.104Z</time>
      </trkpt>
      <trkpt lat="44.64911" lon="3.07538">
        <ele>1163</ele>
        <time>2019-05-31T12:25:48.115Z</time>
      </trkpt>
      <trkpt lat="44.6491" lon="3.07533">
        <ele>1163</ele>
        <time>2019-05-31T12:25:52.116Z</time>
      </trkpt>
      <trkpt lat="44.64908" lon="3.07529">
        <ele>1163</ele>
        <time>2019-05-31T12:25:57.089Z</time>
      </trkpt>
      <trkpt lat="44.64906" lon="3.07525">
        <ele>1163</ele>
        <time>2019-05-31T12:26:01.116Z</time>
      </trkpt>
      <trkpt lat="44.64903" lon="3.07519">
        <ele>1163</ele>
        <time>2019-05-31T12:26:06.140Z</time>
      </trkpt>
      <trkpt lat="44.64901" lon="3.07512">
        <ele>1165</ele>
        <time>2019-05-31T12:26:11.092Z</time>
      </trkpt>
      <trkpt lat="44.64898" lon="3.07508">
        <ele>1165</ele>
        <time>2019-05-31T12:26:15.109Z</time>
      </trkpt>
      <trkpt lat="44.64896" lon="3.07502">
        <ele>1165</ele>
        <time>2019-05-31T12:26:20.120Z</time>
      </trkpt>
      <trkpt lat="44.64893" lon="3.07498">
        <ele>1165</ele>
        <time>2019-05-31T12:26:24.132Z</time>
      </trkpt>
      <trkpt lat="44.64891" lon="3.07492">
        <ele>1165</ele>
        <time>2019-05-31T12:26:29.111Z</time>
      </trkpt>
      <trkpt lat="44.64889" lon="3.07488">
        <ele>1165</ele>
        <time>2019-05-31T12:26:33.115Z</time>
      </trkpt>
      <trkpt lat="44.64888" lon="3.07482">
        <ele>1166</ele>
        <time>2019-05-31T12:26:38.112Z</time>
      </trkpt>
      <trkpt lat="44.64886" lon="3.07477">
        <ele>1166</ele>
        <time>2019-05-31T12:26:42.111Z</time>
      </trkpt>
      <trkpt lat="44.64884" lon="3.07472">
        <ele>1166</ele>
        <time>2019-05-31T12:26:46.143Z</time>
      </trkpt>
      <trkpt lat="44.64881" lon="3.07469">
        <ele>1166</ele>
        <time>2019-05-31T12:26:51.118Z</time>
      </trkpt>
      <trkpt lat="44.64879" lon="3.07465">
        <ele>1166</ele>
        <time>2019-05-31T12:26:55.113Z</time>
      </trkpt>
      <trkpt lat="44.64878" lon="3.07462">
        <ele>1166</ele>
        <time>2019-05-31T12:26:59.122Z</time>
      </trkpt>
      <trkpt lat="44.64874" lon="3.07456">
        <ele>1170</ele>
        <time>2019-05-31T12:27:04.116Z</time>
      </trkpt>
      <trkpt lat="44.64871" lon="3.0745">
        <ele>1170</ele>
        <time>2019-05-31T12:27:09.124Z</time>
      </trkpt>
      <trkpt lat="44.64869" lon="3.07443">
        <ele>1170</ele>
        <time>2019-05-31T12:27:14.119Z</time>
      </trkpt>
      <trkpt lat="44.64867" lon="3.07438">
        <ele>1170</ele>
        <time>2019-05-31T12:27:19.123Z</time>
      </trkpt>
      <trkpt lat="44.64865" lon="3.07432">
        <ele>1170</ele>
        <time>2019-05-31T12:27:24.112Z</time>
      </trkpt>
      <trkpt lat="44.64863" lon="3.0743">
        <ele>1171</ele>
        <time>2019-05-31T12:27:29.111Z</time>
      </trkpt>
      <trkpt lat="44.64862" lon="3.07426">
        <ele>1171</ele>
        <time>2019-05-31T12:27:34.106Z</time>
      </trkpt>
      <trkpt lat="44.6486" lon="3.0742">
        <ele>1171</ele>
        <time>2019-05-31T12:27:38.113Z</time>
      </trkpt>
      <trkpt lat="44.64857" lon="3.07414">
        <ele>1171</ele>
        <time>2019-05-31T12:27:43.116Z</time>
      </trkpt>
      <trkpt lat="44.64854" lon="3.07409">
        <ele>1171</ele>
        <time>2019-05-31T12:27:48.114Z</time>
      </trkpt>
      <trkpt lat="44.64853" lon="3.07404">
        <ele>1171</ele>
        <time>2019-05-31T12:27:53.118Z</time>
      </trkpt>
      <trkpt lat="44.64851" lon="3.07398">
        <ele>1172</ele>
        <time>2019-05-31T12:27:58.106Z</time>
      </trkpt>
      <trkpt lat="44.64849" lon="3.07391">
        <ele>1172</ele>
        <time>2019-05-31T12:28:03.116Z</time>
      </trkpt>
      <trkpt lat="44.64848" lon="3.07385">
        <ele>1172</ele>
        <time>2019-05-31T12:28:08.114Z</time>
      </trkpt>
      <trkpt lat="44.64846" lon="3.07377">
        <ele>1173</ele>
        <time>2019-05-31T12:28:13.109Z</time>
      </trkpt>
      <trkpt lat="44.64843" lon="3.07372">
        <ele>1174</ele>
        <time>2019-05-31T12:28:17.120Z</time>
      </trkpt>
      <trkpt lat="44.6484" lon="3.07366">
        <ele>1174</ele>
        <time>2019-05-31T12:28:22.127Z</time>
      </trkpt>
      <trkpt lat="44.64836" lon="3.07361">
        <ele>1174</ele>
        <time>2019-05-31T12:28:27.118Z</time>
      </trkpt>
      <trkpt lat="44.64833" lon="3.07356">
        <ele>1174</ele>
        <time>2019-05-31T12:28:32.093Z</time>
      </trkpt>
      <trkpt lat="44.64829" lon="3.07351">
        <ele>1174</ele>
        <time>2019-05-31T12:28:36.118Z</time>
      </trkpt>
      <trkpt lat="44.64826" lon="3.07344">
        <ele>1174</ele>
        <time>2019-05-31T12:28:41.115Z</time>
      </trkpt>
      <trkpt lat="44.64824" lon="3.07338">
        <ele>1174</ele>
        <time>2019-05-31T12:28:46.111Z</time>
      </trkpt>
      <trkpt lat="44.64822" lon="3.07332">
        <ele>1174</ele>
        <time>2019-05-31T12:28:51.115Z</time>
      </trkpt>
      <trkpt lat="44.64819" lon="3.07327">
        <ele>1178</ele>
        <time>2019-05-31T12:28:56.090Z</time>
      </trkpt>
      <trkpt lat="44.64816" lon="3.07323">
        <ele>1178</ele>
        <time>2019-05-31T12:29:00.116Z</time>
      </trkpt>
      <trkpt lat="44.64812" lon="3.07316">
        <ele>1179</ele>
        <time>2019-05-31T12:29:05.112Z</time>
      </trkpt>
      <trkpt lat="44.64809" lon="3.07312">
        <ele>1179</ele>
        <time>2019-05-31T12:29:09.110Z</time>
      </trkpt>
      <trkpt lat="44.64806" lon="3.07306">
        <ele>1179</ele>
        <time>2019-05-31T12:29:14.119Z</time>
      </trkpt>
      <trkpt lat="44.64802" lon="3.07303">
        <ele>1179</ele>
        <time>2019-05-31T12:29:19.145Z</time>
      </trkpt>
      <trkpt lat="44.64802" lon="3.07303">
        <ele>1179</ele>
        <time>2019-05-31T12:29:29.110Z</time>
      </trkpt>
      <trkpt lat="44.648" lon="3.07298">
        <ele>1179</ele>
        <time>2019-05-31T12:29:34.108Z</time>
      </trkpt>
      <trkpt lat="44.648" lon="3.07294">
        <ele>1179</ele>
        <time>2019-05-31T12:29:39.112Z</time>
      </trkpt>
      <trkpt lat="44.64799" lon="3.07289">
        <ele>1179</ele>
        <time>2019-05-31T12:29:44.111Z</time>
      </trkpt>
      <trkpt lat="44.64799" lon="3.07283">
        <ele>1179</ele>
        <time>2019-05-31T12:29:49.105Z</time>
      </trkpt>
      <trkpt lat="44.64799" lon="3.07277">
        <ele>1179</ele>
        <time>2019-05-31T12:29:53.111Z</time>
      </trkpt>
      <trkpt lat="44.64799" lon="3.07272">
        <ele>1179</ele>
        <time>2019-05-31T12:29:58.107Z</time>
      </trkpt>
      <trkpt lat="44.64799" lon="3.07266">
        <ele>1179</ele>
        <time>2019-05-31T12:30:03.114Z</time>
      </trkpt>
      <trkpt lat="44.64798" lon="3.07259">
        <ele>1181</ele>
        <time>2019-05-31T12:30:08.120Z</time>
      </trkpt>
      <trkpt lat="44.64798" lon="3.07253">
        <ele>1181</ele>
        <time>2019-05-31T12:30:13.122Z</time>
      </trkpt>
      <trkpt lat="44.64798" lon="3.07248">
        <ele>1181</ele>
        <time>2019-05-31T12:30:18.106Z</time>
      </trkpt>
      <trkpt lat="44.64799" lon="3.07245">
        <ele>1181</ele>
        <time>2019-05-31T12:30:22.112Z</time>
      </trkpt>
      <trkpt lat="44.648" lon="3.07242">
        <ele>1181</ele>
        <time>2019-05-31T12:30:27.139Z</time>
      </trkpt>
      <trkpt lat="44.64803" lon="3.07239">
        <ele>1181</ele>
        <time>2019-05-31T12:30:32.109Z</time>
      </trkpt>
      <trkpt lat="44.64806" lon="3.07236">
        <ele>1187</ele>
        <time>2019-05-31T12:30:36.118Z</time>
      </trkpt>
      <trkpt lat="44.6481" lon="3.07233">
        <ele>1187</ele>
        <time>2019-05-31T12:30:41.113Z</time>
      </trkpt>
      <trkpt lat="44.64816" lon="3.07231">
        <ele>1187</ele>
        <time>2019-05-31T12:30:46.109Z</time>
      </trkpt>
      <trkpt lat="44.64819" lon="3.0723">
        <ele>1187</ele>
        <time>2019-05-31T12:30:50.138Z</time>
      </trkpt>
      <trkpt lat="44.64823" lon="3.07229">
        <ele>1186</ele>
        <time>2019-05-31T12:30:55.111Z</time>
      </trkpt>
      <trkpt lat="44.64827" lon="3.07228">
        <ele>1186</ele>
        <time>2019-05-31T12:30:59.111Z</time>
      </trkpt>
      <trkpt lat="44.64832" lon="3.07226">
        <ele>1186</ele>
        <time>2019-05-31T12:31:04.126Z</time>
      </trkpt>
      <trkpt lat="44.64836" lon="3.07224">
        <ele>1186</ele>
        <time>2019-05-31T12:31:09.118Z</time>
      </trkpt>
      <trkpt lat="44.6484" lon="3.07221">
        <ele>1186</ele>
        <time>2019-05-31T12:31:13.146Z</time>
      </trkpt>
      <trkpt lat="44.64842" lon="3.07216">
        <ele>1186</ele>
        <time>2019-05-31T12:31:18.110Z</time>
      </trkpt>
      <trkpt lat="44.64847" lon="3.07212">
        <ele>1186</ele>
        <time>2019-05-31T12:31:23.108Z</time>
      </trkpt>
      <trkpt lat="44.64849" lon="3.0721">
        <ele>1185</ele>
        <time>2019-05-31T12:31:27.124Z</time>
      </trkpt>
      <trkpt lat="44.64854" lon="3.07205">
        <ele>1190</ele>
        <time>2019-05-31T12:31:32.108Z</time>
      </trkpt>
      <trkpt lat="44.64858" lon="3.07204">
        <ele>1190</ele>
        <time>2019-05-31T12:31:36.115Z</time>
      </trkpt>
      <trkpt lat="44.64862" lon="3.07201">
        <ele>1190</ele>
        <time>2019-05-31T12:31:40.145Z</time>
      </trkpt>
      <trkpt lat="44.64865" lon="3.07197">
        <ele>1190</ele>
        <time>2019-05-31T12:31:45.117Z</time>
      </trkpt>
      <trkpt lat="44.64867" lon="3.07191">
        <ele>1190</ele>
        <time>2019-05-31T12:31:50.154Z</time>
      </trkpt>
      <trkpt lat="44.6487" lon="3.07187">
        <ele>1190</ele>
        <time>2019-05-31T12:31:55.111Z</time>
      </trkpt>
      <trkpt lat="44.64872" lon="3.07182">
        <ele>1190</ele>
        <time>2019-05-31T12:31:59.119Z</time>
      </trkpt>
      <trkpt lat="44.64876" lon="3.0718">
        <ele>1190</ele>
        <time>2019-05-31T12:32:04.113Z</time>
      </trkpt>
      <trkpt lat="44.64879" lon="3.07179">
        <ele>1190</ele>
        <time>2019-05-31T12:32:09.105Z</time>
      </trkpt>
      <trkpt lat="44.6488" lon="3.07174">
        <ele>1190</ele>
        <time>2019-05-31T12:33:01.112Z</time>
      </trkpt>
      <trkpt lat="44.64883" lon="3.07169">
        <ele>1190</ele>
        <time>2019-05-31T12:33:05.148Z</time>
      </trkpt>
      <trkpt lat="44.64887" lon="3.07165">
        <ele>1190</ele>
        <time>2019-05-31T12:33:10.111Z</time>
      </trkpt>
      <trkpt lat="44.6489" lon="3.0716">
        <ele>1190</ele>
        <time>2019-05-31T12:33:14.140Z</time>
      </trkpt>
      <trkpt lat="44.64893" lon="3.07158">
        <ele>1190</ele>
        <time>2019-05-31T12:33:19.115Z</time>
      </trkpt>
      <trkpt lat="44.64895" lon="3.07157">
        <ele>1190</ele>
        <time>2019-05-31T12:33:23.136Z</time>
      </trkpt>
      <trkpt lat="44.64893" lon="3.07152">
        <ele>1195</ele>
        <time>2019-05-31T12:33:28.115Z</time>
      </trkpt>
      <trkpt lat="44.64893" lon="3.07147">
        <ele>1195</ele>
        <time>2019-05-31T12:33:33.117Z</time>
      </trkpt>
      <trkpt lat="44.6489" lon="3.07136">
        <ele>1195</ele>
        <time>2019-05-31T12:33:47.139Z</time>
      </trkpt>
      <trkpt lat="44.6489" lon="3.07135">
        <ele>1195</ele>
        <time>2019-05-31T12:33:52.115Z</time>
      </trkpt>
      <trkpt lat="44.64888" lon="3.07135">
        <ele>1195</ele>
        <time>2019-05-31T12:33:56.116Z</time>
      </trkpt>
      <trkpt lat="44.64884" lon="3.07136">
        <ele>1195</ele>
        <time>2019-05-31T12:34:00.141Z</time>
      </trkpt>
      <trkpt lat="44.64882" lon="3.07135">
        <ele>1195</ele>
        <time>2019-05-31T12:34:05.116Z</time>
      </trkpt>
      <trkpt lat="44.64878" lon="3.07134">
        <ele>1195</ele>
        <time>2019-05-31T12:34:09.135Z</time>
      </trkpt>
      <trkpt lat="44.64873" lon="3.07132">
        <ele>1198</ele>
        <time>2019-05-31T12:34:14.136Z</time>
      </trkpt>
      <trkpt lat="44.64869" lon="3.07131">
        <ele>1198</ele>
        <time>2019-05-31T12:34:18.147Z</time>
      </trkpt>
      <trkpt lat="44.64869" lon="3.0713">
        <ele>1198</ele>
        <time>2019-05-31T12:34:23.111Z</time>
      </trkpt>
      <trkpt lat="44.64867" lon="3.07128">
        <ele>1198</ele>
        <time>2019-05-31T12:34:32.110Z</time>
      </trkpt>
      <trkpt lat="44.64864" lon="3.07128">
        <ele>1198</ele>
        <time>2019-05-31T12:34:47.119Z</time>
      </trkpt>
      <trkpt lat="44.64862" lon="3.07127">
        <ele>1198</ele>
        <time>2019-05-31T12:34:52.110Z</time>
      </trkpt>
      <trkpt lat="44.6486" lon="3.07127">
        <ele>1198</ele>
        <time>2019-05-31T12:35:01.141Z</time>
      </trkpt>
      <trkpt lat="44.64855" lon="3.07128">
        <ele>1198</ele>
        <time>2019-05-31T12:35:06.121Z</time>
      </trkpt>
      <trkpt lat="44.64851" lon="3.07126">
        <ele>1198</ele>
        <time>2019-05-31T12:35:11.117Z</time>
      </trkpt>
      <trkpt lat="44.64847" lon="3.07128">
        <ele>1198</ele>
        <time>2019-05-31T12:35:16.114Z</time>
      </trkpt>
      <trkpt lat="44.64847" lon="3.07127">
        <ele>1198</ele>
        <time>2019-05-31T12:35:20.128Z</time>
      </trkpt>
      <trkpt lat="44.64844" lon="3.07126">
        <ele>1198</ele>
        <time>2019-05-31T12:35:25.113Z</time>
      </trkpt>
      <trkpt lat="44.64839" lon="3.07123">
        <ele>1200</ele>
        <time>2019-05-31T12:35:30.112Z</time>
      </trkpt>
      <trkpt lat="44.64836" lon="3.07121">
        <ele>1200</ele>
        <time>2019-05-31T12:35:34.137Z</time>
      </trkpt>
      <trkpt lat="44.64832" lon="3.07119">
        <ele>1200</ele>
        <time>2019-05-31T12:35:38.144Z</time>
      </trkpt>
      <trkpt lat="44.64828" lon="3.07116">
        <ele>1200</ele>
        <time>2019-05-31T12:35:43.113Z</time>
      </trkpt>
      <trkpt lat="44.64823" lon="3.07114">
        <ele>1200</ele>
        <time>2019-05-31T12:35:48.117Z</time>
      </trkpt>
      <trkpt lat="44.64821" lon="3.07112">
        <ele>1200</ele>
        <time>2019-05-31T12:35:53.113Z</time>
      </trkpt>
      <trkpt lat="44.64817" lon="3.07111">
        <ele>1202</ele>
        <time>2019-05-31T12:35:58.103Z</time>
      </trkpt>
      <trkpt lat="44.64813" lon="3.07108">
        <ele>1202</ele>
        <time>2019-05-31T12:36:02.113Z</time>
      </trkpt>
      <trkpt lat="44.6481" lon="3.07105">
        <ele>1202</ele>
        <time>2019-05-31T12:36:06.120Z</time>
      </trkpt>
      <trkpt lat="44.64804" lon="3.07103">
        <ele>1202</ele>
        <time>2019-05-31T12:36:11.110Z</time>
      </trkpt>
      <trkpt lat="44.648" lon="3.07101">
        <ele>1202</ele>
        <time>2019-05-31T12:36:16.127Z</time>
      </trkpt>
      <trkpt lat="44.64794" lon="3.07101">
        <ele>1202</ele>
        <time>2019-05-31T12:36:21.098Z</time>
      </trkpt>
      <trkpt lat="44.64791" lon="3.07101">
        <ele>1203</ele>
        <time>2019-05-31T12:36:26.109Z</time>
      </trkpt>
      <trkpt lat="44.64785" lon="3.07099">
        <ele>1203</ele>
        <time>2019-05-31T12:36:31.099Z</time>
      </trkpt>
      <trkpt lat="44.64781" lon="3.07095">
        <ele>1206</ele>
        <time>2019-05-31T12:36:35.107Z</time>
      </trkpt>
      <trkpt lat="44.64776" lon="3.07093">
        <ele>1206</ele>
        <time>2019-05-31T12:36:40.112Z</time>
      </trkpt>
      <trkpt lat="44.64773" lon="3.07088">
        <ele>1206</ele>
        <time>2019-05-31T12:36:45.116Z</time>
      </trkpt>
      <trkpt lat="44.64768" lon="3.07086">
        <ele>1206</ele>
        <time>2019-05-31T12:36:50.111Z</time>
      </trkpt>
      <trkpt lat="44.64764" lon="3.07085">
        <ele>1205</ele>
        <time>2019-05-31T12:36:55.123Z</time>
      </trkpt>
      <trkpt lat="44.6476" lon="3.07084">
        <ele>1205</ele>
        <time>2019-05-31T12:37:00.123Z</time>
      </trkpt>
      <trkpt lat="44.64757" lon="3.07084">
        <ele>1205</ele>
        <time>2019-05-31T12:37:05.109Z</time>
      </trkpt>
      <trkpt lat="44.64754" lon="3.07081">
        <ele>1205</ele>
        <time>2019-05-31T12:37:20.110Z</time>
      </trkpt>
      <trkpt lat="44.64751" lon="3.07079">
        <ele>1205</ele>
        <time>2019-05-31T12:37:24.121Z</time>
      </trkpt>
      <trkpt lat="44.64747" lon="3.07077">
        <ele>1205</ele>
        <time>2019-05-31T12:37:29.113Z</time>
      </trkpt>
      <trkpt lat="44.64744" lon="3.07074">
        <ele>1205</ele>
        <time>2019-05-31T12:37:34.137Z</time>
      </trkpt>
      <trkpt lat="44.6474" lon="3.07072">
        <ele>1205</ele>
        <time>2019-05-31T12:37:39.098Z</time>
      </trkpt>
      <trkpt lat="44.64737" lon="3.0707">
        <ele>1205</ele>
        <time>2019-05-31T12:37:43.112Z</time>
      </trkpt>
      <trkpt lat="44.64733" lon="3.07069">
        <ele>1206</ele>
        <time>2019-05-31T12:37:48.108Z</time>
      </trkpt>
      <trkpt lat="44.6473" lon="3.07068">
        <ele>1206</ele>
        <time>2019-05-31T12:37:52.125Z</time>
      </trkpt>
      <trkpt lat="44.64726" lon="3.07067">
        <ele>1206</ele>
        <time>2019-05-31T12:37:57.116Z</time>
      </trkpt>
      <trkpt lat="44.64721" lon="3.07065">
        <ele>1206</ele>
        <time>2019-05-31T12:38:02.147Z</time>
      </trkpt>
      <trkpt lat="44.64717" lon="3.07063">
        <ele>1206</ele>
        <time>2019-05-31T12:38:07.110Z</time>
      </trkpt>
      <trkpt lat="44.64713" lon="3.07061">
        <ele>1206</ele>
        <time>2019-05-31T12:38:11.148Z</time>
      </trkpt>
      <trkpt lat="44.64709" lon="3.0706">
        <ele>1206</ele>
        <time>2019-05-31T12:38:16.113Z</time>
      </trkpt>
      <trkpt lat="44.64705" lon="3.07059">
        <ele>1208</ele>
        <time>2019-05-31T12:38:21.121Z</time>
      </trkpt>
      <trkpt lat="44.64701" lon="3.07058">
        <ele>1208</ele>
        <time>2019-05-31T12:38:26.119Z</time>
      </trkpt>
      <trkpt lat="44.64697" lon="3.07056">
        <ele>1208</ele>
        <time>2019-05-31T12:38:31.117Z</time>
      </trkpt>
      <trkpt lat="44.64694" lon="3.07054">
        <ele>1208</ele>
        <time>2019-05-31T12:38:35.119Z</time>
      </trkpt>
      <trkpt lat="44.6469" lon="3.07051">
        <ele>1208</ele>
        <time>2019-05-31T12:38:39.140Z</time>
      </trkpt>
      <trkpt lat="44.64689" lon="3.0705">
        <ele>1208</ele>
        <time>2019-05-31T12:38:44.110Z</time>
      </trkpt>
      <trkpt lat="44.64678" lon="3.07042">
        <ele>1207</ele>
        <time>2019-05-31T12:41:17.112Z</time>
      </trkpt>
      <trkpt lat="44.6467" lon="3.07035">
        <ele>1208</ele>
        <time>2019-05-31T12:41:22.114Z</time>
      </trkpt>
      <trkpt lat="44.64666" lon="3.07031">
        <ele>1208</ele>
        <time>2019-05-31T12:41:27.111Z</time>
      </trkpt>
      <trkpt lat="44.64664" lon="3.07024">
        <ele>1208</ele>
        <time>2019-05-31T12:41:32.122Z</time>
      </trkpt>
      <trkpt lat="44.6466" lon="3.07019">
        <ele>1208</ele>
        <time>2019-05-31T12:41:37.116Z</time>
      </trkpt>
      <trkpt lat="44.64657" lon="3.07014">
        <ele>1208</ele>
        <time>2019-05-31T12:41:42.125Z</time>
      </trkpt>
      <trkpt lat="44.64655" lon="3.07009">
        <ele>1209</ele>
        <time>2019-05-31T12:41:47.116Z</time>
      </trkpt>
      <trkpt lat="44.64653" lon="3.07004">
        <ele>1207</ele>
        <time>2019-05-31T12:41:52.119Z</time>
      </trkpt>
      <trkpt lat="44.64651" lon="3.07">
        <ele>1207</ele>
        <time>2019-05-31T12:41:57.120Z</time>
      </trkpt>
      <trkpt lat="44.64649" lon="3.06995">
        <ele>1207</ele>
        <time>2019-05-31T12:42:02.119Z</time>
      </trkpt>
      <trkpt lat="44.64646" lon="3.0699">
        <ele>1207</ele>
        <time>2019-05-31T12:42:07.117Z</time>
      </trkpt>
      <trkpt lat="44.64645" lon="3.06986">
        <ele>1209</ele>
        <time>2019-05-31T12:42:11.147Z</time>
      </trkpt>
      <trkpt lat="44.64643" lon="3.06978">
        <ele>1209</ele>
        <time>2019-05-31T12:42:16.128Z</time>
      </trkpt>
      <trkpt lat="44.64641" lon="3.06973">
        <ele>1209</ele>
        <time>2019-05-31T12:42:21.120Z</time>
      </trkpt>
      <trkpt lat="44.64638" lon="3.06968">
        <ele>1209</ele>
        <time>2019-05-31T12:42:26.115Z</time>
      </trkpt>
      <trkpt lat="44.64634" lon="3.06962">
        <ele>1209</ele>
        <time>2019-05-31T12:42:31.119Z</time>
      </trkpt>
      <trkpt lat="44.64632" lon="3.06958">
        <ele>1212</ele>
        <time>2019-05-31T12:42:36.122Z</time>
      </trkpt>
      <trkpt lat="44.64629" lon="3.06953">
        <ele>1212</ele>
        <time>2019-05-31T12:42:41.136Z</time>
      </trkpt>
      <trkpt lat="44.64626" lon="3.06948">
        <ele>1212</ele>
        <time>2019-05-31T12:42:46.120Z</time>
      </trkpt>
      <trkpt lat="44.64625" lon="3.06943">
        <ele>1212</ele>
        <time>2019-05-31T12:42:50.127Z</time>
      </trkpt>
      <trkpt lat="44.64624" lon="3.0694">
        <ele>1211</ele>
        <time>2019-05-31T12:42:55.117Z</time>
      </trkpt>
      <trkpt lat="44.64625" lon="3.06938">
        <ele>1212</ele>
        <time>2019-05-31T12:43:00.133Z</time>
      </trkpt>
      <trkpt lat="44.64627" lon="3.06932">
        <ele>1212</ele>
        <time>2019-05-31T12:43:05.114Z</time>
      </trkpt>
      <trkpt lat="44.64628" lon="3.06927">
        <ele>1212</ele>
        <time>2019-05-31T12:43:09.150Z</time>
      </trkpt>
      <trkpt lat="44.64631" lon="3.06922">
        <ele>1212</ele>
        <time>2019-05-31T12:43:14.109Z</time>
      </trkpt>
      <trkpt lat="44.64632" lon="3.06917">
        <ele>1212</ele>
        <time>2019-05-31T12:43:19.115Z</time>
      </trkpt>
      <trkpt lat="44.64635" lon="3.0691">
        <ele>1212</ele>
        <time>2019-05-31T12:43:24.110Z</time>
      </trkpt>
      <trkpt lat="44.64636" lon="3.06904">
        <ele>1212</ele>
        <time>2019-05-31T12:43:29.124Z</time>
      </trkpt>
      <trkpt lat="44.64639" lon="3.06897">
        <ele>1213</ele>
        <time>2019-05-31T12:43:33.132Z</time>
      </trkpt>
      <trkpt lat="44.64642" lon="3.06889">
        <ele>1213</ele>
        <time>2019-05-31T12:43:38.113Z</time>
      </trkpt>
      <trkpt lat="44.64645" lon="3.06883">
        <ele>1213</ele>
        <time>2019-05-31T12:43:43.123Z</time>
      </trkpt>
      <trkpt lat="44.64649" lon="3.06875">
        <ele>1213</ele>
        <time>2019-05-31T12:43:48.113Z</time>
      </trkpt>
      <trkpt lat="44.6465" lon="3.0687">
        <ele>1215</ele>
        <time>2019-05-31T12:43:52.117Z</time>
      </trkpt>
      <trkpt lat="44.64651" lon="3.06864">
        <ele>1215</ele>
        <time>2019-05-31T12:43:57.116Z</time>
      </trkpt>
      <trkpt lat="44.64653" lon="3.06856">
        <ele>1215</ele>
        <time>2019-05-31T12:44:02.139Z</time>
      </trkpt>
      <trkpt lat="44.64655" lon="3.0685">
        <ele>1215</ele>
        <time>2019-05-31T12:44:07.107Z</time>
      </trkpt>
      <trkpt lat="44.64655" lon="3.06843">
        <ele>1217</ele>
        <time>2019-05-31T12:44:11.112Z</time>
      </trkpt>
      <trkpt lat="44.64658" lon="3.06834">
        <ele>1217</ele>
        <time>2019-05-31T12:44:16.120Z</time>
      </trkpt>
      <trkpt lat="44.6466" lon="3.0683">
        <ele>1217</ele>
        <time>2019-05-31T12:44:20.136Z</time>
      </trkpt>
      <trkpt lat="44.64663" lon="3.06824">
        <ele>1217</ele>
        <time>2019-05-31T12:44:25.117Z</time>
      </trkpt>
      <trkpt lat="44.64667" lon="3.06818">
        <ele>1219</ele>
        <time>2019-05-31T12:44:30.113Z</time>
      </trkpt>
      <trkpt lat="44.64669" lon="3.06812">
        <ele>1219</ele>
        <time>2019-05-31T12:44:34.142Z</time>
      </trkpt>
      <trkpt lat="44.64672" lon="3.06805">
        <ele>1219</ele>
        <time>2019-05-31T12:44:39.107Z</time>
      </trkpt>
      <trkpt lat="44.64675" lon="3.06798">
        <ele>1219</ele>
        <time>2019-05-31T12:44:44.111Z</time>
      </trkpt>
      <trkpt lat="44.64678" lon="3.06791">
        <ele>1220</ele>
        <time>2019-05-31T12:44:49.113Z</time>
      </trkpt>
      <trkpt lat="44.64681" lon="3.06785">
        <ele>1218</ele>
        <time>2019-05-31T12:44:53.120Z</time>
      </trkpt>
      <trkpt lat="44.64683" lon="3.06779">
        <ele>1218</ele>
        <time>2019-05-31T12:44:58.114Z</time>
      </trkpt>
      <trkpt lat="44.64687" lon="3.06772">
        <ele>1218</ele>
        <time>2019-05-31T12:45:03.112Z</time>
      </trkpt>
      <trkpt lat="44.64689" lon="3.06767">
        <ele>1218</ele>
        <time>2019-05-31T12:45:08.143Z</time>
      </trkpt>
      <trkpt lat="44.64689" lon="3.06765">
        <ele>1218</ele>
        <time>2019-05-31T12:45:12.146Z</time>
      </trkpt>
      <trkpt lat="44.64691" lon="3.06758">
        <ele>1218</ele>
        <time>2019-05-31T12:45:17.112Z</time>
      </trkpt>
      <trkpt lat="44.64694" lon="3.06753">
        <ele>1218</ele>
        <time>2019-05-31T12:45:21.111Z</time>
      </trkpt>
      <trkpt lat="44.64697" lon="3.06748">
        <ele>1218</ele>
        <time>2019-05-31T12:45:25.135Z</time>
      </trkpt>
      <trkpt lat="44.64699" lon="3.06739">
        <ele>1218</ele>
        <time>2019-05-31T12:45:30.113Z</time>
      </trkpt>
      <trkpt lat="44.64702" lon="3.06734">
        <ele>1216</ele>
        <time>2019-05-31T12:45:34.150Z</time>
      </trkpt>
      <trkpt lat="44.64705" lon="3.06726">
        <ele>1216</ele>
        <time>2019-05-31T12:45:39.114Z</time>
      </trkpt>
      <trkpt lat="44.64708" lon="3.0672">
        <ele>1216</ele>
        <time>2019-05-31T12:45:44.112Z</time>
      </trkpt>
      <trkpt lat="44.6471" lon="3.06713">
        <ele>1216</ele>
        <time>2019-05-31T12:45:48.118Z</time>
      </trkpt>
      <trkpt lat="44.64713" lon="3.06708">
        <ele>1215</ele>
        <time>2019-05-31T12:45:52.122Z</time>
      </trkpt>
      <trkpt lat="44.64716" lon="3.06702">
        <ele>1215</ele>
        <time>2019-05-31T12:45:57.133Z</time>
      </trkpt>
      <trkpt lat="44.64719" lon="3.06697">
        <ele>1215</ele>
        <time>2019-05-31T12:46:02.115Z</time>
      </trkpt>
      <trkpt lat="44.64722" lon="3.06691">
        <ele>1215</ele>
        <time>2019-05-31T12:46:07.107Z</time>
      </trkpt>
      <trkpt lat="44.64723" lon="3.06685">
        <ele>1215</ele>
        <time>2019-05-31T12:46:11.119Z</time>
      </trkpt>
      <trkpt lat="44.64727" lon="3.06681">
        <ele>1215</ele>
        <time>2019-05-31T12:46:16.110Z</time>
      </trkpt>
      <trkpt lat="44.64729" lon="3.06677">
        <ele>1214</ele>
        <time>2019-05-31T12:46:20.154Z</time>
      </trkpt>
      <trkpt lat="44.64731" lon="3.0667">
        <ele>1214</ele>
        <time>2019-05-31T12:46:25.111Z</time>
      </trkpt>
      <trkpt lat="44.64732" lon="3.06663">
        <ele>1214</ele>
        <time>2019-05-31T12:46:29.115Z</time>
      </trkpt>
      <trkpt lat="44.64735" lon="3.06656">
        <ele>1214</ele>
        <time>2019-05-31T12:46:33.125Z</time>
      </trkpt>
      <trkpt lat="44.64738" lon="3.06649">
        <ele>1215</ele>
        <time>2019-05-31T12:46:38.114Z</time>
      </trkpt>
      <trkpt lat="44.64741" lon="3.06641">
        <ele>1215</ele>
        <time>2019-05-31T12:46:43.105Z</time>
      </trkpt>
      <trkpt lat="44.64743" lon="3.06632">
        <ele>1215</ele>
        <time>2019-05-31T12:46:48.117Z</time>
      </trkpt>
      <trkpt lat="44.64746" lon="3.06623">
        <ele>1216</ele>
        <time>2019-05-31T12:46:53.107Z</time>
      </trkpt>
      <trkpt lat="44.64749" lon="3.06618">
        <ele>1216</ele>
        <time>2019-05-31T12:46:57.135Z</time>
      </trkpt>
      <trkpt lat="44.64755" lon="3.06613">
        <ele>1216</ele>
        <time>2019-05-31T12:47:02.124Z</time>
      </trkpt>
      <trkpt lat="44.64757" lon="3.06608">
        <ele>1216</ele>
        <time>2019-05-31T12:47:06.144Z</time>
      </trkpt>
      <trkpt lat="44.64761" lon="3.06603">
        <ele>1216</ele>
        <time>2019-05-31T12:47:11.112Z</time>
      </trkpt>
      <trkpt lat="44.64765" lon="3.06598">
        <ele>1217</ele>
        <time>2019-05-31T12:47:16.118Z</time>
      </trkpt>
      <trkpt lat="44.64769" lon="3.06592">
        <ele>1219</ele>
        <time>2019-05-31T12:47:21.112Z</time>
      </trkpt>
      <trkpt lat="44.64772" lon="3.06586">
        <ele>1219</ele>
        <time>2019-05-31T12:47:26.115Z</time>
      </trkpt>
      <trkpt lat="44.64776" lon="3.0658">
        <ele>1219</ele>
        <time>2019-05-31T12:47:31.116Z</time>
      </trkpt>
      <trkpt lat="44.6478" lon="3.06577">
        <ele>1219</ele>
        <time>2019-05-31T12:47:36.113Z</time>
      </trkpt>
      <trkpt lat="44.64783" lon="3.06571">
        <ele>1219</ele>
        <time>2019-05-31T12:47:41.112Z</time>
      </trkpt>
      <trkpt lat="44.64786" lon="3.06566">
        <ele>1220</ele>
        <time>2019-05-31T12:47:45.144Z</time>
      </trkpt>
      <trkpt lat="44.64788" lon="3.06559">
        <ele>1220</ele>
        <time>2019-05-31T12:47:50.110Z</time>
      </trkpt>
      <trkpt lat="44.6479" lon="3.06553">
        <ele>1220</ele>
        <time>2019-05-31T12:47:55.114Z</time>
      </trkpt>
      <trkpt lat="44.64792" lon="3.06548">
        <ele>1219</ele>
        <time>2019-05-31T12:48:00.116Z</time>
      </trkpt>
      <trkpt lat="44.64794" lon="3.06542">
        <ele>1219</ele>
        <time>2019-05-31T12:48:05.114Z</time>
      </trkpt>
      <trkpt lat="44.64795" lon="3.06537">
        <ele>1219</ele>
        <time>2019-05-31T12:48:10.107Z</time>
      </trkpt>
      <trkpt lat="44.64796" lon="3.0653">
        <ele>1219</ele>
        <time>2019-05-31T12:48:15.122Z</time>
      </trkpt>
    </trkseg>
  </trk>
</gpx>